[[{"header":{"parameterUnit":"m.s-1","parameterCategory":1,"la1":31.0,"la2":29.5877,"lo1":-88.7671,"lo2":-86.6584,"dx":0.0162,"dy":0.0185,"nx":115,"ny":88,"refTime":"2022-11-26T18:00:00:Z","depth":0,"parameterNumber":2,"parameterNumberName":"U-component_of_WINDS"},"data":[0.0,0.0,0.0,0.0,0.0,0.0,0.0,0.0,0.0,0.0,0.0,0.0,0.0,0.0,0.0,0.0,0.0,0.0,0.0,0.0,0.0,0.0,0.0,0.0,0.0,0.0,0.0,0.0,0.0,0.0,0.0,0.0,0.0,0.0,0.0,0.0,0.0,0.0,0.0,0.0,0.0,0.0,0.0,0.0,0.0,0.0,0.0,0.0,0.0,0.0,0.0,0.0,0.0,0.0,0.0,0.0,0.0,0.0,0.0,0.0,0.0,0.0,0.0,0.0,0.0,0.0,0.0,0.0,0.0,0.0,0.0,0.0,0.0,0.0,0.0,0.0,0.0,0.0,0.0,0.0,0.0,0.0,0.0,0.0,0.0,0.0,0.0,0.0,0.0,0.0,0.0,0.0,0.0,0.0,0.0,0.0,0.0,0.0,0.0,0.0,0.0,0.0,0.0,0.0,0.0,0.0,0.0,0.0,0.0,0.0,0.0,0.0,0.0,0.0,0.0,0.0,0.0,0.0,0.0,0.0,0.0,0.0,0.0,0.0,0.0,0.0,0.0,0.0,0.0,0.0,0.0,0.0,0.0,0.0,0.0,0.0,0.0,0.0,0.0,0.0,0.0,0.0,0.0,0.0,0.0,0.0,0.0,0.0,0.0,0.0,0.0,0.0,0.0,0.0,0.0,0.0,0.0,0.0,0.0,0.0,0.0,0.0,0.0,0.0,0.0,0.0,0.0,0.0,0.0,0.0,0.0,0.0,0.0,0.0,0.0,0.0,0.0,0.0,0.0,0.0,0.0,0.0,0.0,0.0,0.0,0.0,0.0,0.0,0.0,0.0,0.0,0.0,0.0,0.0,0.0,0.0,0.0,0.0,0.0,0.0,0.0,0.0,0.0,0.0,0.0,0.0,0.0,0.0,0.0,0.0,0.0,0.0,0.0,0.0,0.0,0.0,0.0,0.0,0.0,0.0,0.0,0.0,0.0,0.0,0.0,0.0,0.0,0.0,0.0,0.0,0.0,0.0,0.0,0.0,0.0,0.0,0.0,0.0,0.0,0.0,0.0,0.0,0.0,0.0,0.0,0.0,0.0,0.0,0.0,0.0,0.0,0.0,0.0,0.0,0.0,0.0,0.0,0.0,0.0,0.0,0.0,0.0,0.0,0.0,0.0,0.0,0.0,0.0,0.0,0.0,0.0,0.0,0.0,0.0,0.0,0.0,0.0,0.0,0.0,0.0,0.0,0.0,0.0,0.0,0.0,0.0,0.0,0.0,0.0,0.0,0.0,0.0,0.0,0.0,0.0,0.0,0.0,0.0,0.0,0.0,0.0,0.0,0.0,0.0,0.0,0.0,0.0,0.0,0.0,0.0,0.0,0.0,0.0,0.0,0.0,0.0,0.0,0.0,0.0,0.0,0.0,0.0,0.0,0.0,0.0,0.0,0.0,0.0,0.0,0.0,0.0,0.0,0.0,0.0,0.0,0.0,0.0,0.0,0.0,0.0,0.0,0.0,0.0,0.0,0.0,0.0,0.0,0.0,0.0,0.0,0.0,0.0,0.0,0.0,0.0,0.0,0.0,0.0,0.0,0.0,0.0,0.0,0.0,0.0,0.0,0.0,0.0,0.0,0.0,0.0,0.0,0.0,0.0,0.0,0.0,0.0,0.0,0.0,0.0,0.0,0.0,0.0,0.0,0.0,0.0,0.0,0.0,0.0,0.0,0.0,0.0,0.0,0.0,0.0,0.0,0.0,0.0,0.0,0.0,0.0,0.0,0.0,0.0,0.0,0.0,0.0,0.0,0.0,0.0,0.0,0.0,0.0,0.0,0.0,0.0,0.0,0.0,0.0,0.0,0.0,0.0,0.0,0.0,0.0,0.0,0.0,0.0,0.0,0.0,0.0,0.0,0.0,0.0,0.0,0.0,0.0,0.0,0.0,0.0,0.0,0.0,0.0,0.0,0.0,0.0,0.0,0.0,0.0,0.0,0.0,0.0,0.0,0.0,0.0,0.0,0.0,0.0,0.0,0.0,0.0,0.0,0.0,0.0,0.0,0.0,0.0,0.0,0.0,0.0,0.0,0.0,0.0,0.0,0.0,0.0,0.0,0.0,0.0,0.0,0.0,0.0,0.0,0.0,0.0,0.0,0.0,0.0,0.0,0.0,0.0,0.0,0.0,0.0,0.0,0.0,0.0,0.0,0.0,0.0,0.0,0.0,0.0,0.0,0.0,0.0,0.0,0.0,0.0,0.0,0.0,0.0,0.0,0.0,0.0,0.0,0.0,0.0,0.0,0.0,0.0,0.0,0.0,0.0,0.0,0.0,0.0,0.0,0.0,0.0,0.0,0.0,0.0,0.0,0.0,0.0,0.0,0.0,0.0,0.0,0.0,0.0,0.0,0.0,0.0,0.0,0.0,0.0,0.0,0.0,0.0,0.0,0.0,0.0,0.0,0.0,0.0,0.0,0.0,0.0,0.0,0.0,0.0,0.0,0.0,0.0,0.0,0.0,0.0,0.0,0.0,0.0,0.0,0.0,0.0,0.0,0.0,0.0,0.0,0.0,0.0,0.0,0.0,0.0,0.0,0.0,0.0,0.0,0.0,0.0,0.0,0.0,0.0,0.0,0.0,0.0,0.0,0.0,0.0,0.0,0.0,0.0,0.0,0.0,0.0,0.0,0.0,0.0,0.0,0.0,0.0,0.0,0.0,0.0,0.0,0.0,0.0,0.0,0.0,0.0,0.0,0.0,0.0,0.0,0.0,0.0,0.0,0.0,0.0,0.0,0.0,0.0,0.0,0.0,0.0,0.0,0.0,0.0,0.0,0.0,0.0,0.0,0.0,0.0,0.0,0.0,0.0,0.0,0.0,0.0,0.0,0.0,0.0,0.0,0.0,0.0,0.0,0.0,0.0,0.0,0.0,0.0,0.0,0.0,0.0,0.0,0.0,0.0,0.0,0.0,0.0,0.0,0.0,0.0,0.0,0.0,0.0,0.0,0.0,0.0,0.0,0.0,0.0,0.0,0.0,0.0,0.0,0.0,0.0,0.0,0.0,0.0,0.0,0.0,0.0,0.0,0.0,0.0,0.0,0.0,0.0,0.0,0.0,0.0,0.0,0.0,0.0,0.0,0.0,0.0,0.0,0.0,0.0,0.0,0.0,0.0,0.0,0.0,0.0,0.0,0.0,0.0,0.0,0.0,0.0,0.0,0.0,0.0,0.0,0.0,0.0,0.0,0.0,0.0,0.0,0.0,0.0,0.0,0.0,0.0,0.0,0.0,0.0,0.0,0.0,0.0,0.0,0.0,0.0,0.0,0.0,0.0,0.0,0.0,0.0,0.0,0.0,0.0,0.0,0.0,0.0,0.0,0.0,0.0,0.0,0.0,0.0,0.0,0.0,0.0,0.0,0.0,0.0,0.0,0.0,0.0,0.0,0.0,0.0,0.0,0.0,0.0,0.0,0.0,0.0,0.0,0.0,0.0,0.0,0.0,0.0,0.0,0.0,0.0,0.0,0.0,0.0,0.0,0.0,0.0,0.0,0.0,0.0,0.0,0.0,0.0,0.0,0.0,0.0,0.0,0.0,0.0,0.0,0.0,0.0,0.0,0.0,0.0,0.0,0.0,0.0,0.0,0.0,0.0,0.0,0.0,0.0,0.0,0.0,0.0,0.0,0.0,0.0,0.0,0.0,0.0,0.0,0.0,0.0,0.0,0.0,0.0,0.0,0.0,0.0,0.0,0.0,0.0,0.0,0.0,0.0,0.0,0.0,0.0,0.0,0.0,0.0,0.0,0.0,0.0,0.0,0.0,0.0,0.0,0.0,0.0,0.0,0.0,0.0,0.0,0.0,0.0,0.0,0.0,0.0,0.0,0.0,0.0,0.0,0.0,0.0,0.0,0.0,0.0,0.0,0.0,0.0,0.0,0.0,0.0,0.0,0.0,0.0,0.0,0.0,0.0,0.0,0.0,0.0,0.0,0.0,0.0,0.0,0.0,0.0,0.0,0.0,0.0,0.0,0.0,0.0,0.0,0.0,0.0,0.0,0.0,0.0,0.0,0.0,0.0,0.0,0.0,0.0,0.0,0.0,0.0,0.0,0.0,0.0,0.0,0.0,0.0,0.0,0.0,0.0,0.0,0.0,0.0,0.0,0.0,0.0,0.0,0.0,0.0,0.0,0.0,0.0,0.0,0.0,0.0,0.0,0.0,0.0,0.0,0.0,0.0,0.0,0.0,0.0,0.0,0.0,0.0,0.0,-1.3227,0.0,0.0,0.0,-1.0367,0.0,0.0,0.0,0.0,0.0,0.0,0.0,0.0,0.0,0.0,0.0,0.0,0.0,0.0,0.0,0.0,0.0,0.0,0.0,0.0,0.0,0.0,0.0,0.0,0.0,0.0,0.0,0.0,0.0,0.0,0.0,0.0,0.0,0.0,0.0,0.0,0.0,0.0,0.0,0.0,0.0,0.0,0.0,0.0,0.0,0.0,0.0,0.0,0.0,0.0,0.0,0.0,0.0,0.0,0.0,0.0,0.0,0.0,0.0,0.0,0.0,0.0,0.0,0.0,0.0,0.0,0.0,0.0,0.0,0.0,0.0,0.0,0.0,0.0,0.0,0.0,0.0,0.0,0.0,0.0,0.0,0.0,0.0,0.0,0.0,0.0,0.0,0.0,0.0,0.0,0.0,0.0,0.0,0.0,0.0,0.0,0.0,0.0,0.0,0.0,0.0,0.0,0.0,0.0,0.0,0.0,0.0,0.0,0.0,0.0,-1.3363,-1.3243,-1.2456,-1.1761,-1.1254,0.0,0.0,0.0,0.0,0.0,0.0,0.0,0.0,0.0,0.0,0.0,0.0,0.0,0.0,0.0,0.0,0.0,0.0,0.0,0.0,0.0,0.0,0.0,0.0,0.0,0.0,0.0,0.0,0.0,0.0,0.0,0.0,0.0,0.0,0.0,0.0,0.0,0.0,0.0,0.0,0.0,0.0,0.0,0.0,0.0,0.0,0.0,0.0,0.0,0.0,0.0,0.0,0.0,0.0,0.0,0.0,0.0,0.0,0.0,0.0,0.0,0.0,0.0,0.0,0.0,0.0,0.0,0.0,0.0,0.0,0.0,0.0,0.0,0.0,0.0,0.0,0.0,0.0,0.0,0.0,0.0,0.0,0.0,0.0,0.0,0.0,0.0,0.0,0.0,0.0,0.0,0.0,0.0,0.0,0.0,0.0,0.0,0.0,0.0,0.0,0.0,0.0,0.0,0.0,0.0,0.0,0.0,0.0,0.0,0.0,0.0,0.0,-1.2771,-1.2172,-1.163,0.0,0.0,0.0,0.0,0.0,0.0,0.0,0.0,0.0,0.0,0.0,0.0,0.0,0.0,0.0,0.0,0.0,0.0,0.0,0.0,0.0,0.0,0.0,0.0,0.0,0.0,0.0,0.0,0.0,0.0,0.0,0.0,0.0,0.0,0.0,0.0,0.0,0.0,0.0,0.0,0.0,0.0,0.0,0.0,0.0,0.0,0.0,0.0,0.0,0.0,0.0,0.0,0.0,0.0,0.0,0.0,0.0,0.0,0.0,0.0,0.0,0.0,0.0,0.0,0.0,0.0,0.0,0.0,0.0,0.0,0.0,0.0,0.0,0.0,0.0,0.0,0.0,0.0,0.0,0.0,0.0,0.0,0.0,0.0,0.0,0.0,0.0,0.0,0.0,0.0,0.0,0.0,0.0,0.0,0.0,0.0,0.0,0.0,0.0,0.0,0.0,0.0,0.0,0.0,0.0,0.0,0.0,0.0,0.0,0.0,-1.37,-1.3573,-1.344,0.0,-1.0986,0.0,0.0,0.0,0.0,0.0,0.0,0.0,0.0,0.0,0.0,0.0,0.0,0.0,0.0,0.0,0.0,0.0,0.0,0.0,0.0,0.0,0.0,0.0,0.0,0.0,0.0,0.0,0.0,0.0,0.0,0.0,0.0,0.0,0.0,0.0,0.0,0.0,0.0,0.0,0.0,0.0,0.0,0.0,0.0,0.0,0.0,0.0,0.0,0.0,0.0,0.0,0.0,0.0,0.0,0.0,0.0,0.0,0.0,0.0,0.0,0.0,0.0,0.0,0.0,0.0,0.0,0.0,0.0,0.0,0.0,0.0,0.0,0.0,0.0,0.0,0.0,0.0,0.0,0.0,0.0,0.0,0.0,0.0,0.0,0.0,0.0,0.0,0.0,0.0,0.0,0.0,0.0,0.0,0.0,0.0,0.0,0.0,0.0,0.0,0.0,0.0,0.0,0.0,0.0,0.0,0.0,0.0,0.0,0.0,0.0,-1.388,-1.3836,-1.37,-1.2807,0.0,0.0,0.0,0.0,0.0,0.0,0.0,0.0,0.0,0.0,0.0,0.0,0.0,0.0,0.0,0.0,0.0,0.0,0.0,0.0,0.0,0.0,0.0,0.0,0.0,0.0,0.0,0.0,0.0,0.0,0.0,0.0,0.0,0.0,0.0,0.0,0.0,0.0,0.0,0.0,0.0,0.0,0.0,0.0,0.0,0.0,0.0,0.0,0.0,0.0,0.0,0.0,0.0,0.0,0.0,0.0,0.0,0.0,0.0,0.0,0.0,0.0,0.0,0.0,0.0,0.0,0.0,0.0,0.0,0.0,0.0,0.0,0.0,0.0,0.0,0.0,0.0,0.0,0.0,0.0,0.0,0.0,0.0,0.0,0.0,0.0,0.0,0.0,0.0,0.0,0.0,0.0,0.0,0.0,0.0,0.0,0.0,0.0,0.0,0.0,0.0,0.0,0.0,0.0,0.0,0.0,0.0,0.0,0.0,0.0,-1.41,-1.4068,-1.4054,-1.3851,-1.2973,-1.1319,0.0,0.0,0.0,0.0,0.0,0.0,0.0,0.0,0.0,0.0,0.0,0.0,0.0,0.0,0.0,0.0,0.0,0.0,0.0,0.0,0.0,0.0,0.0,0.0,0.0,0.0,0.0,0.0,0.0,0.0,0.0,0.0,0.0,0.0,0.0,0.0,0.0,0.0,0.0,0.0,0.0,0.0,0.0,0.0,0.0,0.0,0.0,0.0,0.0,0.0,0.0,0.0,0.0,0.0,0.0,0.0,0.0,0.0,0.0,0.0,0.0,0.0,0.0,0.0,0.0,0.0,0.0,0.0,0.0,0.0,0.0,0.0,0.0,0.0,0.0,0.0,0.0,0.0,0.0,0.0,0.0,0.0,0.0,0.0,0.0,0.0,0.0,0.0,0.0,0.0,0.0,0.0,0.0,0.0,0.0,0.0,0.0,0.0,0.0,0.0,0.0,0.0,0.0,0.0,0.0,0.0,0.0,0.0,-1.4376,-1.4317,-1.4255,-1.4203,-1.3973,-1.3096,0.0,0.0,0.0,0.0,0.0,0.0,0.0,0.0,0.0,0.0,0.0,0.0,0.0,0.0,0.0,0.0,0.0,0.0,0.0,0.0,0.0,0.0,0.0,0.0,0.0,0.0,0.0,0.0,0.0,0.0,0.0,0.0,0.0,0.0,0.0,0.0,0.0,0.0,0.0,0.0,0.0,0.0,0.0,0.0,0.0,0.0,0.0,0.0,0.0,0.0,0.0,0.0,0.0,0.0,0.0,0.0,0.0,0.0,0.0,0.0,0.0,0.0,0.0,0.0,0.0,0.0,0.0,0.0,0.0,0.0,0.0,0.0,0.0,0.0,0.0,0.0,0.0,0.0,0.0,0.0,0.0,0.0,0.0,0.0,0.0,0.0,0.0,0.0,0.0,0.0,0.0,0.0,0.0,0.0,0.0,0.0,0.0,0.0,0.0,0.0,0.0,0.0,0.0,0.0,0.0,0.0,0.0,0.0,0.0,-1.4429,-1.4435,-1.4405,-1.4325,-1.4172,-1.3272,0.0,0.0,0.0,0.0,0.0,0.0,0.0,0.0,0.0,0.0,0.0,0.0,0.0,0.0,0.0,0.0,0.0,0.0,0.0,0.0,0.0,0.0,0.0,0.0,0.0,0.0,0.0,0.0,0.0,0.0,0.0,0.0,0.0,0.0,0.0,0.0,0.0,0.0,0.0,0.0,0.0,0.0,0.0,0.0,0.0,0.0,0.0,0.0,0.0,0.0,0.0,0.0,0.0,0.0,0.0,0.0,0.0,0.0,0.0,0.0,0.0,0.0,0.0,0.0,0.0,0.0,0.0,0.0,0.0,0.0,0.0,0.0,0.0,0.0,0.0,0.0,0.0,0.0,0.0,0.0,0.0,0.0,0.0,0.0,0.0,0.0,0.0,0.0,0.0,0.0,0.0,0.0,0.0,0.0,0.0,0.0,0.0,0.0,0.0,0.0,0.0,0.0,0.0,0.0,0.0,0.0,0.0,0.0,0.0,-1.4522,-1.4563,-1.4522,-1.4446,-1.4313,-1.3418,0.0,0.0,0.0,0.0,0.0,0.0,0.0,0.0,0.0,0.0,0.0,0.0,0.0,0.0,0.0,0.0,0.0,0.0,0.0,0.0,0.0,0.0,0.0,0.0,0.0,0.0,0.0,0.0,0.0,0.0,0.0,0.0,0.0,0.0,0.0,0.0,0.0,0.0,0.0,0.0,0.0,0.0,0.0,0.0,0.0,0.0,0.0,0.0,0.0,0.0,0.0,0.0,0.0,0.0,0.0,0.0,0.0,0.0,0.0,0.0,0.0,0.0,0.0,0.0,0.0,0.0,0.0,0.0,0.0,0.0,0.0,0.0,0.0,0.0,0.0,0.0,0.0,0.0,0.0,0.0,0.0,0.0,0.0,0.0,0.0,0.0,0.0,0.0,0.0,0.0,0.0,0.0,0.0,0.0,0.0,0.0,0.0,0.0,0.0,0.0,0.0,0.0,0.0,0.0,0.0,0.0,0.0,0.0,-1.3824,-1.4683,-1.4767,-1.4754,-1.4519,-1.4422,-1.3503,0.0,0.0,0.0,0.0,0.0,0.0,0.0,0.0,0.0,0.0,0.0,0.0,0.0,0.0,0.0,0.0,0.0,0.0,0.0,0.0,0.0,0.0,0.0,0.0,0.0,0.0,0.0,0.0,0.0,0.0,0.0,0.0,0.0,0.0,0.0,0.0,0.0,0.0,0.0,0.0,0.0,0.0,0.0,0.0,0.0,0.0,0.0,0.0,0.0,0.0,0.0,0.0,0.0,0.0,0.0,0.0,0.0,0.0,0.0,0.0,0.0,0.0,0.0,0.0,0.0,0.0,0.0,0.0,0.0,0.0,0.0,0.0,0.0,0.0,0.0,0.0,0.0,0.0,0.0,0.0,0.0,0.0,0.0,0.0,0.0,0.0,0.0,0.0,0.0,0.0,0.0,0.0,0.0,0.0,0.0,0.0,0.0,0.0,0.0,0.0,0.0,0.0,0.0,0.0,0.0,0.0,0.0,0.0,0.0,-1.5667,-1.6259,-1.6217,-1.5572,-1.5402,-1.4203,0.0,0.0,0.0,0.0,0.0,0.0,0.0,0.0,0.0,0.0,0.0,0.0,0.0,0.0,0.0,0.0,0.0,0.0,0.0,0.0,0.0,0.0,0.0,0.0,0.0,0.0,0.0,0.0,0.0,0.0,0.0,0.0,0.0,0.0,0.0,0.0,0.0,0.0,0.0,0.0,0.0,0.0,0.0,0.0,0.0,0.0,0.0,0.0,0.0,0.0,0.0,0.0,0.0,0.0,0.0,0.0,0.0,0.0,0.0,0.0,0.0,0.0,0.0,0.0,0.0,0.0,0.0,0.0,0.0,0.0,0.0,0.0,0.0,0.0,0.0,0.0,0.0,0.0,0.0,0.0,0.0,0.0,0.0,0.0,0.0,0.0,0.0,0.0,0.0,0.0,0.0,0.0,0.0,0.0,0.0,0.0,0.0,0.0,0.0,0.0,0.0,0.0,0.0,0.0,0.0,0.0,0.0,0.0,0.0,-1.7595,-1.7511,-1.714,-1.6493,-1.6053,-1.4828,-1.2821,0.0,0.0,0.0,0.0,0.0,0.0,0.0,0.0,0.0,0.0,0.0,0.0,0.0,0.0,0.0,0.0,0.0,0.0,0.0,0.0,0.0,0.0,0.0,0.0,0.0,0.0,0.0,0.0,0.0,0.0,0.0,0.0,0.0,0.0,0.0,0.0,0.0,0.0,0.0,0.0,0.0,0.0,0.0,0.0,0.0,0.0,0.0,0.0,0.0,0.0,0.0,0.0,0.0,0.0,0.0,0.0,0.0,0.0,0.0,0.0,0.0,0.0,0.0,0.0,0.0,0.0,0.0,0.0,0.0,0.0,0.0,0.0,0.0,0.0,0.0,0.0,0.0,0.0,0.0,0.0,0.0,0.0,0.0,0.0,0.0,0.0,0.0,0.0,0.0,0.0,0.0,0.0,0.0,0.0,0.0,0.0,0.0,0.0,0.0,0.0,0.0,0.0,0.0,0.0,0.0,0.0,0.0,0.0,-2.0175,-1.8618,-1.7729,-1.747,-1.6514,-1.5443,0.0,0.0,0.0,0.0,0.0,0.0,0.0,0.0,0.0,0.0,0.0,0.0,0.0,0.0,0.0,0.0,0.0,0.0,0.0,0.0,0.0,0.0,0.0,0.0,0.0,0.0,0.0,0.0,0.0,0.0,0.0,0.0,0.0,0.0,0.0,0.0,0.0,0.0,0.0,0.0,0.0,0.0,0.0,0.0,0.0,0.0,0.0,0.0,0.0,0.0,0.0,0.0,0.0,0.0,0.0,0.0,0.0,0.0,0.0,0.0,0.0,0.0,0.0,0.0,0.0,0.0,0.0,0.0,0.0,0.0,0.0,0.0,0.0,0.0,0.0,0.0,0.0,0.0,0.0,0.0,0.0,0.0,0.0,0.0,0.0,0.0,0.0,0.0,0.0,0.0,0.0,0.0,0.0,0.0,0.0,0.0,0.0,0.0,0.0,0.0,0.0,0.0,0.0,0.0,0.0,0.0,0.0,0.0,0.0,-2.0258,-2.1026,-2.0775,-1.9411,-1.8348,-1.6713,0.0,0.0,0.0,0.0,0.0,0.0,0.0,0.0,0.0,0.0,0.0,0.0,0.0,0.0,0.0,0.0,0.0,0.0,0.0,0.0,0.0,0.0,0.0,0.0,0.0,0.0,0.0,0.0,0.0,0.0,0.0,0.0,0.0,0.0,0.0,0.0,0.0,0.0,0.0,0.0,0.0,0.0,0.0,0.0,0.0,0.0,0.0,0.0,0.0,0.0,0.0,0.0,0.0,0.0,0.0,0.0,0.0,0.0,0.0,0.0,0.0,0.0,0.0,0.0,0.0,0.0,0.0,0.0,0.0,0.0,0.0,0.0,0.0,0.0,0.0,0.0,0.0,0.0,0.0,0.0,0.0,0.0,0.0,0.0,0.0,0.0,0.0,0.0,0.0,0.0,0.0,0.0,0.0,0.0,0.0,0.0,0.0,0.0,0.0,0.0,0.0,0.0,0.0,0.0,0.0,0.0,0.0,0.0,-2.0145,-2.1381,-2.2697,-2.2851,-2.1751,-1.9985,-1.8102,0.0,0.0,0.0,0.0,0.0,0.0,0.0,0.0,0.0,0.0,0.0,0.0,0.0,0.0,0.0,0.0,0.0,0.0,0.0,0.0,0.0,0.0,0.0,0.0,0.0,0.0,0.0,0.0,0.0,0.0,0.0,0.0,0.0,0.0,0.0,0.0,0.0,0.0,0.0,0.0,0.0,0.0,0.0,0.0,0.0,0.0,0.0,0.0,0.0,0.0,0.0,0.0,0.0,0.0,0.0,0.0,0.0,0.0,0.0,0.0,0.0,0.0,0.0,0.0,0.0,0.0,0.0,0.0,0.0,0.0,0.0,0.0,0.0,0.0,0.0,0.0,0.0,0.0,0.0,0.0,0.0,0.0,0.0,0.0,0.0,0.0,0.0,0.0,0.0,0.0,0.0,0.0,0.0,0.0,0.0,0.0,0.0,0.0,0.0,0.0,0.0,0.0,0.0,0.0,0.0,0.0,0.0,0.0,-2.1326,-2.3149,-2.4011,-2.4386,-2.4167,-2.1456,-1.9387,0.0,0.0,0.0,0.0,0.0,0.0,0.0,0.0,0.0,0.0,0.0,0.0,0.0,0.0,0.0,0.0,0.0,0.0,0.0,0.0,0.0,0.0,0.0,0.0,0.0,0.0,0.0,0.0,0.0,0.0,0.0,0.0,0.0,0.0,0.0,0.0,0.0,0.0,0.0,0.0,0.0,0.0,0.0,0.0,0.0,0.0,0.0,0.0,0.0,0.0,0.0,0.0,0.0,0.0,0.0,0.0,0.0,0.0,0.0,0.0,0.0,0.0,0.0,0.0,0.0,0.0,0.0,0.0,0.0,0.0,0.0,0.0,0.0,0.0,0.0,0.0,0.0,0.0,0.0,0.0,0.0,0.0,0.0,0.0,0.0,0.0,0.0,0.0,0.0,0.0,0.0,0.0,0.0,0.0,0.0,0.0,0.0,0.0,0.0,0.0,0.0,0.0,0.0,0.0,0.0,0.0,0.0,0.0,-2.2511,-2.4884,-2.576,-2.6102,-2.5951,-2.268,-2.0061,0.0,0.0,0.0,0.0,0.0,0.0,0.0,0.0,0.0,0.0,0.0,0.0,0.0,0.0,0.0,0.0,0.0,0.0,0.0,0.0,0.0,0.0,0.0,0.0,0.0,0.0,0.0,0.0,0.0,0.0,0.0,0.0,0.0,0.0,0.0,0.0,0.0,0.0,0.0,0.0,0.0,0.0,0.0,0.0,0.0,0.0,0.0,0.0,-1.3318,0.0,0.0,0.0,0.0,0.0,0.0,0.0,0.0,0.0,0.0,0.0,0.0,0.0,0.0,0.0,0.0,0.0,0.0,0.0,0.0,0.0,0.0,0.0,0.0,0.0,0.0,0.0,0.0,0.0,0.0,0.0,0.0,0.0,0.0,0.0,0.0,0.0,0.0,0.0,0.0,0.0,0.0,0.0,0.0,0.0,0.0,0.0,0.0,0.0,0.0,0.0,0.0,0.0,0.0,0.0,0.0,0.0,0.0,0.0,-2.328,-2.5414,-2.6262,-2.6593,-2.6411,-2.3793,-2.1237,0.0,0.0,0.0,0.0,0.0,0.0,0.0,0.0,0.0,0.0,0.0,0.0,0.0,0.0,0.0,0.0,0.0,0.0,0.0,0.0,0.0,0.0,0.0,0.0,0.0,0.0,0.0,0.0,0.0,0.0,0.0,0.0,0.0,0.0,0.0,0.0,0.0,0.0,0.0,0.0,0.0,0.0,0.0,0.0,0.0,0.0,0.0,0.0,0.0,0.0,0.0,0.0,0.0,0.0,0.0,0.0,0.0,0.0,0.0,0.0,0.0,0.0,0.0,0.0,0.0,0.0,0.0,0.0,0.0,0.0,0.0,0.0,0.0,0.0,0.0,0.0,0.0,0.0,0.0,0.0,0.0,0.0,0.0,0.0,0.0,0.0,0.0,0.0,0.0,0.0,0.0,0.0,0.0,0.0,0.0,0.0,0.0,0.0,0.0,0.0,0.0,0.0,0.0,0.0,0.0,0.0,0.0,-2.1649,-2.3867,-2.5793,-2.6495,-2.6775,-2.665,-2.4822,-2.2434,-1.9592,0.0,0.0,0.0,0.0,0.0,0.0,0.0,0.0,0.0,0.0,0.0,0.0,0.0,0.0,0.0,0.0,0.0,0.0,0.0,0.0,0.0,0.0,0.0,0.0,0.0,0.0,0.0,0.0,0.0,0.0,0.0,0.0,0.0,0.0,0.0,0.0,0.0,0.0,-1.1479,-1.2788,0.0,0.0,0.0,0.0,0.0,0.0,0.0,0.0,-1.5362,0.0,0.0,0.0,0.0,0.0,0.0,0.0,0.0,0.0,0.0,0.0,0.0,0.0,0.0,0.0,0.0,0.0,0.0,0.0,0.0,0.0,0.0,0.0,0.0,0.0,0.0,0.0,0.0,0.0,0.0,0.0,0.0,0.0,0.0,0.0,0.0,0.0,0.0,0.0,0.0,0.0,0.0,0.0,0.0,0.0,0.0,0.0,0.0,0.0,0.0,0.0,0.0,0.0,0.0,0.0,0.0,-2.0128,-2.1965,-2.4401,-2.7488,-2.7653,-2.7629,-2.7465,-2.5665,-2.3051,-1.9643,0.0,0.0,0.0,0.0,0.0,0.0,0.0,0.0,0.0,0.0,0.0,0.0,0.0,0.0,0.0,0.0,0.0,0.0,0.0,0.0,0.0,0.0,0.0,0.0,0.0,0.0,0.0,0.0,0.0,0.0,0.0,0.0,0.0,0.0,0.0,0.0,0.0,0.0,0.0,-1.4408,-1.5343,0.0,0.0,0.0,0.0,0.0,0.0,0.0,0.0,-1.5703,0.0,0.0,0.0,0.0,0.0,0.0,0.0,0.0,0.0,0.0,0.0,0.0,0.0,0.0,0.0,0.0,0.0,0.0,0.0,0.0,0.0,0.0,0.0,0.0,0.0,0.0,0.0,0.0,0.0,0.0,0.0,0.0,0.0,0.0,0.0,0.0,0.0,0.0,0.0,0.0,0.0,0.0,0.0,0.0,0.0,0.0,0.0,0.0,0.0,0.0,0.0,0.0,0.0,0.0,0.0,-2.0366,-2.2487,-2.502,-2.7874,-2.8317,-2.8219,-2.7682,-2.5787,-2.3064,0.0,0.0,0.0,0.0,0.0,0.0,0.0,0.0,0.0,0.0,0.0,0.0,0.0,0.0,0.0,0.0,0.0,0.0,0.0,0.0,0.0,0.0,0.0,0.0,0.0,0.0,0.0,0.0,0.0,0.0,0.0,0.0,0.0,0.0,0.0,0.0,0.0,0.0,0.0,0.0,-1.5517,-1.6145,-1.6607,0.0,0.0,0.0,0.0,0.0,0.0,-1.7762,-1.673,0.0,0.0,0.0,0.0,0.0,0.0,0.0,0.0,0.0,0.0,0.0,0.0,0.0,0.0,0.0,0.0,0.0,0.0,0.0,0.0,0.0,0.0,0.0,0.0,0.0,0.0,0.0,0.0,0.0,0.0,0.0,0.0,0.0,0.0,0.0,0.0,0.0,0.0,0.0,0.0,0.0,0.0,0.0,0.0,0.0,0.0,0.0,0.0,0.0,0.0,0.0,0.0,0.0,0.0,0.0,-2.0424,-2.2924,-2.5429,-2.7875,-2.864,-2.8574,-2.7644,-2.5668,-2.2955,0.0,0.0,0.0,0.0,0.0,0.0,0.0,0.0,0.0,0.0,0.0,0.0,0.0,0.0,0.0,0.0,0.0,0.0,0.0,0.0,0.0,0.0,0.0,0.0,0.0,0.0,0.0,0.0,0.0,0.0,0.0,0.0,0.0,0.0,0.0,0.0,0.0,0.0,0.0,0.0,0.0,-1.6851,-1.768,-1.8184,0.0,0.0,0.0,0.0,-1.9494,-1.8631,0.0,0.0,0.0,0.0,0.0,0.0,0.0,0.0,0.0,0.0,0.0,0.0,0.0,0.0,0.0,0.0,0.0,0.0,0.0,0.0,0.0,0.0,0.0,0.0,0.0,0.0,0.0,0.0,0.0,0.0,0.0,0.0,0.0,0.0,0.0,0.0,0.0,0.0,0.0,0.0,0.0,0.0,0.0,0.0,0.0,0.0,0.0,0.0,0.0,0.0,0.0,0.0,0.0,0.0,0.0,0.0,-2.0424,-2.289,-2.5415,-2.7797,-2.8633,-2.8492,-2.7443,-2.5589,-2.2943,0.0,0.0,0.0,0.0,0.0,0.0,0.0,0.0,0.0,0.0,0.0,0.0,0.0,0.0,0.0,0.0,0.0,0.0,0.0,0.0,0.0,0.0,0.0,0.0,0.0,0.0,0.0,0.0,0.0,0.0,0.0,0.0,0.0,0.0,0.0,0.0,0.0,0.0,0.0,0.0,0.0,-1.7787,-1.8986,-1.9716,-1.9894,0.0,0.0,-2.1079,-2.0823,-2.0088,0.0,0.0,0.0,0.0,0.0,0.0,0.0,0.0,0.0,0.0,0.0,0.0,0.0,0.0,0.0,0.0,0.0,0.0,0.0,0.0,0.0,0.0,0.0,0.0,0.0,0.0,0.0,0.0,0.0,0.0,0.0,0.0,0.0,0.0,0.0,0.0,0.0,0.0,0.0,0.0,0.0,0.0,0.0,0.0,0.0,0.0,0.0,0.0,0.0,0.0,0.0,0.0,0.0,0.0,0.0,-1.895,-2.0385,-2.3319,-2.5831,-2.7804,-2.9015,-2.8916,-2.7414,-2.5512,-2.2848,0.0,0.0,0.0,0.0,0.0,0.0,0.0,0.0,0.0,0.0,0.0,0.0,0.0,0.0,0.0,0.0,0.0,0.0,0.0,0.0,0.0,0.0,0.0,0.0,0.0,0.0,0.0,0.0,0.0,0.0,0.0,0.0,0.0,0.0,0.0,0.0,0.0,0.0,0.0,0.0,0.0,0.0,-1.9968,-2.0712,0.0,0.0,0.0,-2.1683,-2.2207,0.0,0.0,0.0,0.0,0.0,0.0,0.0,0.0,0.0,0.0,0.0,0.0,0.0,0.0,0.0,0.0,0.0,0.0,0.0,0.0,0.0,0.0,0.0,0.0,0.0,0.0,0.0,0.0,0.0,0.0,0.0,0.0,0.0,0.0,0.0,0.0,0.0,0.0,0.0,0.0,0.0,0.0,0.0,0.0,0.0,0.0,0.0,0.0,0.0,0.0,0.0,0.0,0.0,0.0,0.0,0.0,0.0,-2.0332,-2.3653,-2.615,-2.775,-2.9308,-2.9208,-2.7392,-2.5618,0.0,0.0,0.0,0.0,0.0,0.0,0.0,0.0,0.0,0.0,0.0,0.0,0.0,0.0,0.0,0.0,0.0,0.0,0.0,0.0,0.0,0.0,0.0,0.0,0.0,0.0,0.0,-0.8202,0.0,0.0,0.0,0.0,0.0,0.0,0.0,0.0,0.0,0.0,0.0,0.0,0.0,0.0,-1.94,-2.0782,-2.1515,-2.1994,0.0,0.0,-2.2312,-2.3145,-2.1547,-2.0091,0.0,0.0,0.0,0.0,0.0,0.0,0.0,0.0,0.0,0.0,0.0,0.0,0.0,0.0,0.0,0.0,0.0,0.0,0.0,0.0,0.0,0.0,0.0,0.0,0.0,0.0,0.0,0.0,0.0,0.0,0.0,0.0,0.0,0.0,0.0,0.0,0.0,0.0,0.0,0.0,0.0,0.0,0.0,0.0,0.0,0.0,0.0,0.0,0.0,0.0,0.0,0.0,0.0,0.0,0.0,-2.0361,-2.3601,-2.6098,-2.7692,-2.9279,-2.9194,-2.7255,-2.6059,-2.3768,0.0,0.0,0.0,0.0,0.0,0.0,0.0,0.0,0.0,0.0,0.0,0.0,0.0,0.0,0.0,0.0,0.0,0.0,0.0,0.0,0.0,0.0,0.0,0.0,0.0,0.0,0.0,0.0,0.0,0.0,0.0,0.0,0.0,0.0,0.0,0.0,0.0,0.0,0.0,0.0,0.0,-2.0109,-2.1455,-2.2188,-2.2817,0.0,0.0,-2.3404,-2.3348,-2.2014,-2.0849,-2.0415,0.0,0.0,0.0,0.0,0.0,0.0,0.0,0.0,0.0,0.0,0.0,0.0,0.0,0.0,0.0,0.0,0.0,0.0,0.0,0.0,0.0,0.0,0.0,0.0,0.0,0.0,0.0,0.0,0.0,0.0,0.0,0.0,0.0,0.0,0.0,0.0,0.0,0.0,0.0,0.0,0.0,0.0,0.0,0.0,0.0,0.0,0.0,0.0,0.0,0.0,0.0,0.0,0.0,-1.9037,-2.1034,-2.3861,-2.6085,-2.7669,-2.9193,-2.9096,-2.7238,-2.6043,-2.3767,0.0,0.0,0.0,0.0,0.0,0.0,0.0,0.0,0.0,0.0,0.0,0.0,0.0,0.0,0.0,0.0,0.0,0.0,0.0,0.0,0.0,0.0,0.0,0.0,0.0,0.0,0.0,0.0,-1.1182,-1.2021,-1.2691,0.0,0.0,0.0,0.0,0.0,0.0,0.0,0.0,0.0,0.0,-2.0797,-2.2128,-2.2832,0.0,0.0,-2.3566,-2.3494,-2.3319,-2.1987,-2.0838,-2.0486,-1.8505,0.0,0.0,0.0,0.0,0.0,0.0,0.0,0.0,0.0,0.0,0.0,0.0,0.0,0.0,0.0,0.0,0.0,0.0,0.0,0.0,0.0,0.0,0.0,0.0,0.0,0.0,0.0,0.0,0.0,0.0,0.0,0.0,0.0,0.0,0.0,0.0,0.0,0.0,0.0,0.0,0.0,0.0,0.0,0.0,0.0,0.0,0.0,0.0,0.0,0.0,0.0,0.0,-1.8977,-2.147,-2.3986,-2.6041,-2.7624,-2.9083,-2.911,-2.751,-2.6337,-2.4255,0.0,0.0,0.0,0.0,0.0,0.0,0.0,0.0,0.0,0.0,0.0,0.0,0.0,0.0,0.0,0.0,0.0,0.0,0.0,0.0,0.0,0.0,0.0,0.0,0.0,0.0,0.0,0.0,-1.2058,-1.2859,-1.3441,0.0,0.0,0.0,0.0,0.0,0.0,0.0,0.0,0.0,0.0,-2.1371,-2.2517,-2.3206,-2.3595,-2.3581,-2.3553,-2.3407,-2.3128,-2.183,-2.0726,-2.0401,0.0,0.0,0.0,0.0,0.0,0.0,0.0,0.0,0.0,0.0,0.0,0.0,0.0,0.0,0.0,0.0,0.0,0.0,0.0,0.0,0.0,0.0,0.0,0.0,0.0,0.0,0.0,0.0,0.0,0.0,-1.3875,0.0,0.0,0.0,0.0,0.0,0.0,0.0,0.0,0.0,0.0,0.0,0.0,0.0,0.0,0.0,0.0,0.0,0.0,0.0,0.0,0.0,0.0,-1.8977,-2.1509,-2.3992,-2.5977,-2.7485,-2.9004,-2.925,-2.8088,-2.703,-2.5466,-2.3244,0.0,0.0,0.0,0.0,0.0,0.0,0.0,0.0,0.0,0.0,0.0,0.0,0.0,0.0,0.0,0.0,0.0,0.0,0.0,0.0,0.0,0.0,0.0,0.0,0.0,0.0,-1.2241,-1.2835,-1.3276,0.0,0.0,0.0,0.0,0.0,0.0,0.0,0.0,0.0,0.0,-2.0688,-2.1798,-2.2592,-2.3206,-2.3581,-2.3583,-2.3524,-2.329,-2.27,-2.1542,-2.0571,0.0,0.0,0.0,0.0,0.0,0.0,0.0,0.0,0.0,0.0,0.0,0.0,0.0,0.0,0.0,0.0,0.0,0.0,0.0,0.0,0.0,0.0,0.0,0.0,0.0,0.0,0.0,-1.6934,-1.6082,0.0,0.0,0.0,0.0,0.0,0.0,0.0,0.0,0.0,0.0,0.0,-1.7864,-1.7869,0.0,0.0,0.0,0.0,0.0,0.0,0.0,0.0,0.0,0.0,0.0,0.0,-1.9791,-2.2278,-2.4744,-2.6473,-2.7433,-2.8885,-2.9139,-2.8046,-2.6921,-2.4536,-2.0788,0.0,0.0,0.0,0.0,0.0,0.0,0.0,0.0,0.0,0.0,0.0,0.0,0.0,0.0,0.0,0.0,0.0,0.0,0.0,0.0,0.0,0.0,0.0,0.0,0.0,-1.2121,0.0,0.0,0.0,0.0,0.0,0.0,0.0,0.0,0.0,0.0,0.0,-1.8819,-1.9815,-2.1127,-2.2313,-2.3007,-2.3274,-2.3437,0.0,0.0,0.0,0.0,0.0,0.0,0.0,0.0,0.0,0.0,0.0,0.0,0.0,0.0,-1.6973,-1.6752,-1.5842,-1.5199,-1.5326,0.0,0.0,0.0,0.0,0.0,0.0,0.0,0.0,0.0,0.0,0.0,0.0,0.0,0.0,-1.787,0.0,-1.6456,0.0,0.0,0.0,0.0,0.0,0.0,0.0,0.0,-1.8552,-1.9095,-1.9677,-1.9672,-1.9682,0.0,-1.937,-1.8463,0.0,0.0,0.0,0.0,0.0,0.0,0.0,0.0,-2.0495,-2.267,-2.5099,-2.6692,-2.7365,-2.8763,-2.9134,-2.8307,-2.6776,-2.41,-2.0183,-1.8626,-1.667,0.0,0.0,0.0,0.0,0.0,0.0,0.0,0.0,0.0,0.0,0.0,0.0,0.0,0.0,0.0,0.0,0.0,0.0,0.0,0.0,0.0,0.0,0.0,-1.3119,0.0,0.0,0.0,0.0,0.0,0.0,0.0,0.0,0.0,-1.6208,-1.7774,-1.9229,-2.0182,-2.1335,-2.2366,-2.304,0.0,0.0,0.0,0.0,0.0,0.0,0.0,-2.0986,-2.0758,-1.9798,-1.9081,-1.8926,-1.7991,-1.7144,-1.6981,0.0,0.0,-1.8017,-1.7186,-1.645,-1.6102,-1.5951,-1.5877,-1.5793,-1.5785,-1.5879,0.0,0.0,0.0,0.0,0.0,0.0,0.0,0.0,-1.9354,-1.8861,0.0,-1.8003,0.0,0.0,0.0,0.0,0.0,-1.792,0.0,0.0,-2.0541,-2.1425,-2.2885,-2.2924,-2.2965,-2.2953,-2.2081,-2.1256,-2.0399,-1.875,0.0,0.0,0.0,0.0,0.0,0.0,-2.1014,-2.2656,-2.5082,-2.6631,-2.7219,-2.8633,-2.9188,-2.8699,-2.6629,-2.4226,-2.1567,-1.9597,-1.8011,-1.6799,-1.3837,0.0,0.0,0.0,0.0,0.0,0.0,0.0,0.0,0.0,0.0,0.0,0.0,0.0,0.0,0.0,0.0,0.0,0.0,0.0,0.0,-1.3795,0.0,0.0,0.0,0.0,0.0,0.0,0.0,0.0,0.0,0.0,-1.7276,-1.8043,-1.9117,-2.0526,0.0,0.0,0.0,0.0,-2.2962,-2.3211,-2.2867,-2.2374,-2.1862,-2.1167,-2.0661,-2.0382,0.0,0.0,-1.8933,-1.8384,-1.7937,-1.7888,-1.8598,-1.8881,-1.8285,-1.8066,-1.7733,-1.6846,-1.687,-1.7006,-1.6891,-1.7136,-1.7291,-2.5234,0.0,0.0,0.0,0.0,-2.2359,-2.2216,-2.199,-2.1987,-2.1146,-1.9756,-1.9773,0.0,0.0,0.0,0.0,0.0,0.0,-2.0016,-2.0568,-2.1776,-2.2606,-2.3061,-2.3067,-2.3047,-2.3001,-2.2745,-2.2494,-2.2243,-2.1693,-2.0217,-1.7844,0.0,0.0,0.0,0.0,-2.1827,-2.3492,-2.5853,-2.7107,-2.7134,-2.8459,-2.8374,-2.6716,-2.5844,-2.4102,-2.1455,-2.0518,-1.9071,-1.6895,-1.5671,0.0,0.0,0.0,0.0,0.0,0.0,0.0,0.0,0.0,0.0,0.0,0.0,0.0,0.0,0.0,0.0,0.0,0.0,0.0,-1.4274,-1.4538,-1.4676,0.0,0.0,0.0,0.0,0.0,0.0,0.0,0.0,0.0,-1.8385,-1.9489,-2.0378,0.0,0.0,-2.2172,-2.2388,-2.2402,-2.2505,-2.2755,-2.2376,0.0,-2.1301,-2.1029,-2.0975,-2.1062,-2.0719,-2.0266,-1.9944,-2.0009,-1.996,-1.9529,-2.003,-2.031,-1.9367,-1.8601,-1.817,-1.8123,-1.8082,-1.8006,-1.7958,-1.797,-1.7975,-2.6169,-2.4843,-2.3983,-2.3413,-2.3116,-2.3095,-2.3111,-2.3105,-2.3105,-2.2498,-2.152,-2.1538,-2.0948,-1.9963,-1.9968,0.0,0.0,0.0,-2.1714,-2.209,-2.3124,-2.38,-2.4117,-2.4148,-2.4088,-2.4028,-2.4005,-2.3806,-2.3489,-2.3412,-2.2192,-1.9908,0.0,0.0,-2.0889,-2.1866,-2.2756,-2.3625,-2.6023,-2.7167,-2.6991,-2.8165,-2.7967,-2.625,-2.5569,-2.4271,-2.2245,-2.12,-1.9897,-1.8226,-1.6956,-1.5358,0.0,0.0,0.0,0.0,0.0,0.0,0.0,0.0,0.0,0.0,0.0,-0.9303,-1.0157,0.0,0.0,0.0,-1.3599,-1.4776,-1.5467,-1.5772,0.0,0.0,0.0,0.0,0.0,0.0,0.0,-1.7302,-1.7913,-1.8541,-1.93,-2.0342,-2.0975,-2.0702,-2.1374,-2.1902,-2.1888,0.0,-2.2249,-2.2276,-2.2226,-2.1984,-2.1442,-2.1363,-2.1342,-2.1227,-2.0897,-2.0589,-2.0464,-2.0452,-2.0484,-2.0523,-2.0669,-2.0444,-1.9331,-1.871,-1.8311,-1.8427,-1.835,-1.828,-1.8291,-1.8323,-1.8331,-2.6585,-2.5733,-2.4863,-2.4042,-2.3318,-2.3317,-2.3317,-2.3297,-2.3316,-2.3276,-2.3198,-2.3195,-2.3169,-2.3101,-2.3107,0.0,-2.311,-2.3169,-2.36,-2.442,-2.4478,-2.494,-2.5664,-2.5679,-2.5658,-2.5607,-2.5602,-2.5189,-2.443,-2.4416,-2.3978,-2.3207,-2.312,-2.2748,-2.2114,-2.3198,-2.3638,-2.3393,-2.5796,-2.7028,-2.6942,-2.7858,-2.787,-2.6808,-2.5736,-2.4649,-2.351,-2.1773,-2.0606,-2.0148,-1.7874,-1.6317,-1.5694,0.0,0.0,0.0,0.0,0.0,0.0,0.0,0.0,0.0,0.0,0.0,0.0,0.0,0.0,0.0,-1.5314,0.0,-1.6647,-1.7137,0.0,0.0,0.0,-1.6886,-1.7438,-1.7202,-1.7389,-1.8434,0.0,0.0,-2.0169,-2.0887,-2.1095,-2.0465,-2.1027,-2.1475,-2.1461,-2.1947,-2.2218,-2.1985,-2.2338,-2.2418,-2.1968,-2.1783,-2.1574,-2.108,-2.0473,-2.0251,-2.0476,-2.0042,-2.005,-2.0809,-2.05,-1.9713,-1.866,-1.8461,-1.835,-1.8041,-1.8037,-1.8121,-1.8196,-1.835,-1.8603,-2.7435,-2.6605,-2.5754,-2.5252,-2.5078,-2.5077,-2.5076,-2.5095,-2.5074,-2.4723,-2.4098,-2.4097,-2.3725,-2.3096,-2.3096,-2.3093,-2.3127,-2.3776,-2.4204,-2.4452,-2.5078,-2.55,-2.5701,-2.5629,-2.5628,-2.5634,-2.6204,-2.6377,-2.6211,-2.6734,-2.6573,-2.5755,-2.5648,-2.4818,-2.3271,-2.3553,-2.3979,-2.4501,-2.6056,-2.7255,-2.807,-2.8094,-2.7634,-2.6584,-2.6056,-2.5065,-2.3561,-2.2832,-2.1787,-2.0424,-1.9443,-1.8047,-1.6044,-1.5065,0.0,0.0,0.0,0.0,0.0,0.0,0.0,0.0,0.0,-1.2021,-1.2559,0.0,-1.4097,0.0,-1.6371,-1.7338,-1.7765,-1.7928,0.0,0.0,-1.789,-1.8028,-1.8568,-1.8388,-1.8732,-2.0026,-2.032,-2.0615,-2.1121,-2.1369,-2.1369,-2.1145,-2.1705,-2.2062,-2.2062,-2.2207,-2.2365,-2.247,-2.232,-2.2085,-2.2074,-2.1621,-2.1104,-2.0878,-2.065,-2.0448,-2.0456,-1.9868,-1.9597,-1.9866,-1.9645,-1.9019,-1.8292,-1.8121,-1.815,-1.8191,-1.8308,-1.8388,-1.8388,-1.8479,-1.8472,-2.7722,-2.688,-2.6054,-2.5694,-2.57,-2.5703,-2.5703,-2.5702,-2.5702,-2.5429,-2.4999,-2.4979,-2.4705,-2.4255,-2.4253,-2.4269,-2.4285,-2.4754,-2.4967,-2.502,-2.5469,-2.5696,-2.5697,-2.5668,-2.5819,-2.6149,-2.6592,-2.6997,-2.7337,-2.771,-2.7451,-2.6622,-2.654,-2.5784,-2.4366,-2.4265,-2.4384,-2.4726,-2.5709,-2.6783,-2.7846,-2.7638,-2.73,-2.6976,-2.6329,-2.5501,-2.4438,-2.3519,-2.2479,-2.1366,-2.0366,-1.9045,-1.7426,-1.6275,-1.5013,0.0,0.0,0.0,0.0,0.0,0.0,0.0,0.0,0.0,0.0,0.0,-1.5618,-1.671,-1.7815,-1.8593,-1.8894,-1.9359,-1.9673,-1.966,-1.9673,-1.9734,-1.997,-1.9986,-2.0151,-2.0747,-2.135,-2.1707,-2.1661,-2.1572,-2.1626,-2.179,-2.206,-2.216,-2.1941,-2.2061,-2.2209,-2.238,-2.2236,-2.2085,-2.2033,-2.1403,-2.0908,-2.0745,-2.0392,-2.0118,-1.9922,-1.955,-1.9218,-1.9127,-1.8859,-1.8405,-1.7871,-1.7775,-1.7833,-1.793,-1.8018,-1.8076,-1.8134,-1.8076,-1.8076,-2.7848,-2.7,-2.6191,-2.5796,-2.5707,-2.5699,-2.5703,-2.5703,-2.5703,-2.5703,-2.5703,-2.5703,-2.5703,-2.5703,-2.5698,-2.5696,-2.5694,-2.5689,-2.5705,-2.5698,-2.5698,-2.5704,-2.5699,-2.5695,-2.6077,-2.678,-2.6909,-2.7358,-2.8143,-2.8203,-2.7788,-2.6937,-2.6741,-2.6163,-2.5234,-2.4991,-2.4783,-2.4601,-2.5055,-2.5828,-2.6954,-2.6854,-2.6951,-2.7287,-2.6557,-2.5934,-2.5494,-2.4076,-2.3043,-2.2606,-2.1007,-1.9781,-1.9165,-1.7427,-1.5941,0.0,-1.376,0.0,0.0,0.0,0.0,0.0,0.0,0.0,0.0,-1.622,-1.7305,-1.8282,-1.9346,-1.996,-1.996,-2.0849,-2.1437,-2.1425,-2.1437,-2.1394,-2.1287,-2.1393,-2.1374,-2.1182,-2.1976,-2.238,-2.1869,-2.1715,-2.1789,-2.2066,-2.2089,-2.1849,-2.1464,-2.1716,-2.1975,-2.1903,-2.2007,-2.1758,-2.1432,-2.1037,-2.0613,-2.042,-1.9835,-1.9407,-1.9243,-1.9019,-1.8802,-1.858,-1.8309,-1.7862,-1.7415,-1.7316,-1.7373,-1.7392,-1.7401,-1.7451,-1.7579,-1.7588,-1.747,-2.8644,-2.7887,-2.7045,-2.6291,-2.5696,-2.5687,-2.5698,-2.5703,-2.5703,-2.5703,-2.5703,-2.5703,-2.5703,-2.5703,-2.5702,-2.57,-2.5699,-2.5691,-2.5703,-2.5698,-2.5704,-2.5691,-2.5699,-2.563,-2.6046,-2.6812,-2.7466,-2.8171,-2.8994,-2.962,-2.949,-2.8626,-2.7919,-2.6764,-2.5266,0.0,0.0,0.0,-2.4421,-2.4716,-2.6004,-2.6436,-2.658,-2.6454,-2.6642,0.0,-2.5512,-2.4996,-2.4264,-2.3338,-2.221,0.0,0.0,0.0,0.0,0.0,0.0,0.0,0.0,0.0,0.0,0.0,-1.6071,-1.6188,-1.6241,-1.7934,-1.9082,-1.9318,-2.0192,-2.0779,-2.0779,-2.0964,-2.1099,-2.1087,-2.1099,-2.126,-2.1621,-2.1362,-2.1319,-2.2055,-2.1983,-2.1897,-2.1858,-2.177,-2.1658,-2.1565,-2.1474,-2.1279,-2.1008,-2.1504,-2.1944,-2.2063,-2.1255,-2.0534,-2.0409,-2.0118,-1.9791,-1.9507,-1.91,-1.871,-1.8643,-1.825,-1.8183,-1.8388,-1.8193,-1.7636,-1.6752,-1.6519,-1.6642,-1.695,-1.6899,-1.6881,-1.7235,-1.7235,-1.7245,-2.8822,0.0,-2.7231,-2.6389,0.0,-2.569,-2.5705,-2.5693,-2.5701,-2.5703,-2.5703,-2.5703,-2.5703,-2.5703,-2.5702,-2.5701,-2.5699,-2.5691,-2.5698,-2.5707,-2.5694,-2.5691,-2.5664,-2.6026,-2.6618,-2.7419,-2.8236,-2.9062,-2.9825,-3.0227,-2.994,-2.9032,-2.8183,-2.6899,-2.524,-2.4836,-2.4681,-2.4739,-2.4073,-2.4172,-2.5127,-2.5288,-2.5564,-2.5997,-2.6126,0.0,0.0,0.0,0.0,0.0,0.0,0.0,0.0,0.0,0.0,-1.7538,-1.6916,-1.6399,-1.5981,-1.6016,-1.6264,-1.6708,-1.7484,-1.7922,-1.7941,-1.9377,-2.0261,-2.0286,-2.09,-2.1262,-2.1275,-2.1448,-2.1618,-2.1606,-2.1618,-2.1668,-2.1838,-2.1873,-2.186,-2.183,-2.1506,-2.1295,-2.14,-2.1273,-2.1083,-2.0944,-2.0752,-2.0571,-2.0518,-2.0892,-2.1233,-2.1088,-2.0073,-1.9424,-1.9552,-1.932,-1.8988,-1.8787,-1.8317,-1.7978,-1.7969,-1.7569,-1.7489,-1.787,-1.7839,-1.7366,-1.6323,-1.5896,-1.5861,-1.6237,-1.6193,-1.6053,-1.6254,-1.6473,-1.6612,-2.8859,-2.8001,-2.7302,-2.645,-2.5595,-2.5664,-2.5681,-2.5687,0.0,0.0,0.0,-2.5703,-2.5703,-2.5703,-2.5702,-2.57,-2.5699,-2.5707,-2.569,-2.5694,-2.5699,-2.5654,-2.5646,-2.643,-2.7232,-2.802,-2.8876,-2.969,-3.046,-3.0428,-2.9929,-2.9001,-2.8121,-2.6836,-2.5215,-2.4717,-2.441,-2.419,-2.3824,-2.3876,-2.4295,-2.4155,-2.4497,-2.5384,-2.5441,-2.553,-2.5671,-2.5013,-2.4514,-2.4195,-2.3155,-2.2309,-2.1784,-2.099,-1.9992,-1.8841,-1.8117,-1.7592,-1.718,-1.6975,-1.7015,-1.7431,-1.8401,-1.9132,-1.9409,-2.044,-2.1006,-2.0949,-2.133,-2.1572,-2.1524,-2.1786,-2.1999,-2.1999,-2.1999,-2.1925,-2.1812,-2.2202,-2.2139,-2.136,-2.079,-2.0587,-2.0688,-2.0571,-2.0377,-2.0237,-1.9966,-1.9781,-1.9736,-2.0151,-2.0346,-1.9781,-1.8965,-1.8441,-1.868,-1.8519,-1.825,-1.7978,-1.751,-1.7245,-1.7107,-1.6899,-1.6875,-1.7167,-1.7241,-1.6747,-1.572,-1.5143,-1.5105,-1.5463,-1.5346,-1.5213,-1.5054,-1.5346,-1.5559,-2.9252,-2.7836,-2.7768,-2.6873,-2.5505,-2.5593,-2.56,-2.5629,-2.5666,-2.5694,-2.5696,-2.5701,-2.5703,-2.5703,-2.5702,-2.57,-2.5699,-2.5703,-2.569,-2.5704,-2.5632,-2.561,-2.5639,-2.6418,-2.7256,-2.8094,-2.8858,-2.966,-3.0402,-3.0425,-2.9944,-2.8982,-2.8121,-2.674,-2.4986,-2.4631,-2.4393,-2.4113,-2.3746,-2.3526,-2.3567,-2.3858,-2.3929,-2.3862,-2.4758,-2.499,-2.456,-2.4745,-2.4682,-2.4271,-2.3315,-2.2529,-2.2041,-2.0827,-1.9727,-1.9006,-1.8367,-1.7865,-1.74,-1.7502,-1.7658,-1.8016,-1.8895,-1.9562,-1.9665,-2.0531,-2.1021,-2.0865,-2.1167,-2.1358,-2.1307,-2.1313,-2.136,-2.1348,-2.136,-2.1296,-2.1094,-2.1493,-2.1475,-2.0646,-2.0073,-1.9803,-1.9966,-1.9868,-1.966,-1.9441,-1.9187,-1.8865,-1.8818,-1.9502,-1.9634,-1.8854,-1.8091,-1.7668,-1.7668,-1.7579,-1.7373,-1.6881,-1.6612,-1.6412,-1.6263,-1.6053,-1.6017,-1.6404,-1.644,-1.5857,-1.4609,-1.4032,-1.3999,-1.4378,-1.4338,-1.4201,-1.397,-1.397,-1.4042,-2.8511,-2.711,-2.711,-2.6458,-2.5401,-2.5492,-2.5543,-2.5537,-2.5621,-2.5668,-2.5703,-2.5696,-2.5699,-2.5699,-2.5703,-2.5703,-2.5702,-2.5691,-2.5698,-2.5693,-2.5664,-2.5634,-2.5668,-2.6411,-2.7018,-2.7462,-2.8674,-2.9226,-2.9178,-2.9541,-2.9264,-2.833,-2.751,-2.6308,-2.4832,-2.4508,-2.4301,-2.4075,-2.3707,-2.341,-2.3289,-2.3301,-2.3292,-2.3283,-2.3602,-2.3809,-2.3957,-2.3944,-2.3887,-2.3837,-2.3124,-2.2542,-2.2053,-2.1089,-2.0288,-1.9694,-1.9045,-1.8507,-1.8049,-1.7751,-1.754,-1.7512,-1.8178,-1.8717,-1.8857,-2.0205,-2.0927,-2.0876,-2.0882,-2.0816,-2.0764,-2.0635,-2.0624,-2.0571,-2.0635,-2.0506,-2.0399,-2.0662,-2.0554,-1.9857,-1.9138,-1.8854,-1.911,-1.8998,-1.8798,-1.8586,-1.8259,-1.7988,-1.7716,-1.8222,-1.8534,-1.792,-1.7194,-1.6697,-1.6784,-1.6603,-1.6394,-1.6053,-1.5692,-1.5401,-1.5259,-1.5046,-1.5174,-1.556,-1.5513,-1.4761,-1.3425,-1.2977,-1.302,-1.3222,-1.3251,-1.3032,-1.2886,-1.2586,-1.2739,-2.7571,-2.6339,-2.6395,-2.6,-2.5322,-2.5434,-2.5478,-2.5479,-2.5549,-2.5615,-2.5648,-2.5679,-2.5689,-2.5691,-2.5701,-2.5703,-2.5703,-2.5698,-2.5689,-2.5703,-2.5701,-2.5671,-2.5722,-2.6454,-2.6819,-2.6986,-2.833,-2.8683,-2.8152,-2.8637,-2.845,-2.7505,-2.6631,-2.5716,-2.4726,-2.4437,-2.4229,-2.4075,-2.3687,-2.3406,-2.3175,-2.2842,-2.2698,-2.2789,-2.2539,-2.2641,-2.3077,-2.2815,-2.2765,-2.2864,-2.2478,-2.2048,-2.1718,-2.1153,-2.056,-2.0016,-1.9396,-1.8804,-1.8278,-1.7689,-1.719,-1.6853,-1.7301,-1.7669,-1.792,-1.9163,-2.022,-2.0451,-2.0291,-2.0161,-2.0096,-1.9977,-1.9911,-1.9835,-1.9835,-1.9781,-1.9671,-1.9756,-1.9634,-1.8988,-1.8265,-1.7899,-1.8075,-1.8114,-1.793,-1.7647,-1.7314,-1.7028,-1.6899,-1.706,-1.7167,-1.6848,-1.6113,-1.5722,-1.5948,-1.5754,-1.5401,-1.5125,-1.4689,-1.4394,-1.4258,-1.397,-1.4023,-1.4558,-1.459,-1.3674,-1.2191,-1.1739,-1.1864,-1.2057,-1.207,-1.1855,-1.1558,-1.1329,-1.149,-2.6852,-2.6193,-2.6162,-2.5874,-2.5321,-2.5369,-2.5412,-2.5418,-2.5459,-2.5525,-2.5531,-2.5644,-2.569,-2.5696,-2.5696,-2.57,-2.5701,-2.5702,-2.5699,-2.5698,-2.5701,-2.5707,-2.5756,-2.65,-2.6879,-2.6965,-2.7763,-2.8105,-2.7876,-2.798,-2.7547,-2.6531,-2.5546,-2.4974,-2.4707,-2.4437,-2.421,-2.4016,-2.366,-2.3356,-2.3102,-2.2721,-2.2332,-2.1956,-2.2054,-2.1869,-2.1458,-2.138,-2.1378,-2.1348,-2.0996,-2.0765,-2.0864,-2.051,-2.0029,-1.9473,-1.8934,-1.8224,-1.7279,-1.6965,-1.6684,-1.6259,-1.6581,-1.6847,-1.6759,-1.7174,-1.8047,-1.9047,-1.9333,-1.9344,-1.9264,-1.9198,-1.9198,-1.9198,-1.9198,-1.9054,-1.8721,-1.8936,-1.8822,-1.793,-1.7319,-1.7086,-1.7276,-1.7304,-1.7028,-1.6542,-1.6333,-1.6053,-1.5788,-1.6078,-1.6209,-1.5698,-1.5051,-1.4765,-1.4942,-1.4824,-1.4386,-1.3818,-1.36,-1.339,-1.3105,-1.2893,-1.2921,-1.3293,-1.3572,-1.2674,-1.1039,-1.0107,-1.0364,-1.0714,-1.0732,-1.0507,-1.0218,-1.0067,-1.0368,-2.5759,-2.5115,-2.5223,-2.521,-2.5137,-2.5231,-2.5274,-2.5284,-2.5357,-2.5418,-2.5453,-2.5493,-2.5576,-2.564,-2.5645,-2.5659,-2.5687,-2.5699,-2.5703,-2.5703,-2.5698,-2.5689,-2.5742,-2.6013,-2.6167,-2.6197,-2.699,-2.711,-2.6657,-2.6505,-2.6217,-2.5759,-2.5251,-2.4934,-2.4731,-2.4524,-2.4284,-2.3999,-2.3699,-2.3364,-2.2935,-2.2554,-2.2124,-2.1648,-2.1376,-2.1085,-2.0768,-2.0421,-2.0174,-2.0199,-2.0053,-1.9852,-1.9595,-1.9533,-1.9239,-1.8774,-1.8061,-1.7335,-1.6595,-1.6389,-1.6056,-1.5488,-1.5586,-1.5731,-1.5741,-1.5861,-1.6331,-1.7129,-1.778,-1.8217,-1.8412,-1.8462,-1.8472,-1.8472,-1.8472,-1.8259,-1.791,-1.8193,-1.8086,-1.7166,-1.6347,-1.6113,-1.6376,-1.6342,-1.5982,-1.5551,-1.533,-1.5117,-1.4856,-1.508,-1.5121,-1.4648,-1.3548,-1.3129,-1.3723,-1.3608,-1.3164,-1.2806,-1.2358,-1.1996,-1.1855,-1.1552,-1.1509,-1.2026,-1.2052,-1.1396,-0.9611,-0.907,-0.901,-0.9357,-0.9296,-0.8993,-0.8846,-0.8846,-0.8993,-2.4764,-2.4356,-2.4491,-2.4716,-2.4959,-2.5063,-2.5134,-2.5149,-2.5234,-2.5303,-2.5341,-2.5339,-2.5395,-2.5505,-2.5542,-2.5593,-2.5652,-2.5657,-2.5687,-2.5675,-2.5702,-2.5703,-2.5699,-2.5691,-2.5681,-2.5726,-2.6272,-2.6242,-2.5629,-2.5492,-2.5393,-2.5313,-2.5198,-2.5044,-2.487,-2.4642,-2.4355,-2.4041,-2.3777,-2.3359,-2.2859,-2.2429,-2.1965,-2.1415,-2.0795,-2.0349,-2.0138,-1.9412,-1.9059,-1.9039,-1.8929,-1.8791,-1.8547,-1.8554,-1.8395,-1.7875,-1.7168,-1.6492,-1.6016,-1.569,-1.5303,-1.4793,-1.4675,-1.4667,-1.4671,-1.4682,-1.4872,-1.5378,-1.6048,-1.6693,-1.7312,-1.7389,-1.7437,-1.7523,-1.7484,-1.7309,-1.7148,-1.7477,-1.7357,-1.6333,-1.5354,-1.4907,-1.5384,-1.5275,-1.4911,-1.4545,-1.433,-1.4034,-1.384,-1.3893,-1.3938,-1.3645,-1.197,-1.1476,-1.2558,-1.2439,-1.2003,-1.1558,-1.1111,-1.0807,-1.0582,-1.0212,-1.0235,-1.0813,-1.0598,-0.9797,-0.8268,-0.7719,-0.7728,-0.7995,-0.7931,-0.7698,-0.7621,-0.754,-0.7387,-2.3937,-2.406,-2.4371,-2.4607,-2.4821,-2.4879,-2.4955,-2.5006,-2.5061,-2.5157,-2.5198,-2.5192,-2.5205,-2.5236,-2.5413,-2.5504,-2.5535,-2.5585,-2.559,-2.56,-2.5681,-2.5694,-2.5701,-2.5703,-2.5702,-2.568,-2.5787,-2.5765,-2.5604,-2.5529,-2.5459,-2.5374,-2.5264,-2.5134,-2.4961,-2.4731,-2.4459,-2.4192,-2.386,-2.345,-2.2875,-2.232,-2.1748,-2.1182,-2.0496,-1.9833,-1.9197,-1.8372,-1.7879,-1.7766,-1.7418,-1.7362,-1.7733,-1.7693,-1.7398,-1.6869,-1.6265,-1.5748,-1.5284,-1.4824,-1.441,-1.407,-1.3899,-1.3778,-1.3588,-1.3588,-1.375,-1.4147,-1.4279,-1.4716,-1.5633,-1.5928,-1.6057,-1.6324,-1.6245,-1.6206,-1.628,-1.6684,-1.6378,-1.5355,-1.4308,-1.3863,-1.4186,-1.3985,-1.3753,-1.3535,-1.3404,-1.3046,-1.2592,-1.2452,-1.2419,-1.2074,-1.1043,-0.9996,-1.123,-1.1174,-1.0738,-1.0363,-0.9986,-0.9685,-0.9306,-0.9008,-0.9337,-0.9514,-0.9204,-0.8408,-0.6984,-0.644,-0.6605,-0.6696,-0.67,-0.6546,-0.6311,-0.6157,-0.6002,-2.3562,-2.3821,-2.4097,-2.4284,-2.4479,-2.461,-2.47,-2.4808,-2.4828,-2.4915,-2.5006,-2.5,-2.5038,-2.5087,-2.5143,-2.5274,-2.5437,-2.5467,-2.551,-2.5522,-2.5598,-2.5619,-2.5651,-2.5689,-2.5697,-2.57,-2.5703,-2.5694,-2.5651,-2.5593,-2.554,-2.5453,-2.5371,-2.5245,-2.5111,-2.4869,-2.4586,-2.4284,-2.3941,-2.3455,-2.2789,-2.2203,-2.1535,-2.078,-2.0139,-1.9427,-1.8679,-1.7854,-1.7206,-1.6792,-1.6541,-1.6361,-1.6207,-1.6238,-1.6176,-1.5918,-1.54,-1.4932,-1.4451,-1.4043,-1.3631,-1.3086,-1.2972,-1.285,-1.2597,-1.2536,-1.2591,-1.2703,-1.2726,-1.2986,-1.3463,-1.4341,-1.5094,-1.5134,-1.5045,-1.4992,-1.5059,-1.5644,-1.5694,-1.4378,-1.3498,-1.3142,-1.2938,-1.2886,-1.2739,-1.2365,-1.2077,-1.1781,-1.149,-1.1117,-1.0911,-1.1109,-0.9841,-0.8339,-0.7942,-0.9044,-0.9382,-0.9079,-0.8775,-0.8394,-0.8012,-0.7702,-0.7872,-0.8205,-0.7974,-0.7176,-0.5838,-0.5372,-0.5535,-0.5538,-0.5464,-0.5312,-0.5079,-0.4999,-0.4924,-2.3259,-2.354,-2.3732,-2.3939,-2.4116,-2.4284,-2.4426,-2.4561,-2.4575,-2.4639,-2.4734,-2.4749,-2.4779,-2.4837,-2.4828,-2.4956,-2.5175,-2.5283,-2.5368,-2.5446,-2.5498,-2.5565,-2.5571,-2.5625,-2.5642,-2.5673,-2.5655,-2.5683,-2.5698,-2.5661,-2.559,-2.5527,-2.5454,-2.539,-2.5234,-2.5012,-2.4704,-2.4386,-2.404,-2.3482,-2.2754,-2.2085,-2.1289,-2.04,-1.96,-1.8916,-1.821,-1.7394,-1.6637,-1.6049,-1.5718,-1.535,-1.4941,-1.4993,-1.5015,-1.4763,-1.4455,-1.4043,-1.3554,-1.3139,-1.272,-1.2228,-1.205,-1.1926,-1.1732,-1.167,-1.167,-1.167,-1.167,-1.167,-1.1869,-1.2766,-1.3599,-1.377,-1.3811,-1.3685,-1.3682,-1.4445,-1.4112,-1.2877,-1.227,-1.2038,-1.1909,-1.17,-1.1484,-1.1186,-1.0807,-1.0507,-1.0288,-0.9836,-0.9554,-0.9981,-0.8708,-0.7214,-0.651,-0.6981,-0.7689,-0.7544,-0.7544,-0.7169,-0.6784,-0.6475,-0.6483,-0.6736,-0.65,-0.5709,-0.5079,-0.4533,-0.4377,-0.4377,-0.4382,-0.4229,-0.4075,-0.3997,-0.3923,-2.2935,-2.3188,-2.3341,-2.3544,-2.3756,-2.3919,-2.4114,-2.4248,-2.4266,-2.4302,-2.4353,-2.4389,-2.4407,-2.4476,-2.4508,-2.4551,-2.4752,-2.4993,-2.5194,-2.5293,-2.5365,-2.5434,-2.5473,-2.5492,-2.5526,-2.5595,-2.5603,-2.5629,-2.5699,-2.5683,-2.5655,-2.559,-2.5532,-2.5473,-2.5401,-2.5143,-2.4858,-2.4535,-2.4137,-2.3534,-2.2788,-2.2012,-2.1069,-2.0028,-1.8985,-1.821,-1.7747,-1.6925,-1.6126,-1.5433,-1.4834,-1.4307,-1.3963,-1.4048,-1.3979,-1.3527,-1.3348,-1.2992,-1.2544,-1.2112,-1.1732,-1.1421,-1.117,-1.0975,-1.0919,-1.0919,-1.0919,-1.0919,-1.0919,-1.0919,-1.0919,-1.1108,-1.1545,-1.2334,-1.2352,-1.2299,-1.2572,-1.3067,-1.2727,-1.0997,-1.0623,-1.0755,-1.0713,-1.0347,-1.0021,-0.9809,-0.9466,-0.91,-0.8803,-0.8362,-0.8331,-0.8358,-0.7488,-0.6146,-0.5449,-0.5065,-0.5535,-0.5928,-0.6005,-0.5854,-0.5467,-0.5157,-0.524,-0.541,-0.5171,-0.4382,-0.3517,-0.2971,-0.3051,-0.313,-0.3136,-0.3062,-0.2904,-0.275,-0.2762,-2.2412,-2.2625,-2.288,-2.3076,-2.3259,-2.3432,-2.3606,-2.3756,-2.3798,-2.386,-2.3903,-2.3981,-2.4058,-2.4135,-2.4154,-2.4229,-2.4373,-2.4505,-2.4766,-2.5061,-2.5152,-2.5234,-2.5283,-2.5335,-2.5425,-2.5525,-2.5521,-2.558,-2.5613,-2.5622,-2.5602,-2.5585,-2.5586,-2.5531,-2.546,-2.5281,-2.5027,-2.4637,-2.4173,-2.3523,-2.2754,-2.1852,-2.0831,-1.9611,-1.8593,-1.7626,-1.6536,-1.6015,-1.5421,-1.4652,-1.3967,-1.336,-1.2875,-1.2618,-1.2526,-1.2489,-1.2142,-1.1867,-1.164,-1.1178,-1.08,-1.0485,-1.0161,-0.9964,-0.9843,-0.9843,-0.9843,-0.9843,-0.9901,-0.9964,-0.9964,-0.9907,-1.0206,-1.1058,-1.1072,-1.0938,-1.087,-1.084,-1.0061,-0.8936,-0.9064,-0.9357,-0.9124,-0.8789,-0.8515,-0.8239,-0.795,-0.758,-0.7372,-0.7007,-0.7019,-0.72,-0.6093,-0.4993,-0.4215,-0.3826,-0.4064,-0.4455,-0.4613,-0.4766,-0.438,-0.3912,-0.3997,-0.3843,-0.3528,-0.2898,-0.2036,-0.1723,-0.1802,-0.1725,-0.1649,-0.1573,-0.1415,-0.1346,-0.1199,-2.1849,-2.2051,-2.2334,-2.2548,-2.2721,-2.289,-2.3045,-2.3189,-2.3253,-2.3323,-2.3392,-2.3455,-2.3526,-2.3649,-2.371,-2.3795,-2.3921,-2.3961,-2.4174,-2.4532,-2.4823,-2.493,-2.5037,-2.5133,-2.5236,-2.5337,-2.5352,-2.5406,-2.5486,-2.5508,-2.5554,-2.5568,-2.5605,-2.5592,-2.5531,-2.5408,-2.5148,-2.4737,-2.4205,-2.3512,-2.2591,-2.1661,-2.0506,-1.9148,-1.8009,-1.6793,-1.5552,-1.4801,-1.4283,-1.3768,-1.2996,-1.2159,-1.1584,-1.1272,-1.1115,-1.1088,-1.0931,-1.0728,-1.0547,-1.0229,-0.9843,-0.9524,-0.9198,-0.8947,-0.8888,-0.8823,-0.8823,-0.8823,-0.8882,-0.8941,-0.8947,-0.8888,-0.9011,-0.9326,-0.9664,-0.9737,-0.9454,-0.9052,-0.8407,-0.7592,-0.772,-0.7855,-0.7703,-0.7296,-0.7003,-0.6738,-0.6375,-0.6075,-0.5811,-0.546,-0.5679,-0.5739,-0.5068,-0.3977,-0.2895,-0.2662,-0.2743,-0.3057,-0.3294,-0.3526,-0.3368,-0.2741,-0.2585,-0.2195,-0.1882,-0.1019,-0.0157,-0.0392,-0.0549,-0.0393,-0.0158,-0.0,0.016,0.0651,0.0903,-2.1245,-2.1462,-2.1735,-2.1936,-2.2136,-2.2286,-2.2449,-2.2617,-2.2669,-2.2729,-2.2805,-2.2873,-2.293,-2.3045,-2.3153,-2.3248,-2.3346,-2.3414,-2.3486,-2.3764,-2.4137,-2.4452,-2.4674,-2.4785,-2.4892,-2.501,-2.505,-2.5118,-2.5226,-2.5302,-2.5402,-2.545,-2.5528,-2.5584,-2.5537,-2.545,-2.52,-2.4815,-2.4284,-2.3482,-2.247,-2.1357,-2.0058,-1.8536,-1.7193,-1.5867,-1.4539,-1.3243,-1.2696,-1.2812,-1.1715,-1.0771,-1.0229,-1.0006,-0.9781,-0.9514,-0.9649,-0.9538,-0.9242,-0.9144,-0.8941,-0.8554,-0.8231,-0.8042,-0.7917,-0.7917,-0.7917,-0.7917,-0.7912,-0.7917,-0.7917,-0.7852,-0.7782,-0.7587,-0.8172,-0.8528,-0.8408,-0.7897,-0.7105,-0.6523,-0.6443,-0.6575,-0.6557,-0.6015,-0.5664,-0.5386,-0.5039,-0.4704,-0.4439,-0.4286,-0.4283,-0.4105,-0.3917,-0.2627,-0.1469,-0.1488,-0.1488,-0.1175,-0.1567,-0.1803,-0.2117,-0.1646,-0.1332,-0.0941,-0.0079,0.0864,0.1338,0.1182,0.1027,0.111,0.1279,0.1456,0.1721,0.2161,0.2436,-2.0514,-2.0764,-2.1055,-2.1244,-2.1413,-2.1631,-2.1781,-2.189,-2.2051,-2.2091,-2.2164,-2.2258,-2.2324,-2.2449,-2.2529,-2.2608,-2.2669,-2.2721,-2.2772,-2.2848,-2.3058,-2.3653,-2.421,-2.4349,-2.4449,-2.4561,-2.4603,-2.471,-2.4796,-2.4884,-2.502,-2.5195,-2.5291,-2.5405,-2.5434,-2.54,-2.5265,-2.4935,-2.4267,-2.3316,-2.2097,-2.0734,-1.9289,-1.7624,-1.615,-1.4642,-1.3117,-1.1206,-1.0434,-1.0864,-1.0195,-0.9429,-0.8862,-0.8519,-0.8275,-0.8205,-0.8143,-0.8193,-0.8258,-0.8095,-0.7892,-0.7782,-0.7326,-0.7064,-0.7064,-0.7068,-0.6999,-0.6929,-0.6933,-0.6933,-0.6798,-0.6666,-0.647,-0.6272,-0.6732,-0.7335,-0.7484,-0.6951,-0.609,-0.5116,-0.5269,-0.5312,-0.4931,-0.4466,-0.4127,-0.4005,-0.3841,-0.3604,-0.3195,-0.3103,-0.3088,-0.3191,-0.2848,-0.1288,-0.0306,-0.0311,-0.0078,0.047,0.0392,0.0157,-0.0235,-0.0392,-0.0314,-0.0235,0.1419,0.2529,0.2856,0.2943,0.2873,0.2574,0.2781,0.2907,0.3013,0.3301,0.3509,-1.9737,-1.9984,-2.0261,-2.0465,-2.0698,-2.0893,-2.1039,-2.1197,-2.1275,-2.1415,-2.1493,-2.1552,-2.1642,-2.1702,-2.1757,-2.1816,-2.1857,-2.1915,-2.1927,-2.1972,-2.2051,-2.2633,-2.3422,-2.3712,-2.3775,-2.3892,-2.3988,-2.4063,-2.415,-2.4284,-2.4471,-2.4669,-2.4878,-2.506,-2.5182,-2.5288,-2.5312,-2.5093,-2.4312,-2.3148,-2.1688,-1.995,-1.8035,-1.6225,-1.4541,-1.2809,-1.0706,-0.8944,-0.8397,-0.8842,-0.8587,-0.8013,-0.7481,-0.7106,-0.6905,-0.6774,-0.675,-0.678,-0.6805,-0.6755,-0.6647,-0.6515,-0.6145,-0.6013,-0.5943,-0.5873,-0.5807,-0.5807,-0.5811,-0.5745,-0.5609,-0.5411,-0.5147,-0.4948,-0.515,-0.5683,-0.6358,-0.5749,-0.4878,-0.4212,-0.4154,-0.4359,-0.3687,-0.3082,-0.2683,-0.2493,-0.2388,-0.2129,-0.1794,-0.1834,-0.1864,-0.1876,-0.1388,0.0148,0.1192,0.1283,0.1306,0.185,0.218,0.195,0.1645,0.1176,0.0942,0.1335,0.2847,0.3987,0.4334,0.4451,0.4009,0.3888,0.4206,0.4418,0.4527,0.4561,0.4783,-1.8855,-1.908,-1.9325,-1.963,-1.9909,-2.005,-2.0193,-2.0398,-2.0431,-2.0548,-2.0665,-2.0747,-2.0748,-2.0862,-2.0879,-2.0959,-2.0943,-2.0943,-2.0943,-2.0927,-2.0989,-2.1457,-2.2156,-2.2691,-2.288,-2.2994,-2.317,-2.3226,-2.3289,-2.3464,-2.3671,-2.3823,-2.4118,-2.4521,-2.4774,-2.4962,-2.5166,-2.5171,-2.4006,-2.2335,-2.0676,-1.8955,-1.7008,-1.4182,-1.1929,-0.9899,-0.7896,-0.6508,-0.625,-0.6972,-0.6827,-0.6401,-0.5928,-0.5655,-0.5441,-0.5313,-0.5349,-0.5342,-0.5196,-0.5303,-0.5321,-0.5048,-0.4951,-0.4818,-0.4683,-0.468,-0.4683,-0.4752,-0.4556,-0.4558,-0.4422,-0.4084,-0.3749,-0.3551,-0.342,-0.3751,-0.4217,-0.4353,-0.3818,-0.2878,-0.3224,-0.3295,-0.2822,-0.2013,-0.114,-0.0939,-0.0811,-0.0542,-0.0136,0.0207,0.007,-0.014,0.0638,0.1666,0.24,0.2994,0.2979,0.3249,0.3685,0.3716,0.3437,0.3052,0.2511,0.2838,0.3983,0.5084,0.5969,0.5782,0.5355,0.5328,0.565,0.5866,0.6076,0.6127,0.6274,-1.7827,-1.8106,-1.8327,-1.8559,-1.8803,-1.9111,-1.9295,-1.9368,-1.9528,-1.96,-1.9671,-1.9758,-1.9793,-1.9829,-1.9854,-1.9924,-1.9858,-1.9823,-1.9703,-1.9546,-1.9602,-1.9693,-2.0215,-2.1016,-2.174,-2.1894,-2.2023,-2.2071,-2.2146,-2.2176,-2.2434,-2.2658,-2.2802,-2.3521,-2.4303,-2.3907,-2.4493,-2.4872,-2.3179,-2.0381,-1.8303,-1.722,-1.5097,-1.1574,-0.8728,-0.6476,-0.4746,-0.3678,-0.3194,-0.3254,-0.3975,-0.4255,-0.4158,-0.3944,-0.3779,-0.3694,-0.3781,-0.3851,-0.3853,-0.3841,-0.3895,-0.3799,-0.3685,-0.3616,-0.3551,-0.3482,-0.362,-0.3761,-0.383,-0.356,-0.3288,-0.2683,-0.2345,-0.2144,-0.1944,-0.1676,-0.1743,-0.2818,-0.275,-0.1676,-0.141,-0.1546,-0.1007,-0.0336,0.0269,0.0538,0.0806,0.1008,0.1483,0.2032,0.1767,0.1297,0.2076,0.3035,0.3686,0.4141,0.423,0.4461,0.4916,0.5393,0.5206,0.4691,0.407,0.4274,0.4903,0.604,0.7398,0.7275,0.6858,0.7001,0.7132,0.7346,0.7483,0.7555,0.757,-1.6799,-1.7079,-1.7286,-1.7531,-1.78,-1.8011,-1.8182,-1.8352,-1.8468,-1.8545,-1.866,-1.8712,-1.875,-1.8736,-1.876,-1.8745,-1.8603,-1.8436,-1.8229,-1.8007,-1.794,-1.7848,-1.7848,-1.8567,-1.9321,-2.0215,-2.0446,-2.0495,-2.0528,-2.0544,-2.062,-2.0863,-2.0986,-2.1329,-2.2116,-2.1785,-2.1057,-1.9731,-1.7405,-1.4754,-1.3125,-1.0124,-0.8474,-0.5893,-0.3711,-0.216,-0.1197,-0.0656,-0.0165,-0.0055,-0.0551,-0.1491,-0.2164,-0.2169,-0.206,-0.2127,-0.2206,-0.2292,-0.2314,-0.2312,-0.2372,-0.2341,-0.2281,-0.2146,-0.2079,-0.2079,-0.2079,-0.208,-0.2013,-0.1882,-0.1611,-0.1139,-0.0737,-0.0536,-0.0335,-0.0,-0.0,-0.1074,-0.1612,-0.0336,-0.0067,0.0134,0.0671,0.1276,0.1813,0.2216,0.2078,0.228,0.2618,0.3032,0.2891,0.2834,0.347,0.4191,0.4903,0.525,0.5299,0.563,0.6117,0.6704,0.6969,0.6227,0.555,0.5808,0.6167,0.7737,0.8822,0.8547,0.8558,0.8595,0.8723,0.8865,0.8973,0.9061,0.9061,-1.5744,-1.6039,-1.6213,-1.6446,-1.6773,-1.6857,-1.7024,-1.7244,-1.7327,-1.7354,-1.7518,-1.7558,-1.7504,-1.7558,-1.7545,-1.7464,-1.7179,-1.6959,-1.6641,-1.6333,-1.6126,-1.593,-1.5831,-1.5899,-1.6424,-1.81,-1.8427,-1.8539,-1.8496,-1.8444,-1.8272,-1.8441,-1.8462,-1.8405,-1.8538,-1.8303,-1.6728,-1.3855,-1.0697,-0.772,-0.5608,-0.1358,0.1151,0.2567,0.2559,0.2556,0.269,0.2713,0.2898,0.3078,0.3199,0.2159,0.078,-0.0278,-0.0336,-0.045,-0.0566,-0.0586,-0.0553,-0.0624,-0.0701,-0.0669,-0.0671,-0.0604,-0.047,-0.0403,-0.0335,-0.0067,0.0134,0.0537,0.0873,0.1072,0.1139,0.1275,0.1408,0.1541,0.1542,0.0939,0.0938,0.1007,0.161,0.2012,0.2347,0.2817,0.3357,0.3763,0.362,0.3616,0.3954,0.4087,0.4013,0.4077,0.4645,0.5269,0.5907,0.6289,0.6371,0.6861,0.7372,0.7912,0.8392,0.7977,0.7342,0.7073,0.7643,0.9257,1.0322,1.0499,1.0418,1.0299,1.0202,1.0279,1.0371,1.0549,1.0376,-1.4617,-1.4824,-1.5062,-1.5299,-1.5443,-1.5708,-1.5884,-1.5928,-1.6003,-1.6046,-1.6034,-1.6046,-1.6077,-1.6077,-1.6046,-1.5891,-1.5548,-1.5271,-1.4914,-1.4495,-1.4233,-1.3936,-1.36,-1.3372,-1.3506,-1.4056,-1.5101,-1.5902,-1.5998,-1.5872,-1.5501,-1.5338,-1.5103,-1.4893,-1.4334,-1.3744,-1.1594,-0.7997,-0.5016,-0.2213,0.1177,0.4515,0.7569,0.9299,0.8876,0.7841,0.666,0.6345,0.6183,0.6056,0.6016,0.5567,0.4633,0.3033,0.2037,0.1557,0.1392,0.1252,0.1253,0.1209,0.1166,0.1195,0.1139,0.1139,0.1206,0.1207,0.1407,0.1809,0.241,0.3151,0.356,0.3218,0.3284,0.3286,0.3218,0.3149,0.3349,0.3411,0.3276,0.3218,0.3556,0.3825,0.3954,0.4148,0.455,0.4885,0.4948,0.5071,0.5338,0.5404,0.5332,0.5463,0.5668,0.628,0.6898,0.7206,0.7458,0.805,0.8551,0.9041,0.9437,0.9536,0.9306,0.8811,0.9299,1.0717,1.1567,1.2077,1.1877,1.1505,1.1499,1.1671,1.1671,1.1585,1.1494,-1.3579,-1.3815,-1.3956,-1.419,-1.4411,-1.4595,-1.4675,-1.4675,-1.4721,-1.471,-1.4653,-1.4653,-1.4653,-1.4653,-1.4585,-1.4242,-1.3767,-1.3392,-1.2964,-1.2532,-1.2125,-1.1764,-1.1361,-1.0988,-1.0615,-1.0565,-1.1257,-1.2375,-1.3114,-1.2666,-1.2223,-1.1724,-1.1338,-1.0647,-0.9818,-0.8864,-0.6486,-0.2918,0.1178,0.483,0.798,1.1094,1.3682,1.3752,1.3361,1.194,1.0744,1.021,0.985,0.9477,0.9368,0.8993,0.8161,0.6971,0.5342,0.4157,0.3466,0.3287,0.317,0.3079,0.2859,0.2863,0.2743,0.2744,0.2811,0.2945,0.3143,0.3544,0.3749,0.4353,0.4422,0.4556,0.4558,0.4556,0.4619,0.4746,0.4942,0.5196,0.5203,0.5147,0.5147,0.5143,0.508,0.5342,0.5738,0.6001,0.6199,0.6461,0.6719,0.678,0.6706,0.6902,0.7102,0.7666,0.8163,0.8362,0.8692,0.9295,0.982,1.0263,1.0583,1.0724,1.0593,1.0252,1.1209,1.2239,1.2729,1.3134,1.2923,1.2711,1.2705,1.2699,1.2705,1.2705,1.2522,-1.2521,-1.288,-1.288,-1.3112,-1.3389,-1.3426,-1.3379,-1.3379,-1.3331,-1.3263,-1.3215,-1.3205,-1.3158,-1.31,-1.2878,-1.2425,-1.1809,-1.1355,-1.0898,-1.0386,-0.9929,-0.9475,-0.8996,-0.8515,-0.8019,-0.7512,-0.7123,-0.7957,-0.963,-0.9407,-0.8629,-0.7898,-0.7167,-0.6196,-0.52,-0.3783,-0.1427,0.2645,0.7751,1.2213,1.5225,1.7708,1.8834,1.751,1.6271,1.5284,1.4238,1.3973,1.3501,1.2963,1.2572,1.2209,1.1431,1.0736,0.9259,0.717,0.5961,0.5435,0.5171,0.4906,0.4708,0.4665,0.4475,0.4475,0.4607,0.4803,0.4998,0.514,0.5276,0.5342,0.5408,0.5415,0.5484,0.5679,0.6005,0.6264,0.6318,0.6506,0.6828,0.6772,0.665,0.6588,0.6584,0.6654,0.7046,0.7307,0.7502,0.7762,0.8021,0.8215,0.8275,0.8398,0.8678,0.9133,0.948,0.9598,1.0025,1.059,1.1064,1.1468,1.1788,1.2018,1.1802,1.1765,1.2498,1.3396,1.379,1.4137,1.3871,1.3756,1.3711,1.373,1.3815,1.3808,1.3711,-1.141,-1.1719,-1.176,-1.1909,-1.2107,-1.207,-1.2061,-1.2003,-1.1805,-1.1657,-1.1648,-1.1557,-1.1449,-1.124,-1.0822,-1.0351,-0.9834,-0.9306,-0.8788,-0.8266,-0.7688,-0.7158,-0.6577,-0.5986,-0.5479,-0.4877,-0.4063,-0.4919,-0.5981,-0.576,-0.5071,-0.4147,-0.305,-0.1819,-0.0583,0.105,0.4127,0.774,1.1964,1.6635,2.0766,2.2191,2.1807,2.0925,1.9995,1.908,1.7936,1.7555,1.7034,1.6138,1.5419,1.4819,1.4031,1.3167,1.248,1.1008,0.9365,0.7476,0.7191,0.6901,0.6651,0.6576,0.6457,0.6523,0.6519,0.665,0.6715,0.6658,0.6793,0.6793,0.6654,0.6662,0.6798,0.6994,0.7316,0.7572,0.7692,0.7643,0.7965,0.8709,0.8656,0.8334,0.8146,0.8215,0.8355,0.8549,0.8807,0.9064,0.925,0.943,0.9697,0.9812,1.0258,1.0748,1.0823,1.0877,1.1303,1.1914,1.2289,1.2707,1.2992,1.3201,1.3331,1.3433,1.4022,1.4439,1.505,1.5131,1.4921,1.4795,1.4587,1.4713,1.4922,1.4824,1.4803,-1.0028,-1.0787,-1.0779,-1.0889,-1.1032,-1.0922,-1.0813,-1.0661,-1.0466,-1.0254,-1.0049,-0.9997,-0.9725,-0.937,-0.8874,-0.839,-0.7858,-0.7276,-0.6742,-0.6201,-0.5612,-0.5015,-0.4416,-0.3814,-0.3152,-0.2377,-0.1658,-0.0991,-0.1805,-0.1963,-0.1586,-0.0435,0.0759,0.2103,0.3545,0.5396,0.7974,1.1546,1.5989,2.045,2.3396,2.4766,2.4887,2.415,2.3397,2.2371,2.1445,2.09,2.0213,1.9252,1.8459,1.7725,1.687,1.5901,1.5068,1.4191,1.2804,1.1106,0.9629,0.9087,0.865,0.8404,0.8275,0.821,0.8275,0.8339,0.8345,0.8291,0.8226,0.8091,0.7962,0.7962,0.8027,0.8285,0.8608,0.8865,0.9035,0.8902,0.9139,0.9964,1.0661,1.0332,0.9939,0.9812,0.9824,0.9767,1.0015,1.0268,1.0445,1.0544,1.0815,1.1156,1.175,1.2372,1.2291,1.2254,1.2606,1.312,1.3334,1.3746,1.4165,1.4386,1.4434,1.449,1.4816,1.5396,1.6081,1.6166,1.5882,1.5598,1.5457,1.5606,1.5748,1.5906,1.5801,-0.8829,-0.9659,-0.9769,-0.9902,-0.9997,-0.9858,-0.9599,-0.9392,-0.9131,-0.8817,-0.8573,-0.8353,-0.7979,-0.7503,-0.7056,-0.6534,-0.5973,-0.5328,-0.4758,-0.4207,-0.3602,-0.2996,-0.2386,-0.1778,-0.0999,-0.0111,0.0665,0.1437,0.2096,0.2199,0.2242,0.3014,0.4025,0.5424,0.7081,0.8992,1.1379,1.4992,1.948,2.2859,2.4891,2.6229,2.6571,2.6424,2.5967,2.5154,2.418,2.3703,2.2977,2.1988,2.1162,2.0338,1.932,1.8307,1.7377,1.6549,1.5395,1.4209,1.2575,1.1505,1.0662,1.0242,0.9996,0.9869,0.9806,0.9875,0.9748,0.9697,0.957,0.9372,0.9244,0.9186,0.9308,0.9621,1.0009,1.0268,1.0438,1.0283,1.0512,1.1348,1.205,1.2382,1.1996,1.16,1.1351,1.1045,1.1233,1.1545,1.16,1.1648,1.1947,1.2281,1.3196,1.3745,1.3553,1.3564,1.3992,1.4252,1.4482,1.4736,1.5117,1.533,1.5313,1.5517,1.5649,1.5934,1.6461,1.6598,1.6738,1.6453,1.6338,1.6495,1.6648,1.6804,1.678,-0.8036,-0.8288,-0.8578,-0.8857,-0.9061,-0.8679,-0.8421,-0.8205,-0.7693,-0.7376,-0.7095,-0.6612,-0.6222,-0.5885,-0.5327,-0.4758,-0.4243,-0.3554,-0.2983,-0.2415,-0.1732,-0.1126,-0.0451,0.0225,0.1005,0.195,0.2777,0.3762,0.4856,0.5487,0.5533,0.5694,0.6749,0.8189,0.9841,1.1796,1.481,1.8195,2.1874,2.3961,2.5552,2.674,2.7362,2.7498,2.7409,2.7061,2.618,2.5805,2.5222,2.4155,2.329,2.2405,2.1315,2.0351,1.9444,1.8572,1.7684,1.6661,1.5568,1.374,1.2464,1.2058,1.1757,1.1439,1.137,1.1322,1.1205,1.0954,1.0885,1.0696,1.0577,1.0521,1.0696,1.0947,1.1322,1.1626,1.172,1.1569,1.1936,1.2801,1.3371,1.377,1.3666,1.3191,1.252,1.222,1.2413,1.2658,1.2779,1.2811,1.3058,1.357,1.456,1.4944,1.4698,1.4847,1.5187,1.5306,1.5483,1.5683,1.5982,1.6114,1.6175,1.6237,1.6358,1.656,1.6765,1.6984,1.7157,1.7206,1.7204,1.7194,1.7398,1.7496,1.7479,-0.7012,-0.7225,-0.7175,-0.7619,-0.83,-0.779,-0.7442,-0.7156,-0.664,-0.612,-0.5591,-0.4956,-0.4471,-0.4134,-0.364,-0.3073,-0.247,-0.191,-0.1362,-0.0711,-0.0059,0.0652,0.1357,0.197,0.2697,0.3699,0.4601,0.5467,0.644,0.7564,0.8403,0.8704,0.9061,1.0089,1.181,1.4222,1.7454,2.0128,2.2841,2.4936,2.649,2.7963,2.8824,2.9127,2.9052,2.8742,2.807,2.754,2.6782,2.5894,2.4965,2.402,2.3097,2.2115,2.1267,2.0453,1.9533,1.8819,1.787,1.595,1.4278,1.3571,1.3218,1.2915,1.2854,1.2801,1.2565,1.2381,1.2251,1.2066,1.1826,1.1888,1.2081,1.232,1.2618,1.2984,1.3055,1.2895,1.3203,1.4058,1.4703,1.5262,1.5018,1.4697,1.3983,1.3381,1.3649,1.383,1.3952,1.4055,1.4325,1.5023,1.5992,1.6186,1.6004,1.6115,1.6363,1.6383,1.6403,1.6473,1.6612,1.6751,1.6811,1.6932,1.701,1.7204,1.7311,1.7431,1.7423,1.7296,1.7484,1.7882,1.8065,1.8205,1.8223,-0.622,-0.6331,-0.61,-0.6515,-0.7255,-0.6823,-0.6404,-0.604,-0.5491,-0.4806,-0.3974,-0.3416,-0.2939,-0.2572,-0.206,-0.1558,-0.0994,-0.0431,0.0123,0.0795,0.1466,0.2271,0.2974,0.3628,0.4237,0.5262,0.6027,0.6881,0.7841,0.8901,0.9681,1.0391,1.1048,1.1796,1.3208,1.6104,1.9055,2.1351,2.3435,2.562,2.7218,2.8667,2.9696,3.0018,3.0,2.974,2.917,2.8588,2.7906,2.7113,2.6303,2.546,2.4587,2.3739,2.2966,2.2108,2.1308,2.0515,1.9443,1.7652,1.5861,1.51,1.4641,1.4405,1.4246,1.4145,1.3897,1.3606,1.3537,1.3476,1.3166,1.3347,1.3476,1.3708,1.4127,1.4423,1.4378,1.4295,1.4742,1.5303,1.5896,1.6502,1.6191,1.5908,1.5653,1.5037,1.4995,1.5275,1.5557,1.5654,1.5677,1.6455,1.7599,1.7519,1.7407,1.735,1.7269,1.7229,1.7235,1.7166,1.7235,1.7373,1.7364,1.7267,1.7432,1.7695,1.776,1.7731,1.7518,1.7243,1.7692,1.8249,1.8597,1.8738,1.9008,-0.5727,-0.5609,-0.5467,-0.568,-0.609,-0.5755,-0.5225,-0.4761,-0.4022,-0.3263,-0.2565,-0.2119,-0.169,-0.125,-0.0712,-0.0193,0.0383,0.0879,0.1491,0.2118,0.281,0.3645,0.4315,0.5026,0.5678,0.6803,0.746,0.8159,0.9117,0.9946,1.083,1.1674,1.2404,1.3256,1.4082,1.6898,1.9754,2.2158,2.3951,2.5706,2.7464,2.8762,2.9506,3.0166,3.0343,3.0148,2.98,2.9379,2.8721,2.8003,2.7408,2.665,2.587,2.5093,2.4362,2.3588,2.2655,2.189,2.1108,1.8737,1.7412,1.6599,1.6136,1.5871,1.5603,1.5449,1.5274,1.4963,1.4895,1.4836,1.4718,1.4787,1.4904,1.5138,1.5555,1.5776,1.5716,1.5568,1.594,1.657,1.7127,1.754,1.7334,1.7122,1.7082,1.6797,1.6598,1.6749,1.7039,1.6971,1.688,1.7765,1.8851,1.8705,1.8481,1.8295,1.825,1.8192,1.7988,1.7852,1.7716,1.7706,1.7696,1.7609,1.7706,1.7891,1.7969,1.8008,1.7758,1.7605,1.8115,1.8564,1.8928,1.9155,1.9336,-0.4688,-0.4686,-0.4287,-0.4109,-0.41,-0.442,-0.4162,-0.3577,-0.2608,-0.1837,-0.1321,-0.0728,-0.0266,0.02,0.0665,0.1189,0.1712,0.2236,0.2864,0.3376,0.4132,0.4864,0.5519,0.625,0.6977,0.7835,0.8543,0.9214,1.0151,1.0922,1.1625,1.2423,1.3721,1.5016,1.6197,1.8117,2.0055,2.1918,2.356,2.5189,2.7104,2.818,2.9141,3.0156,3.0383,3.036,3.0202,2.9846,2.9381,2.8798,2.8229,2.7617,2.6911,2.6148,2.548,2.4753,2.3869,2.2922,2.2025,2.0492,1.9428,1.8442,1.7611,1.7291,1.7034,1.681,1.6585,1.6358,1.6291,1.6167,1.611,1.6177,1.6348,1.6518,1.6856,1.7079,1.7081,1.6784,1.695,1.7845,1.8594,1.9056,1.9126,1.893,1.8829,1.8742,1.8583,1.8265,1.8459,1.8166,1.8018,1.8976,1.9803,1.9791,1.9647,1.9274,1.8998,1.8865,1.8664,1.8405,1.8259,1.8114,1.7978,1.7823,1.792,1.8008,1.8018,1.8037,1.7998,1.8083,1.8308,1.8543,1.8807,1.9014,1.9213,-0.3623,-0.3551,-0.3151,-0.2684,-0.2485,-0.3151,-0.3015,-0.2211,-0.1208,-0.047,0.0,0.0604,0.1141,0.1544,0.208,0.2549,0.3086,0.3616,0.4143,0.4671,0.5339,0.6081,0.6697,0.728,0.8006,0.8822,0.951,1.0159,1.1032,1.1742,1.257,1.3558,1.4824,1.5953,1.7097,1.8358,1.9744,2.1439,2.2899,2.4235,2.6032,2.7377,2.8411,2.94,2.997,3.0171,3.0327,3.0211,2.9909,2.9382,2.892,2.8377,2.772,2.7103,2.6438,2.5737,2.4729,2.3761,2.2772,2.2161,2.1094,2.0205,1.927,1.8727,1.8405,1.819,1.7907,1.7743,1.7644,1.7523,1.7446,1.7578,1.7688,1.7852,1.807,1.8286,1.8382,1.8082,1.8209,1.9125,2.0001,2.0523,2.0894,2.0816,2.0665,2.0616,2.0488,2.0222,1.9843,1.9441,1.9187,2.0004,2.068,2.0638,2.0433,2.0129,1.9857,1.9605,1.9274,1.8942,1.8607,1.8395,1.8259,1.8056,1.8066,1.7998,1.8008,1.8027,1.7979,1.8027,1.8123,1.8344,1.8595,1.8792,1.8951,-0.2619,-0.2147,-0.1945,-0.1544,-0.1209,-0.1744,-0.1476,-0.0403,0.0134,0.0739,0.1344,0.1744,0.2348,0.3021,0.342,0.3811,0.4268,0.4863,0.5294,0.5841,0.6303,0.7054,0.7683,0.8178,0.8918,0.9688,1.0405,1.0973,1.1859,1.2579,1.3474,1.4503,1.5511,1.6547,1.7406,1.8291,1.9575,2.1039,2.2116,2.3601,2.5356,2.6442,2.7538,2.8522,2.9117,2.9659,2.9985,3.0171,3.0051,2.9794,2.9513,2.9037,2.8506,2.7939,2.7309,2.6438,2.5303,2.444,2.3694,2.3172,2.277,2.1871,2.0939,2.027,1.9786,1.9463,1.9242,1.9073,1.8903,1.8862,1.8809,1.8821,1.8886,1.9097,1.9254,1.9436,1.9617,1.9626,1.9747,2.0423,2.138,2.1929,2.2088,2.2138,2.2151,2.21,2.1922,2.1691,2.1295,2.07,2.054,2.078,2.1308,2.1429,2.1215,2.0839,2.0518,2.0194,1.9726,1.9396,1.9065,1.8664,1.8375,1.8172,1.8056,1.7998,1.8008,1.8008,1.8008,1.8066,1.8056,1.8105,1.8308,1.8465,1.8553,-0.1478,-0.1141,-0.0739,-0.0201,0.0269,0.067,0.0805,0.0873,0.1343,0.1947,0.2554,0.3019,0.3553,0.4159,0.4625,0.5019,0.542,0.5755,0.6116,0.6542,0.7082,0.7607,0.8213,0.8839,0.962,1.036,1.1048,1.1683,1.257,1.3341,1.419,1.5197,1.6008,1.6896,1.7652,1.8366,1.9591,2.0742,2.1648,2.3123,2.4516,2.559,2.6688,2.7618,2.8216,2.884,2.9471,2.9643,2.966,2.9951,2.9825,2.9495,2.9012,2.8499,2.7847,2.6707,2.5859,2.5205,2.4608,2.4101,2.3706,2.342,2.2682,2.1899,2.1245,2.0769,2.0557,2.0344,2.0244,2.0143,2.0092,2.0105,2.0118,2.027,2.0448,2.0718,2.082,2.0862,2.1095,2.2128,2.3057,2.3155,2.3321,2.3347,2.3386,2.3416,2.328,2.3005,2.2567,2.1868,2.1545,2.1741,2.1898,2.2094,2.1847,2.1463,2.1158,2.0775,2.0313,1.9857,1.9386,1.9044,1.8633,1.8297,1.8104,1.8056,1.8008,1.8008,1.8076,1.8008,1.8047,1.8027,1.8047,1.8193,1.8281,-0.0403,0.0,0.047,0.1008,0.1746,0.2348,0.2549,0.2549,0.2683,0.3086,0.3692,0.4223,0.4691,0.5206,0.5614,0.5973,0.63,0.6666,0.6992,0.7264,0.7708,0.8321,0.8863,0.9418,1.0158,1.0938,1.1651,1.2295,1.316,1.4107,1.4994,1.5623,1.6398,1.712,1.7838,1.853,1.9517,2.0701,2.1797,2.2911,2.3873,2.4737,2.5745,2.6772,2.7277,2.7968,2.8758,2.8838,2.9099,2.9437,2.932,2.9361,2.897,2.8558,2.8165,2.7155,2.6556,2.6002,2.5454,2.5028,2.4712,2.4446,2.4158,2.3578,2.2862,2.2257,2.1899,2.1629,2.1547,2.1452,2.1369,2.1334,2.1382,2.1382,2.1675,2.1997,2.202,2.2005,2.2821,2.3941,2.4341,2.4405,2.445,2.4513,2.4408,2.4234,2.4002,2.378,2.3292,2.264,2.2311,2.2298,2.2469,2.269,2.2357,2.1975,2.1663,2.1285,2.0828,2.0302,1.9846,1.9375,1.889,1.8556,1.8162,1.8182,1.8289,1.8144,1.8134,1.8144,1.8076,1.8008,1.8008,1.8047,1.8096,0.0605,0.1209,0.1614,0.2284,0.309,0.342,0.382,0.4353,0.409,0.4225,0.4758,0.5226,0.5752,0.6179,0.6514,0.6822,0.7115,0.748,0.7703,0.7937,0.8267,0.8809,0.9437,0.9986,1.0664,1.1427,1.2206,1.2832,1.3647,1.4536,1.5367,1.6032,1.6582,1.7216,1.7877,1.8596,1.9562,2.0698,2.1801,2.2814,2.3307,2.3958,2.4681,2.5853,2.6446,2.6927,2.7737,2.8045,2.8084,2.8254,2.8433,2.872,2.864,2.8651,2.8254,2.7837,2.7278,2.6821,2.6318,2.5947,2.5652,2.5389,2.5121,2.4831,2.4246,2.3419,2.2995,2.2801,2.2651,2.2515,2.2423,2.2619,2.2658,2.2828,2.3098,2.3433,2.3688,2.382,2.4531,2.5339,2.5336,2.537,2.526,2.5245,2.5048,2.4878,2.4694,2.4478,2.4002,2.3374,2.3002,2.2761,2.2848,2.2935,2.2739,2.2432,2.2173,2.1788,2.1336,2.0828,2.0377,1.9835,1.9222,1.889,1.8556,1.8539,1.8569,1.8482,1.8347,1.8279,1.8212,1.8076,1.8076,1.8076,1.8008,0.1811,0.2149,0.2954,0.3489,0.3761,0.4159,0.4625,0.516,0.5359,0.5425,0.5686,0.6148,0.6671,0.7093,0.7341,0.7604,0.7914,0.8028,0.8231,0.8482,0.877,0.9326,0.9903,1.0407,1.1108,1.185,1.2638,1.3399,1.4269,1.5062,1.568,1.6225,1.6752,1.7353,1.7879,1.8654,1.9652,2.0709,2.1636,2.2504,2.3063,2.3705,2.4502,2.5049,2.5482,2.6125,2.6792,2.7166,2.7556,2.7987,2.81,2.8298,2.8487,2.8875,2.8823,2.8417,2.8021,2.7578,2.7189,2.6788,2.6522,2.6265,2.6054,2.5892,2.5433,2.4561,2.4002,2.3891,2.3736,2.3608,2.3583,2.3792,2.3999,2.422,2.4511,2.493,2.5281,2.5734,2.6211,2.6256,2.6283,2.615,2.6028,2.5879,2.5674,2.5495,2.53,2.5077,2.4681,2.4137,2.3513,2.3263,2.305,2.3053,2.2969,2.2824,2.2482,2.2235,2.1788,2.1348,2.0914,2.0248,1.9639,1.9288,1.9034,1.9085,1.905,1.8828,1.8684,1.8549,1.8482,1.8414,1.8347,1.8337,1.8212,0.2751,0.3086,0.3823,0.4225,0.4431,0.4761,0.516,0.5554,0.6017,0.635,0.6548,0.6937,0.7456,0.7906,0.8021,0.8319,0.8562,0.8608,0.8782,0.8996,0.9316,0.9851,1.0344,1.0905,1.1519,1.2264,1.316,1.4025,1.4834,1.5379,1.5901,1.6367,1.6892,1.7366,1.7866,1.8627,1.9549,2.0519,2.142,2.2113,2.2772,2.349,2.4155,2.4564,2.5025,2.5592,2.5867,2.6244,2.6537,2.7192,2.7556,2.8644,2.9071,2.9498,2.9363,2.9012,2.8651,2.8278,2.7949,2.7637,2.7339,2.7123,2.6918,2.6738,2.6472,2.5688,2.5233,2.5057,2.4712,2.4552,2.4591,2.4744,2.4952,2.5142,2.5834,2.6421,2.6568,2.6716,2.6938,2.7034,2.6966,2.6698,2.6592,2.6553,2.634,2.5988,2.5797,2.5577,2.5175,2.4838,2.42,2.3722,2.3513,2.3229,2.3027,2.2957,2.2726,2.2482,2.2223,2.1726,2.1221,2.0582,2.0053,1.9814,1.9704,1.9801,1.9679,1.9372,1.9085,1.8942,1.8875,1.8741,1.8674,1.8607,1.8472,0.3491,0.3959,0.4425,0.4694,0.4894,0.5226,0.5488,0.5749,0.6346,0.6872,0.7199,0.7596,0.8112,0.8403,0.8508,0.8889,0.9042,0.903,0.9221,0.9532,0.9888,1.0352,1.0863,1.1368,1.2017,1.2793,1.3658,1.4351,1.5062,1.5513,1.5957,1.6392,1.6808,1.7188,1.7639,1.8349,1.9266,2.0246,2.107,2.1781,2.2512,2.3259,2.3926,2.4418,2.4799,2.5113,2.5343,2.5515,2.5603,2.6289,2.7238,2.8492,2.9426,2.9836,2.9788,2.9495,2.9223,2.8927,2.8669,2.8417,2.8121,2.7875,2.7694,2.749,2.7261,2.6916,2.6472,2.6108,2.5766,2.5492,2.5493,2.5831,2.6036,2.6272,2.7108,2.7674,2.7616,2.7605,2.7625,2.7694,2.7446,2.7181,2.7144,2.7107,2.6817,2.6525,2.6244,2.596,2.5673,2.5273,2.484,2.4315,2.3995,2.3702,2.3289,2.31,2.303,2.2787,2.2531,2.2099,2.1588,2.1083,2.0677,2.044,2.042,2.0542,2.0347,1.9965,1.9747,1.9462,1.9396,1.9264,1.9142,1.9075,1.8875,0.4428,0.4628,0.4891,0.5024,0.509,0.5418,0.5686,0.5954,0.6412,0.7003,0.7461,0.8117,0.8571,0.8918,0.8975,0.9207,0.9451,0.9444,0.9635,0.9895,1.03,1.082,1.1267,1.1819,1.2559,1.3276,1.3941,1.4558,1.5062,1.5513,1.6013,1.6405,1.6778,1.7131,1.7504,1.8224,1.8997,1.9914,2.066,2.1368,2.2175,2.2937,2.3764,2.4263,2.4689,2.5018,2.5293,2.5427,2.5541,2.6085,2.721,2.8549,2.9439,3.0064,3.0069,2.995,2.9672,2.9495,2.9225,2.903,2.8769,2.8573,2.8399,2.8218,2.8004,2.7844,2.743,2.7172,2.6788,2.6212,2.6294,2.7126,2.7508,2.7718,2.8252,2.8322,2.8373,2.8194,2.8122,2.7955,2.7725,2.756,2.7539,2.7386,2.7144,2.6907,2.6765,2.6472,2.6122,2.5769,2.537,2.4966,2.4513,2.4066,2.3598,2.3412,2.3271,2.309,2.2848,2.2469,2.2099,2.1776,2.1439,2.1141,2.1169,2.1296,2.1016,2.0691,2.0335,2.0107,1.9977,1.9846,1.9736,1.9539,1.9396]},{"header":{"parameterUnit":"m.s-1","parameterCategory":1,"la1":31.0,"la2":29.5877,"lo1":-88.7671,"lo2":-86.6584,"dx":0.0162,"dy":0.0185,"nx":115,"ny":88,"refTime":"2022-11-26T18:00:00:Z","depth":0,"parameterNumber":3,"parameterNumberName":"V-component_of_WINDS"},"data":[0.0,0.0,0.0,0.0,0.0,0.0,0.0,0.0,0.0,0.0,0.0,0.0,0.0,0.0,0.0,0.0,0.0,0.0,0.0,0.0,0.0,0.0,0.0,0.0,0.0,0.0,0.0,0.0,0.0,0.0,0.0,0.0,0.0,0.0,0.0,0.0,0.0,0.0,0.0,0.0,0.0,0.0,0.0,0.0,0.0,0.0,0.0,0.0,0.0,0.0,0.0,0.0,0.0,0.0,0.0,0.0,0.0,0.0,0.0,0.0,0.0,0.0,0.0,0.0,0.0,0.0,0.0,0.0,0.0,0.0,0.0,0.0,0.0,0.0,0.0,0.0,0.0,0.0,0.0,0.0,0.0,0.0,0.0,0.0,0.0,0.0,0.0,0.0,0.0,0.0,0.0,0.0,0.0,0.0,0.0,0.0,0.0,0.0,0.0,0.0,0.0,0.0,0.0,0.0,0.0,0.0,0.0,0.0,0.0,0.0,0.0,0.0,0.0,0.0,0.0,0.0,0.0,0.0,0.0,0.0,0.0,0.0,0.0,0.0,0.0,0.0,0.0,0.0,0.0,0.0,0.0,0.0,0.0,0.0,0.0,0.0,0.0,0.0,0.0,0.0,0.0,0.0,0.0,0.0,0.0,0.0,0.0,0.0,0.0,0.0,0.0,0.0,0.0,0.0,0.0,0.0,0.0,0.0,0.0,0.0,0.0,0.0,0.0,0.0,0.0,0.0,0.0,0.0,0.0,0.0,0.0,0.0,0.0,0.0,0.0,0.0,0.0,0.0,0.0,0.0,0.0,0.0,0.0,0.0,0.0,0.0,0.0,0.0,0.0,0.0,0.0,0.0,0.0,0.0,0.0,0.0,0.0,0.0,0.0,0.0,0.0,0.0,0.0,0.0,0.0,0.0,0.0,0.0,0.0,0.0,0.0,0.0,0.0,0.0,0.0,0.0,0.0,0.0,0.0,0.0,0.0,0.0,0.0,0.0,0.0,0.0,0.0,0.0,0.0,0.0,0.0,0.0,0.0,0.0,0.0,0.0,0.0,0.0,0.0,0.0,0.0,0.0,0.0,0.0,0.0,0.0,0.0,0.0,0.0,0.0,0.0,0.0,0.0,0.0,0.0,0.0,0.0,0.0,0.0,0.0,0.0,0.0,0.0,0.0,0.0,0.0,0.0,0.0,0.0,0.0,0.0,0.0,0.0,0.0,0.0,0.0,0.0,0.0,0.0,0.0,0.0,0.0,0.0,0.0,0.0,0.0,0.0,0.0,0.0,0.0,0.0,0.0,0.0,0.0,0.0,0.0,0.0,0.0,0.0,0.0,0.0,0.0,0.0,0.0,0.0,0.0,0.0,0.0,0.0,0.0,0.0,0.0,0.0,0.0,0.0,0.0,0.0,0.0,0.0,0.0,0.0,0.0,0.0,0.0,0.0,0.0,0.0,0.0,0.0,0.0,0.0,0.0,0.0,0.0,0.0,0.0,0.0,0.0,0.0,0.0,0.0,0.0,0.0,0.0,0.0,0.0,0.0,0.0,0.0,0.0,0.0,0.0,0.0,0.0,0.0,0.0,0.0,0.0,0.0,0.0,0.0,0.0,0.0,0.0,0.0,0.0,0.0,0.0,0.0,0.0,0.0,0.0,0.0,0.0,0.0,0.0,0.0,0.0,0.0,0.0,0.0,0.0,0.0,0.0,0.0,0.0,0.0,0.0,0.0,0.0,0.0,0.0,0.0,0.0,0.0,0.0,0.0,0.0,0.0,0.0,0.0,0.0,0.0,0.0,0.0,0.0,0.0,0.0,0.0,0.0,0.0,0.0,0.0,0.0,0.0,0.0,0.0,0.0,0.0,0.0,0.0,0.0,0.0,0.0,0.0,0.0,0.0,0.0,0.0,0.0,0.0,0.0,0.0,0.0,0.0,0.0,0.0,0.0,0.0,0.0,0.0,0.0,0.0,0.0,0.0,0.0,0.0,0.0,0.0,0.0,0.0,0.0,0.0,0.0,0.0,0.0,0.0,0.0,0.0,0.0,0.0,0.0,0.0,0.0,0.0,0.0,0.0,0.0,0.0,0.0,0.0,0.0,0.0,0.0,0.0,0.0,0.0,0.0,0.0,0.0,0.0,0.0,0.0,0.0,0.0,0.0,0.0,0.0,0.0,0.0,0.0,0.0,0.0,0.0,0.0,0.0,0.0,0.0,0.0,0.0,0.0,0.0,0.0,0.0,0.0,0.0,0.0,0.0,0.0,0.0,0.0,0.0,0.0,0.0,0.0,0.0,0.0,0.0,0.0,0.0,0.0,0.0,0.0,0.0,0.0,0.0,0.0,0.0,0.0,0.0,0.0,0.0,0.0,0.0,0.0,0.0,0.0,0.0,0.0,0.0,0.0,0.0,0.0,0.0,0.0,0.0,0.0,0.0,0.0,0.0,0.0,0.0,0.0,0.0,0.0,0.0,0.0,0.0,0.0,0.0,0.0,0.0,0.0,0.0,0.0,0.0,0.0,0.0,0.0,0.0,0.0,0.0,0.0,0.0,0.0,0.0,0.0,0.0,0.0,0.0,0.0,0.0,0.0,0.0,0.0,0.0,0.0,0.0,0.0,0.0,0.0,0.0,0.0,0.0,0.0,0.0,0.0,0.0,0.0,0.0,0.0,0.0,0.0,0.0,0.0,0.0,0.0,0.0,0.0,0.0,0.0,0.0,0.0,0.0,0.0,0.0,0.0,0.0,0.0,0.0,0.0,0.0,0.0,0.0,0.0,0.0,0.0,0.0,0.0,0.0,0.0,0.0,0.0,0.0,0.0,0.0,0.0,0.0,0.0,0.0,0.0,0.0,0.0,0.0,0.0,0.0,0.0,0.0,0.0,0.0,0.0,0.0,0.0,0.0,0.0,0.0,0.0,0.0,0.0,0.0,0.0,0.0,0.0,0.0,0.0,0.0,0.0,0.0,0.0,0.0,0.0,0.0,0.0,0.0,0.0,0.0,0.0,0.0,0.0,0.0,0.0,0.0,0.0,0.0,0.0,0.0,0.0,0.0,0.0,0.0,0.0,0.0,0.0,0.0,0.0,0.0,0.0,0.0,0.0,0.0,0.0,0.0,0.0,0.0,0.0,0.0,0.0,0.0,0.0,0.0,0.0,0.0,0.0,0.0,0.0,0.0,0.0,0.0,0.0,0.0,0.0,0.0,0.0,0.0,0.0,0.0,0.0,0.0,0.0,0.0,0.0,0.0,0.0,0.0,0.0,0.0,0.0,0.0,0.0,0.0,0.0,0.0,0.0,0.0,0.0,0.0,0.0,0.0,0.0,0.0,0.0,0.0,0.0,0.0,0.0,0.0,0.0,0.0,0.0,0.0,0.0,0.0,0.0,0.0,0.0,0.0,0.0,0.0,0.0,0.0,0.0,0.0,0.0,0.0,0.0,0.0,0.0,0.0,0.0,0.0,0.0,0.0,0.0,0.0,0.0,0.0,0.0,0.0,0.0,0.0,0.0,0.0,0.0,0.0,0.0,0.0,0.0,0.0,0.0,0.0,0.0,0.0,0.0,0.0,0.0,0.0,0.0,0.0,0.0,0.0,0.0,0.0,0.0,0.0,0.0,0.0,0.0,0.0,0.0,0.0,0.0,0.0,0.0,0.0,0.0,0.0,0.0,0.0,0.0,0.0,0.0,0.0,0.0,0.0,0.0,0.0,0.0,0.0,0.0,0.0,0.0,0.0,0.0,0.0,0.0,0.0,0.0,0.0,0.0,0.0,0.0,0.0,0.0,0.0,0.0,0.0,0.0,0.0,0.0,0.0,0.0,0.0,0.0,0.0,0.0,0.0,0.0,0.0,0.0,0.0,0.0,0.0,0.0,0.0,0.0,0.0,0.0,0.0,0.0,0.0,0.0,0.0,0.0,0.0,0.0,0.0,0.0,0.0,0.0,0.0,0.0,0.0,0.0,0.0,0.0,0.0,0.0,0.0,0.0,0.0,0.0,0.0,0.0,0.0,0.0,0.0,0.0,0.0,0.0,0.0,0.0,0.0,0.0,0.0,0.0,0.0,0.0,0.0,0.0,0.0,0.0,0.0,0.0,0.0,0.0,0.0,0.0,0.0,0.0,0.0,0.0,0.0,0.0,0.0,0.0,0.0,0.0,0.0,0.0,0.0,0.0,0.0,0.0,0.0,0.0,0.0,0.0,0.0,0.0,0.0,0.0,0.0,0.0,0.0,0.0,0.0,0.0,0.0,0.0,0.0,0.0,0.0,-0.7869,0.0,0.0,0.0,-0.7327,0.0,0.0,0.0,0.0,0.0,0.0,0.0,0.0,0.0,0.0,0.0,0.0,0.0,0.0,0.0,0.0,0.0,0.0,0.0,0.0,0.0,0.0,0.0,0.0,0.0,0.0,0.0,0.0,0.0,0.0,0.0,0.0,0.0,0.0,0.0,0.0,0.0,0.0,0.0,0.0,0.0,0.0,0.0,0.0,0.0,0.0,0.0,0.0,0.0,0.0,0.0,0.0,0.0,0.0,0.0,0.0,0.0,0.0,0.0,0.0,0.0,0.0,0.0,0.0,0.0,0.0,0.0,0.0,0.0,0.0,0.0,0.0,0.0,0.0,0.0,0.0,0.0,0.0,0.0,0.0,0.0,0.0,0.0,0.0,0.0,0.0,0.0,0.0,0.0,0.0,0.0,0.0,0.0,0.0,0.0,0.0,0.0,0.0,0.0,0.0,0.0,0.0,0.0,0.0,0.0,0.0,0.0,0.0,0.0,0.0,-0.7754,-0.7918,-0.7596,-0.7457,-0.7484,0.0,0.0,0.0,0.0,0.0,0.0,0.0,0.0,0.0,0.0,0.0,0.0,0.0,0.0,0.0,0.0,0.0,0.0,0.0,0.0,0.0,0.0,0.0,0.0,0.0,0.0,0.0,0.0,0.0,0.0,0.0,0.0,0.0,0.0,0.0,0.0,0.0,0.0,0.0,0.0,0.0,0.0,0.0,0.0,0.0,0.0,0.0,0.0,0.0,0.0,0.0,0.0,0.0,0.0,0.0,0.0,0.0,0.0,0.0,0.0,0.0,0.0,0.0,0.0,0.0,0.0,0.0,0.0,0.0,0.0,0.0,0.0,0.0,0.0,0.0,0.0,0.0,0.0,0.0,0.0,0.0,0.0,0.0,0.0,0.0,0.0,0.0,0.0,0.0,0.0,0.0,0.0,0.0,0.0,0.0,0.0,0.0,0.0,0.0,0.0,0.0,0.0,0.0,0.0,0.0,0.0,0.0,0.0,0.0,0.0,0.0,0.0,-0.7411,-0.735,-0.7445,0.0,0.0,0.0,0.0,0.0,0.0,0.0,0.0,0.0,0.0,0.0,0.0,0.0,0.0,0.0,0.0,0.0,0.0,0.0,0.0,0.0,0.0,0.0,0.0,0.0,0.0,0.0,0.0,0.0,0.0,0.0,0.0,0.0,0.0,0.0,0.0,0.0,0.0,0.0,0.0,0.0,0.0,0.0,0.0,0.0,0.0,0.0,0.0,0.0,0.0,0.0,0.0,0.0,0.0,0.0,0.0,0.0,0.0,0.0,0.0,0.0,0.0,0.0,0.0,0.0,0.0,0.0,0.0,0.0,0.0,0.0,0.0,0.0,0.0,0.0,0.0,0.0,0.0,0.0,0.0,0.0,0.0,0.0,0.0,0.0,0.0,0.0,0.0,0.0,0.0,0.0,0.0,0.0,0.0,0.0,0.0,0.0,0.0,0.0,0.0,0.0,0.0,0.0,0.0,0.0,0.0,0.0,0.0,0.0,0.0,-0.7056,-0.7255,-0.7297,0.0,-0.6965,0.0,0.0,0.0,0.0,0.0,0.0,0.0,0.0,0.0,0.0,0.0,0.0,0.0,0.0,0.0,0.0,0.0,0.0,0.0,0.0,0.0,0.0,0.0,0.0,0.0,0.0,0.0,0.0,0.0,0.0,0.0,0.0,0.0,0.0,0.0,0.0,0.0,0.0,0.0,0.0,0.0,0.0,0.0,0.0,0.0,0.0,0.0,0.0,0.0,0.0,0.0,0.0,0.0,0.0,0.0,0.0,0.0,0.0,0.0,0.0,0.0,0.0,0.0,0.0,0.0,0.0,0.0,0.0,0.0,0.0,0.0,0.0,0.0,0.0,0.0,0.0,0.0,0.0,0.0,0.0,0.0,0.0,0.0,0.0,0.0,0.0,0.0,0.0,0.0,0.0,0.0,0.0,0.0,0.0,0.0,0.0,0.0,0.0,0.0,0.0,0.0,0.0,0.0,0.0,0.0,0.0,0.0,0.0,0.0,0.0,-0.6695,-0.6786,-0.7056,-0.699,0.0,0.0,0.0,0.0,0.0,0.0,0.0,0.0,0.0,0.0,0.0,0.0,0.0,0.0,0.0,0.0,0.0,0.0,0.0,0.0,0.0,0.0,0.0,0.0,0.0,0.0,0.0,0.0,0.0,0.0,0.0,0.0,0.0,0.0,0.0,0.0,0.0,0.0,0.0,0.0,0.0,0.0,0.0,0.0,0.0,0.0,0.0,0.0,0.0,0.0,0.0,0.0,0.0,0.0,0.0,0.0,0.0,0.0,0.0,0.0,0.0,0.0,0.0,0.0,0.0,0.0,0.0,0.0,0.0,0.0,0.0,0.0,0.0,0.0,0.0,0.0,0.0,0.0,0.0,0.0,0.0,0.0,0.0,0.0,0.0,0.0,0.0,0.0,0.0,0.0,0.0,0.0,0.0,0.0,0.0,0.0,0.0,0.0,0.0,0.0,0.0,0.0,0.0,0.0,0.0,0.0,0.0,0.0,0.0,0.0,-0.6315,-0.6337,-0.6368,-0.6755,-0.6718,-0.621,0.0,0.0,0.0,0.0,0.0,0.0,0.0,0.0,0.0,0.0,0.0,0.0,0.0,0.0,0.0,0.0,0.0,0.0,0.0,0.0,0.0,0.0,0.0,0.0,0.0,0.0,0.0,0.0,0.0,0.0,0.0,0.0,0.0,0.0,0.0,0.0,0.0,0.0,0.0,0.0,0.0,0.0,0.0,0.0,0.0,0.0,0.0,0.0,0.0,0.0,0.0,0.0,0.0,0.0,0.0,0.0,0.0,0.0,0.0,0.0,0.0,0.0,0.0,0.0,0.0,0.0,0.0,0.0,0.0,0.0,0.0,0.0,0.0,0.0,0.0,0.0,0.0,0.0,0.0,0.0,0.0,0.0,0.0,0.0,0.0,0.0,0.0,0.0,0.0,0.0,0.0,0.0,0.0,0.0,0.0,0.0,0.0,0.0,0.0,0.0,0.0,0.0,0.0,0.0,0.0,0.0,0.0,0.0,-0.5918,-0.5857,-0.5905,-0.6029,-0.6405,-0.6387,0.0,0.0,0.0,0.0,0.0,0.0,0.0,0.0,0.0,0.0,0.0,0.0,0.0,0.0,0.0,0.0,0.0,0.0,0.0,0.0,0.0,0.0,0.0,0.0,0.0,0.0,0.0,0.0,0.0,0.0,0.0,0.0,0.0,0.0,0.0,0.0,0.0,0.0,0.0,0.0,0.0,0.0,0.0,0.0,0.0,0.0,0.0,0.0,0.0,0.0,0.0,0.0,0.0,0.0,0.0,0.0,0.0,0.0,0.0,0.0,0.0,0.0,0.0,0.0,0.0,0.0,0.0,0.0,0.0,0.0,0.0,0.0,0.0,0.0,0.0,0.0,0.0,0.0,0.0,0.0,0.0,0.0,0.0,0.0,0.0,0.0,0.0,0.0,0.0,0.0,0.0,0.0,0.0,0.0,0.0,0.0,0.0,0.0,0.0,0.0,0.0,0.0,0.0,0.0,0.0,0.0,0.0,0.0,0.0,-0.5575,-0.5505,-0.5529,-0.5679,-0.6052,-0.6013,0.0,0.0,0.0,0.0,0.0,0.0,0.0,0.0,0.0,0.0,0.0,0.0,0.0,0.0,0.0,0.0,0.0,0.0,0.0,0.0,0.0,0.0,0.0,0.0,0.0,0.0,0.0,0.0,0.0,0.0,0.0,0.0,0.0,0.0,0.0,0.0,0.0,0.0,0.0,0.0,0.0,0.0,0.0,0.0,0.0,0.0,0.0,0.0,0.0,0.0,0.0,0.0,0.0,0.0,0.0,0.0,0.0,0.0,0.0,0.0,0.0,0.0,0.0,0.0,0.0,0.0,0.0,0.0,0.0,0.0,0.0,0.0,0.0,0.0,0.0,0.0,0.0,0.0,0.0,0.0,0.0,0.0,0.0,0.0,0.0,0.0,0.0,0.0,0.0,0.0,0.0,0.0,0.0,0.0,0.0,0.0,0.0,0.0,0.0,0.0,0.0,0.0,0.0,0.0,0.0,0.0,0.0,0.0,0.0,-0.5214,-0.5157,-0.5214,-0.5365,-0.571,-0.573,0.0,0.0,0.0,0.0,0.0,0.0,0.0,0.0,0.0,0.0,0.0,0.0,0.0,0.0,0.0,0.0,0.0,0.0,0.0,0.0,0.0,0.0,0.0,0.0,0.0,0.0,0.0,0.0,0.0,0.0,0.0,0.0,0.0,0.0,0.0,0.0,0.0,0.0,0.0,0.0,0.0,0.0,0.0,0.0,0.0,0.0,0.0,0.0,0.0,0.0,0.0,0.0,0.0,0.0,0.0,0.0,0.0,0.0,0.0,0.0,0.0,0.0,0.0,0.0,0.0,0.0,0.0,0.0,0.0,0.0,0.0,0.0,0.0,0.0,0.0,0.0,0.0,0.0,0.0,0.0,0.0,0.0,0.0,0.0,0.0,0.0,0.0,0.0,0.0,0.0,0.0,0.0,0.0,0.0,0.0,0.0,0.0,0.0,0.0,0.0,0.0,0.0,0.0,0.0,0.0,0.0,0.0,0.0,-0.4726,-0.4806,-0.4798,-0.4901,-0.5106,-0.5428,-0.5524,0.0,0.0,0.0,0.0,0.0,0.0,0.0,0.0,0.0,0.0,0.0,0.0,0.0,0.0,0.0,0.0,0.0,0.0,0.0,0.0,0.0,0.0,0.0,0.0,0.0,0.0,0.0,0.0,0.0,0.0,0.0,0.0,0.0,0.0,0.0,0.0,0.0,0.0,0.0,0.0,0.0,0.0,0.0,0.0,0.0,0.0,0.0,0.0,0.0,0.0,0.0,0.0,0.0,0.0,0.0,0.0,0.0,0.0,0.0,0.0,0.0,0.0,0.0,0.0,0.0,0.0,0.0,0.0,0.0,0.0,0.0,0.0,0.0,0.0,0.0,0.0,0.0,0.0,0.0,0.0,0.0,0.0,0.0,0.0,0.0,0.0,0.0,0.0,0.0,0.0,0.0,0.0,0.0,0.0,0.0,0.0,0.0,0.0,0.0,0.0,0.0,0.0,0.0,0.0,0.0,0.0,0.0,0.0,0.0,-0.4529,-0.4662,-0.4804,-0.491,-0.5303,-0.5346,0.0,0.0,0.0,0.0,0.0,0.0,0.0,0.0,0.0,0.0,0.0,0.0,0.0,0.0,0.0,0.0,0.0,0.0,0.0,0.0,0.0,0.0,0.0,0.0,0.0,0.0,0.0,0.0,0.0,0.0,0.0,0.0,0.0,0.0,0.0,0.0,0.0,0.0,0.0,0.0,0.0,0.0,0.0,0.0,0.0,0.0,0.0,0.0,0.0,0.0,0.0,0.0,0.0,0.0,0.0,0.0,0.0,0.0,0.0,0.0,0.0,0.0,0.0,0.0,0.0,0.0,0.0,0.0,0.0,0.0,0.0,0.0,0.0,0.0,0.0,0.0,0.0,0.0,0.0,0.0,0.0,0.0,0.0,0.0,0.0,0.0,0.0,0.0,0.0,0.0,0.0,0.0,0.0,0.0,0.0,0.0,0.0,0.0,0.0,0.0,0.0,0.0,0.0,0.0,0.0,0.0,0.0,0.0,0.0,-0.4184,-0.4366,-0.4553,-0.4768,-0.5139,-0.5287,-0.518,0.0,0.0,0.0,0.0,0.0,0.0,0.0,0.0,0.0,0.0,0.0,0.0,0.0,0.0,0.0,0.0,0.0,0.0,0.0,0.0,0.0,0.0,0.0,0.0,0.0,0.0,0.0,0.0,0.0,0.0,0.0,0.0,0.0,0.0,0.0,0.0,0.0,0.0,0.0,0.0,0.0,0.0,0.0,0.0,0.0,0.0,0.0,0.0,0.0,0.0,0.0,0.0,0.0,0.0,0.0,0.0,0.0,0.0,0.0,0.0,0.0,0.0,0.0,0.0,0.0,0.0,0.0,0.0,0.0,0.0,0.0,0.0,0.0,0.0,0.0,0.0,0.0,0.0,0.0,0.0,0.0,0.0,0.0,0.0,0.0,0.0,0.0,0.0,0.0,0.0,0.0,0.0,0.0,0.0,0.0,0.0,0.0,0.0,0.0,0.0,0.0,0.0,0.0,0.0,0.0,0.0,0.0,0.0,-0.3785,-0.4,-0.4297,-0.4681,-0.497,-0.5242,0.0,0.0,0.0,0.0,0.0,0.0,0.0,0.0,0.0,0.0,0.0,0.0,0.0,0.0,0.0,0.0,0.0,0.0,0.0,0.0,0.0,0.0,0.0,0.0,0.0,0.0,0.0,0.0,0.0,0.0,0.0,0.0,0.0,0.0,0.0,0.0,0.0,0.0,0.0,0.0,0.0,0.0,0.0,0.0,0.0,0.0,0.0,0.0,0.0,0.0,0.0,0.0,0.0,0.0,0.0,0.0,0.0,0.0,0.0,0.0,0.0,0.0,0.0,0.0,0.0,0.0,0.0,0.0,0.0,0.0,0.0,0.0,0.0,0.0,0.0,0.0,0.0,0.0,0.0,0.0,0.0,0.0,0.0,0.0,0.0,0.0,0.0,0.0,0.0,0.0,0.0,0.0,0.0,0.0,0.0,0.0,0.0,0.0,0.0,0.0,0.0,0.0,0.0,0.0,0.0,0.0,0.0,0.0,0.0,-0.3435,-0.3802,-0.418,-0.4481,-0.4873,-0.5189,0.0,0.0,0.0,0.0,0.0,0.0,0.0,0.0,0.0,0.0,0.0,0.0,0.0,0.0,0.0,0.0,0.0,0.0,0.0,0.0,0.0,0.0,0.0,0.0,0.0,0.0,0.0,0.0,0.0,0.0,0.0,0.0,0.0,0.0,0.0,0.0,0.0,0.0,0.0,0.0,0.0,0.0,0.0,0.0,0.0,0.0,0.0,0.0,0.0,0.0,0.0,0.0,0.0,0.0,0.0,0.0,0.0,0.0,0.0,0.0,0.0,0.0,0.0,0.0,0.0,0.0,0.0,0.0,0.0,0.0,0.0,0.0,0.0,0.0,0.0,0.0,0.0,0.0,0.0,0.0,0.0,0.0,0.0,0.0,0.0,0.0,0.0,0.0,0.0,0.0,0.0,0.0,0.0,0.0,0.0,0.0,0.0,0.0,0.0,0.0,0.0,0.0,0.0,0.0,0.0,0.0,0.0,0.0,-0.3281,-0.3339,-0.3646,-0.4029,-0.4475,-0.4937,-0.5319,0.0,0.0,0.0,0.0,0.0,0.0,0.0,0.0,0.0,0.0,0.0,0.0,0.0,0.0,0.0,0.0,0.0,0.0,0.0,0.0,0.0,0.0,0.0,0.0,0.0,0.0,0.0,0.0,0.0,0.0,0.0,0.0,0.0,0.0,0.0,0.0,0.0,0.0,0.0,0.0,0.0,0.0,0.0,0.0,0.0,0.0,0.0,0.0,0.0,0.0,0.0,0.0,0.0,0.0,0.0,0.0,0.0,0.0,0.0,0.0,0.0,0.0,0.0,0.0,0.0,0.0,0.0,0.0,0.0,0.0,0.0,0.0,0.0,0.0,0.0,0.0,0.0,0.0,0.0,0.0,0.0,0.0,0.0,0.0,0.0,0.0,0.0,0.0,0.0,0.0,0.0,0.0,0.0,0.0,0.0,0.0,0.0,0.0,0.0,0.0,0.0,0.0,0.0,0.0,0.0,0.0,0.0,0.0,-0.3187,-0.3408,-0.3588,-0.3971,-0.4643,-0.5003,-0.5514,0.0,0.0,0.0,0.0,0.0,0.0,0.0,0.0,0.0,0.0,0.0,0.0,0.0,0.0,0.0,0.0,0.0,0.0,0.0,0.0,0.0,0.0,0.0,0.0,0.0,0.0,0.0,0.0,0.0,0.0,0.0,0.0,0.0,0.0,0.0,0.0,0.0,0.0,0.0,0.0,0.0,0.0,0.0,0.0,0.0,0.0,0.0,0.0,0.0,0.0,0.0,0.0,0.0,0.0,0.0,0.0,0.0,0.0,0.0,0.0,0.0,0.0,0.0,0.0,0.0,0.0,0.0,0.0,0.0,0.0,0.0,0.0,0.0,0.0,0.0,0.0,0.0,0.0,0.0,0.0,0.0,0.0,0.0,0.0,0.0,0.0,0.0,0.0,0.0,0.0,0.0,0.0,0.0,0.0,0.0,0.0,0.0,0.0,0.0,0.0,0.0,0.0,0.0,0.0,0.0,0.0,0.0,0.0,-0.3314,-0.3553,-0.3907,-0.4368,-0.4986,-0.508,-0.5422,0.0,0.0,0.0,0.0,0.0,0.0,0.0,0.0,0.0,0.0,0.0,0.0,0.0,0.0,0.0,0.0,0.0,0.0,0.0,0.0,0.0,0.0,0.0,0.0,0.0,0.0,0.0,0.0,0.0,0.0,0.0,0.0,0.0,0.0,0.0,0.0,0.0,0.0,0.0,0.0,0.0,0.0,0.0,0.0,0.0,0.0,0.0,0.0,-1.5389,0.0,0.0,0.0,0.0,0.0,0.0,0.0,0.0,0.0,0.0,0.0,0.0,0.0,0.0,0.0,0.0,0.0,0.0,0.0,0.0,0.0,0.0,0.0,0.0,0.0,0.0,0.0,0.0,0.0,0.0,0.0,0.0,0.0,0.0,0.0,0.0,0.0,0.0,0.0,0.0,0.0,0.0,0.0,0.0,0.0,0.0,0.0,0.0,0.0,0.0,0.0,0.0,0.0,0.0,0.0,0.0,0.0,0.0,0.0,-0.3324,-0.3572,-0.3983,-0.451,-0.5074,-0.5384,-0.579,0.0,0.0,0.0,0.0,0.0,0.0,0.0,0.0,0.0,0.0,0.0,0.0,0.0,0.0,0.0,0.0,0.0,0.0,0.0,0.0,0.0,0.0,0.0,0.0,0.0,0.0,0.0,0.0,0.0,0.0,0.0,0.0,0.0,0.0,0.0,0.0,0.0,0.0,0.0,0.0,0.0,0.0,0.0,0.0,0.0,0.0,0.0,0.0,0.0,0.0,0.0,0.0,0.0,0.0,0.0,0.0,0.0,0.0,0.0,0.0,0.0,0.0,0.0,0.0,0.0,0.0,0.0,0.0,0.0,0.0,0.0,0.0,0.0,0.0,0.0,0.0,0.0,0.0,0.0,0.0,0.0,0.0,0.0,0.0,0.0,0.0,0.0,0.0,0.0,0.0,0.0,0.0,0.0,0.0,0.0,0.0,0.0,0.0,0.0,0.0,0.0,0.0,0.0,0.0,0.0,0.0,0.0,-0.3139,-0.3354,-0.3682,-0.4137,-0.4601,-0.518,-0.5788,-0.6222,-0.6319,0.0,0.0,0.0,0.0,0.0,0.0,0.0,0.0,0.0,0.0,0.0,0.0,0.0,0.0,0.0,0.0,0.0,0.0,0.0,0.0,0.0,0.0,0.0,0.0,0.0,0.0,0.0,0.0,0.0,0.0,0.0,0.0,0.0,0.0,0.0,0.0,0.0,0.0,-1.2582,-1.3417,0.0,0.0,0.0,0.0,0.0,0.0,0.0,0.0,-1.6117,0.0,0.0,0.0,0.0,0.0,0.0,0.0,0.0,0.0,0.0,0.0,0.0,0.0,0.0,0.0,0.0,0.0,0.0,0.0,0.0,0.0,0.0,0.0,0.0,0.0,0.0,0.0,0.0,0.0,0.0,0.0,0.0,0.0,0.0,0.0,0.0,0.0,0.0,0.0,0.0,0.0,0.0,0.0,0.0,0.0,0.0,0.0,0.0,0.0,0.0,0.0,0.0,0.0,0.0,0.0,0.0,-0.3008,-0.3136,-0.3484,-0.4108,-0.4442,-0.4934,-0.5588,-0.6043,-0.6338,-0.6477,0.0,0.0,0.0,0.0,0.0,0.0,0.0,0.0,0.0,0.0,0.0,0.0,0.0,0.0,0.0,0.0,0.0,0.0,0.0,0.0,0.0,0.0,0.0,0.0,0.0,0.0,0.0,0.0,0.0,0.0,0.0,0.0,0.0,0.0,0.0,0.0,0.0,0.0,0.0,-1.4345,-1.5011,0.0,0.0,0.0,0.0,0.0,0.0,0.0,0.0,-1.6332,0.0,0.0,0.0,0.0,0.0,0.0,0.0,0.0,0.0,0.0,0.0,0.0,0.0,0.0,0.0,0.0,0.0,0.0,0.0,0.0,0.0,0.0,0.0,0.0,0.0,0.0,0.0,0.0,0.0,0.0,0.0,0.0,0.0,0.0,0.0,0.0,0.0,0.0,0.0,0.0,0.0,0.0,0.0,0.0,0.0,0.0,0.0,0.0,0.0,0.0,0.0,0.0,0.0,0.0,0.0,-0.2998,-0.321,-0.3572,-0.4166,-0.4739,-0.5294,-0.5695,-0.637,-0.6722,0.0,0.0,0.0,0.0,0.0,0.0,0.0,0.0,0.0,0.0,0.0,0.0,0.0,0.0,0.0,0.0,0.0,0.0,0.0,0.0,0.0,0.0,0.0,0.0,0.0,0.0,0.0,0.0,0.0,0.0,0.0,0.0,0.0,0.0,0.0,0.0,0.0,0.0,0.0,0.0,-1.4661,-1.499,-1.5151,0.0,0.0,0.0,0.0,0.0,0.0,-1.6636,-1.6803,0.0,0.0,0.0,0.0,0.0,0.0,0.0,0.0,0.0,0.0,0.0,0.0,0.0,0.0,0.0,0.0,0.0,0.0,0.0,0.0,0.0,0.0,0.0,0.0,0.0,0.0,0.0,0.0,0.0,0.0,0.0,0.0,0.0,0.0,0.0,0.0,0.0,0.0,0.0,0.0,0.0,0.0,0.0,0.0,0.0,0.0,0.0,0.0,0.0,0.0,0.0,0.0,0.0,0.0,0.0,-0.3007,-0.3324,-0.3744,-0.429,-0.505,-0.5619,-0.5876,-0.6758,-0.7018,0.0,0.0,0.0,0.0,0.0,0.0,0.0,0.0,0.0,0.0,0.0,0.0,0.0,0.0,0.0,0.0,0.0,0.0,0.0,0.0,0.0,0.0,0.0,0.0,0.0,0.0,0.0,0.0,0.0,0.0,0.0,0.0,0.0,0.0,0.0,0.0,0.0,0.0,0.0,0.0,0.0,-1.4909,-1.5505,-1.5669,0.0,0.0,0.0,0.0,-1.7021,-1.7222,0.0,0.0,0.0,0.0,0.0,0.0,0.0,0.0,0.0,0.0,0.0,0.0,0.0,0.0,0.0,0.0,0.0,0.0,0.0,0.0,0.0,0.0,0.0,0.0,0.0,0.0,0.0,0.0,0.0,0.0,0.0,0.0,0.0,0.0,0.0,0.0,0.0,0.0,0.0,0.0,0.0,0.0,0.0,0.0,0.0,0.0,0.0,0.0,0.0,0.0,0.0,0.0,0.0,0.0,0.0,0.0,-0.3007,-0.3421,-0.3968,-0.4652,-0.5307,-0.5926,-0.6588,-0.6976,-0.7124,0.0,0.0,0.0,0.0,0.0,0.0,0.0,0.0,0.0,0.0,0.0,0.0,0.0,0.0,0.0,0.0,0.0,0.0,0.0,0.0,0.0,0.0,0.0,0.0,0.0,0.0,0.0,0.0,0.0,0.0,0.0,0.0,0.0,0.0,0.0,0.0,0.0,0.0,0.0,0.0,0.0,-1.5531,-1.6504,-1.7063,-1.7601,0.0,0.0,-1.8323,-1.8585,-1.8407,0.0,0.0,0.0,0.0,0.0,0.0,0.0,0.0,0.0,0.0,0.0,0.0,0.0,0.0,0.0,0.0,0.0,0.0,0.0,0.0,0.0,0.0,0.0,0.0,0.0,0.0,0.0,0.0,0.0,0.0,0.0,0.0,0.0,0.0,0.0,0.0,0.0,0.0,0.0,0.0,0.0,0.0,0.0,0.0,0.0,0.0,0.0,0.0,0.0,0.0,0.0,0.0,0.0,0.0,0.0,-0.2959,-0.3138,-0.3589,-0.4207,-0.484,-0.5706,-0.6278,-0.6708,-0.7255,-0.7424,0.0,0.0,0.0,0.0,0.0,0.0,0.0,0.0,0.0,0.0,0.0,0.0,0.0,0.0,0.0,0.0,0.0,0.0,0.0,0.0,0.0,0.0,0.0,0.0,0.0,0.0,0.0,0.0,0.0,0.0,0.0,0.0,0.0,0.0,0.0,0.0,0.0,0.0,0.0,0.0,0.0,0.0,-1.6979,-1.7612,0.0,0.0,0.0,-1.8519,-1.8717,0.0,0.0,0.0,0.0,0.0,0.0,0.0,0.0,0.0,0.0,0.0,0.0,0.0,0.0,0.0,0.0,0.0,0.0,0.0,0.0,0.0,0.0,0.0,0.0,0.0,0.0,0.0,0.0,0.0,0.0,0.0,0.0,0.0,0.0,0.0,0.0,0.0,0.0,0.0,0.0,0.0,0.0,0.0,0.0,0.0,0.0,0.0,0.0,0.0,0.0,0.0,0.0,0.0,0.0,0.0,0.0,0.0,-0.322,-0.3852,-0.4435,-0.5143,-0.6029,-0.6676,-0.6957,-0.7589,0.0,0.0,0.0,0.0,0.0,0.0,0.0,0.0,0.0,0.0,0.0,0.0,0.0,0.0,0.0,0.0,0.0,0.0,0.0,0.0,0.0,0.0,0.0,0.0,0.0,0.0,0.0,-0.9818,0.0,0.0,0.0,0.0,0.0,0.0,0.0,0.0,0.0,0.0,0.0,0.0,0.0,0.0,-1.6351,-1.7438,-1.8053,-1.8455,0.0,0.0,-1.8805,-1.8995,-1.8648,-1.8491,0.0,0.0,0.0,0.0,0.0,0.0,0.0,0.0,0.0,0.0,0.0,0.0,0.0,0.0,0.0,0.0,0.0,0.0,0.0,0.0,0.0,0.0,0.0,0.0,0.0,0.0,0.0,0.0,0.0,0.0,0.0,0.0,0.0,0.0,0.0,0.0,0.0,0.0,0.0,0.0,0.0,0.0,0.0,0.0,0.0,0.0,0.0,0.0,0.0,0.0,0.0,0.0,0.0,0.0,0.0,-0.3407,-0.4161,-0.4837,-0.5446,-0.6357,-0.7076,-0.7623,-0.8154,-0.8359,0.0,0.0,0.0,0.0,0.0,0.0,0.0,0.0,0.0,0.0,0.0,0.0,0.0,0.0,0.0,0.0,0.0,0.0,0.0,0.0,0.0,0.0,0.0,0.0,0.0,0.0,0.0,0.0,0.0,0.0,0.0,0.0,0.0,0.0,0.0,0.0,0.0,0.0,0.0,0.0,0.0,-1.6873,-1.8003,-1.8618,-1.9145,0.0,0.0,-1.9813,-2.0029,-1.9391,-1.9021,-1.9458,0.0,0.0,0.0,0.0,0.0,0.0,0.0,0.0,0.0,0.0,0.0,0.0,0.0,0.0,0.0,0.0,0.0,0.0,0.0,0.0,0.0,0.0,0.0,0.0,0.0,0.0,0.0,0.0,0.0,0.0,0.0,0.0,0.0,0.0,0.0,0.0,0.0,0.0,0.0,0.0,0.0,0.0,0.0,0.0,0.0,0.0,0.0,0.0,0.0,0.0,0.0,0.0,0.0,-0.3271,-0.3756,-0.4369,-0.5011,-0.5755,-0.674,-0.7389,-0.7682,-0.8462,-0.8709,0.0,0.0,0.0,0.0,0.0,0.0,0.0,0.0,0.0,0.0,0.0,0.0,0.0,0.0,0.0,0.0,0.0,0.0,0.0,0.0,0.0,0.0,0.0,0.0,0.0,0.0,0.0,0.0,-1.3385,-1.4262,-1.4794,0.0,0.0,0.0,0.0,0.0,0.0,0.0,0.0,0.0,0.0,-1.7451,-1.8568,-1.9158,0.0,0.0,-1.9862,-1.9978,-2.0182,-1.9538,-1.9178,-1.9526,-1.8425,0.0,0.0,0.0,0.0,0.0,0.0,0.0,0.0,0.0,0.0,0.0,0.0,0.0,0.0,0.0,0.0,0.0,0.0,0.0,0.0,0.0,0.0,0.0,0.0,0.0,0.0,0.0,0.0,0.0,0.0,0.0,0.0,0.0,0.0,0.0,0.0,0.0,0.0,0.0,0.0,0.0,0.0,0.0,0.0,0.0,0.0,0.0,0.0,0.0,0.0,0.0,0.0,-0.3389,-0.3979,-0.4554,-0.5239,-0.6061,-0.7117,-0.78,-0.8149,-0.8876,-0.9189,0.0,0.0,0.0,0.0,0.0,0.0,0.0,0.0,0.0,0.0,0.0,0.0,0.0,0.0,0.0,0.0,0.0,0.0,0.0,0.0,0.0,0.0,0.0,0.0,0.0,0.0,0.0,0.0,-1.4435,-1.519,-1.5463,0.0,0.0,0.0,0.0,0.0,0.0,0.0,0.0,0.0,0.0,-1.8012,-1.8894,-1.9472,-1.9798,-1.9875,-1.9939,-2.008,-2.0283,-1.9656,-1.9243,-1.9615,0.0,0.0,0.0,0.0,0.0,0.0,0.0,0.0,0.0,0.0,0.0,0.0,0.0,0.0,0.0,0.0,0.0,0.0,0.0,0.0,0.0,0.0,0.0,0.0,0.0,0.0,0.0,0.0,0.0,0.0,-0.2167,0.0,0.0,0.0,0.0,0.0,0.0,0.0,0.0,0.0,0.0,0.0,0.0,0.0,0.0,0.0,0.0,0.0,0.0,0.0,0.0,0.0,0.0,-0.3389,-0.3986,-0.4827,-0.564,-0.6409,-0.7433,-0.8318,-0.8991,-0.9505,-0.9903,-1.041,0.0,0.0,0.0,0.0,0.0,0.0,0.0,0.0,0.0,0.0,0.0,0.0,0.0,0.0,0.0,0.0,0.0,0.0,0.0,0.0,0.0,0.0,0.0,0.0,0.0,0.0,-1.4588,-1.5364,-1.5682,0.0,0.0,0.0,0.0,0.0,0.0,0.0,0.0,0.0,0.0,-1.767,-1.8535,-1.8957,-1.9472,-1.9875,-1.9964,-2.0003,-2.0156,-2.0529,-1.9826,-1.9351,0.0,0.0,0.0,0.0,0.0,0.0,0.0,0.0,0.0,0.0,0.0,0.0,0.0,0.0,0.0,0.0,0.0,0.0,0.0,0.0,0.0,0.0,0.0,0.0,0.0,0.0,0.0,-0.2154,-0.2189,0.0,0.0,0.0,0.0,0.0,0.0,0.0,0.0,0.0,0.0,0.0,-0.2273,-0.2234,0.0,0.0,0.0,0.0,0.0,0.0,0.0,0.0,0.0,0.0,0.0,0.0,-0.3713,-0.433,-0.5147,-0.593,-0.6713,-0.7807,-0.8631,-0.9248,-0.9865,-1.0226,-1.0308,0.0,0.0,0.0,0.0,0.0,0.0,0.0,0.0,0.0,0.0,0.0,0.0,0.0,0.0,0.0,0.0,0.0,0.0,0.0,0.0,0.0,0.0,0.0,0.0,0.0,-1.4509,0.0,0.0,0.0,0.0,0.0,0.0,0.0,0.0,0.0,0.0,0.0,-1.687,-1.7454,-1.8446,-1.9226,-1.9737,-1.9965,-2.0105,0.0,0.0,0.0,0.0,0.0,0.0,0.0,0.0,0.0,0.0,0.0,0.0,0.0,0.0,-2.0407,-1.9442,-1.939,-1.9454,-1.9528,0.0,0.0,0.0,0.0,0.0,0.0,0.0,0.0,0.0,0.0,0.0,0.0,0.0,0.0,-0.1878,0.0,-0.1875,0.0,0.0,0.0,0.0,0.0,0.0,0.0,0.0,-0.2114,-0.2176,-0.2242,-0.2285,-0.2373,0.0,-0.2507,-0.2513,0.0,0.0,0.0,0.0,0.0,0.0,0.0,0.0,-0.3984,-0.4664,-0.5449,-0.6285,-0.7141,-0.8248,-0.9116,-0.9816,-1.0682,-1.0983,-1.0675,-1.0863,-1.062,0.0,0.0,0.0,0.0,0.0,0.0,0.0,0.0,0.0,0.0,0.0,0.0,0.0,0.0,0.0,0.0,0.0,0.0,0.0,0.0,0.0,0.0,0.0,-1.5635,0.0,0.0,0.0,0.0,0.0,0.0,0.0,0.0,0.0,-1.5997,-1.6794,-1.7697,-1.8332,-1.9126,-1.9788,-2.0294,0.0,0.0,0.0,0.0,0.0,0.0,0.0,-2.0804,-2.1032,-2.0954,-2.1007,-2.1486,-2.1922,-2.2443,-2.3054,0.0,0.0,-2.1188,-2.0941,-2.1055,-2.1175,-2.1557,-2.1853,-2.1938,-2.2232,-2.2572,0.0,0.0,0.0,0.0,0.0,0.0,0.0,0.0,-0.1523,-0.1567,0.0,-0.1733,0.0,0.0,0.0,0.0,0.0,-0.1963,0.0,0.0,-0.2068,-0.2252,-0.2557,-0.2561,-0.2718,-0.2971,-0.2858,-0.2846,-0.2912,-0.2844,0.0,0.0,0.0,0.0,0.0,0.0,-0.418,-0.4919,-0.5791,-0.6702,-0.7677,-0.8754,-0.9837,-1.0801,-1.1787,-1.2079,-1.1649,-1.1601,-1.1641,-1.1763,-1.0522,0.0,0.0,0.0,0.0,0.0,0.0,0.0,0.0,0.0,0.0,0.0,0.0,0.0,0.0,0.0,0.0,0.0,0.0,0.0,0.0,-1.6368,0.0,0.0,0.0,0.0,0.0,0.0,0.0,0.0,0.0,0.0,-1.758,-1.7809,-1.8301,-1.9141,0.0,0.0,0.0,0.0,-2.0675,-2.0807,-2.0954,-2.114,-2.139,-2.1259,-2.1209,-2.1478,0.0,0.0,-2.2664,-2.3111,-2.3803,-2.5194,-2.5598,-2.517,-2.309,-2.2815,-2.2902,-2.308,-2.3761,-2.4287,-2.4462,-2.4933,-2.5395,-0.0055,0.0,0.0,0.0,0.0,-0.1025,-0.1164,-0.1345,-0.1393,-0.1386,-0.1382,-0.1426,0.0,0.0,0.0,0.0,0.0,0.0,-0.1575,-0.1528,-0.1618,-0.1779,-0.1967,-0.212,-0.2321,-0.257,-0.2742,-0.2862,-0.2978,-0.3242,-0.3202,-0.2826,0.0,0.0,0.0,0.0,-0.459,-0.5208,-0.6266,-0.72,-0.7973,-0.9178,-1.0327,-1.134,-1.2051,-1.2281,-1.1893,-1.2268,-1.2267,-1.183,-1.1755,0.0,0.0,0.0,0.0,0.0,0.0,0.0,0.0,0.0,0.0,0.0,0.0,0.0,0.0,0.0,0.0,0.0,0.0,0.0,-1.7012,-1.7326,-1.7413,0.0,0.0,0.0,0.0,0.0,0.0,0.0,0.0,0.0,-1.9976,-2.0006,-2.0113,0.0,0.0,-2.104,-2.1153,-2.1166,-2.1171,-2.1219,-2.1421,0.0,-2.1676,-2.1967,-2.2395,-2.3086,-2.3939,-2.4805,-2.5413,-2.561,-2.5895,-2.6513,-2.6823,-2.671,-2.6293,-2.6077,-2.607,-2.6246,-2.6557,-2.6821,-2.6877,-2.715,-2.7287,0.04,0.0108,-0.0209,-0.046,-0.0656,-0.0706,-0.0807,-0.0958,-0.0958,-0.0982,-0.0987,-0.1035,-0.1098,-0.1221,-0.144,0.0,0.0,0.0,-0.1376,-0.1303,-0.1364,-0.1508,-0.1739,-0.1847,-0.2107,-0.2525,-0.2735,-0.2923,-0.3092,-0.3499,-0.3465,-0.3153,0.0,0.0,-0.4108,-0.4598,-0.5097,-0.5672,-0.6791,-0.779,-0.851,-1.0043,-1.1228,-1.1963,-1.2402,-1.2635,-1.2522,-1.2801,-1.286,-1.2585,-1.2547,-1.2161,0.0,0.0,0.0,0.0,0.0,0.0,0.0,0.0,0.0,0.0,0.0,-1.1087,-1.2104,0.0,0.0,0.0,-1.6278,-1.7687,-1.8433,-1.8713,0.0,0.0,0.0,0.0,0.0,0.0,0.0,-2.0258,-2.0789,-2.1329,-2.1911,-2.2103,-2.1911,-2.1251,-2.1467,-2.1712,-2.1698,0.0,-2.2055,-2.2083,-2.2519,-2.2865,-2.2894,-2.3313,-2.3912,-2.4636,-2.5576,-2.6471,-2.7034,-2.7264,-2.7556,-2.7989,-2.8318,-2.8529,-2.866,-2.8674,-2.8467,-2.7972,-2.8256,-2.8556,-2.8573,-2.89,-2.9194,0.0928,0.0674,0.0108,-0.021,-0.0356,-0.0407,-0.0407,-0.0407,-0.0458,-0.0508,-0.0506,-0.0607,-0.0809,-0.1059,-0.1312,0.0,-0.1262,-0.1265,-0.1237,-0.128,-0.1283,-0.1416,-0.1738,-0.1796,-0.2076,-0.2635,-0.286,-0.3037,-0.3271,-0.3649,-0.3798,-0.3676,-0.4077,-0.437,-0.465,-0.509,-0.562,-0.6268,-0.7397,-0.8392,-0.9343,-1.1185,-1.2263,-1.2572,-1.2902,-1.3175,-1.3301,-1.3212,-1.3382,-1.3718,-1.3046,-1.2806,-1.311,0.0,0.0,0.0,0.0,0.0,0.0,0.0,0.0,0.0,0.0,0.0,0.0,0.0,0.0,0.0,-1.8332,0.0,-1.9839,-2.0423,0.0,0.0,0.0,-2.0124,-2.0782,-2.0775,-2.1001,-2.1679,0.0,0.0,-2.3408,-2.3922,-2.3635,-2.2042,-2.2158,-2.2433,-2.2419,-2.2927,-2.3209,-2.3268,-2.3955,-2.4572,-2.4505,-2.5059,-2.5597,-2.6031,-2.6561,-2.7243,-2.7926,-2.8359,-2.8902,-2.9444,-2.9968,-3.0211,-3.0301,-3.0423,-3.0239,-2.8731,-2.9148,-2.9715,-2.9692,-3.0239,-3.0657,0.1198,0.0929,0.0618,0.0275,-0.0109,-0.0219,-0.0328,-0.0383,-0.0438,-0.0432,-0.0421,-0.0473,-0.0518,-0.0655,-0.0655,-0.0756,-0.0909,-0.0778,-0.0845,-0.1014,-0.0985,-0.1169,-0.1459,-0.168,-0.1961,-0.2355,-0.2928,-0.3297,-0.3509,-0.3995,-0.4268,-0.431,-0.4696,-0.488,-0.484,-0.5383,-0.6034,-0.6737,-0.7966,-0.9451,-1.1128,-1.2143,-1.274,-1.3038,-1.3564,-1.368,-1.333,-1.3651,-1.3747,-1.3518,-1.3741,-1.36,-1.2992,-1.3096,0.0,0.0,0.0,0.0,0.0,0.0,0.0,0.0,0.0,-1.439,-1.5034,0.0,-1.6726,0.0,-1.951,-2.0662,-2.1171,-2.1365,0.0,0.0,-2.1321,-2.1485,-2.2128,-2.2606,-2.3132,-2.3761,-2.4432,-2.4897,-2.506,-2.5131,-2.5131,-2.4758,-2.4425,-2.4288,-2.4288,-2.4341,-2.4514,-2.463,-2.4898,-2.5184,-2.5505,-2.6346,-2.7134,-2.7333,-2.8162,-2.8933,-2.9214,-2.9594,-2.9891,-3.0158,-3.0396,-3.0584,-3.0593,-3.0763,-3.0813,-3.0426,-3.047,-3.0603,-3.0603,-3.0754,-3.0895,0.1696,0.135,0.1024,0.0673,0.0393,0.0112,-0.0112,-0.0224,-0.0224,-0.0222,-0.0218,-0.0272,-0.0323,-0.037,-0.0476,-0.0636,-0.0742,-0.0756,-0.0817,-0.0983,-0.1001,-0.1178,-0.1515,-0.1682,-0.2032,-0.2518,-0.2971,-0.3375,-0.3781,-0.4203,-0.4471,-0.4574,-0.4919,-0.5129,-0.5235,-0.577,-0.642,-0.709,-0.8477,-1.0014,-1.1677,-1.2305,-1.2948,-1.3523,-1.3926,-1.4063,-1.4038,-1.4062,-1.4115,-1.4075,-1.4194,-1.4222,-1.3985,-1.4085,-1.4,0.0,0.0,0.0,0.0,0.0,0.0,0.0,0.0,0.0,0.0,0.0,-1.8612,-1.9914,-2.1231,-2.2158,-2.2517,-2.3071,-2.3445,-2.343,-2.3445,-2.3623,-2.4011,-2.4353,-2.4773,-2.5168,-2.5556,-2.5869,-2.6161,-2.6285,-2.6468,-2.6788,-2.6642,-2.6176,-2.5464,-2.549,-2.5775,-2.5859,-2.6266,-2.6672,-2.6968,-2.7767,-2.8385,-2.8553,-2.9259,-2.9826,-2.9957,-3.0248,-3.0459,-3.0609,-3.0775,-3.0935,-3.0954,-3.1099,-3.1201,-3.1213,-3.1207,-3.1151,-3.1095,-3.1151,-3.1151,0.2375,0.1947,0.143,0.1126,0.0898,0.0449,0.0168,0.0,0.0,0.0,0.0,-0.0112,-0.0168,-0.0168,-0.0505,-0.0617,-0.0673,-0.0841,-0.0954,-0.1122,-0.1122,-0.1403,-0.1797,-0.1853,-0.2224,-0.2874,-0.3125,-0.348,-0.4081,-0.4341,-0.4588,-0.481,-0.5016,-0.5323,-0.5652,-0.6173,-0.6815,-0.758,-0.8996,-1.037,-1.158,-1.2238,-1.2999,-1.3903,-1.4121,-1.4449,-1.4943,-1.4538,-1.4539,-1.4963,-1.4641,-1.4771,-1.5313,-1.5082,-1.4865,0.0,-1.4756,0.0,0.0,0.0,0.0,0.0,0.0,0.0,0.0,-1.9331,-2.0715,-2.1884,-2.3158,-2.3893,-2.3893,-2.4957,-2.5661,-2.5646,-2.5661,-2.5723,-2.5938,-2.5952,-2.6044,-2.6275,-2.6306,-2.6553,-2.7126,-2.73,-2.7639,-2.8117,-2.8273,-2.7841,-2.6625,-2.6697,-2.7016,-2.7048,-2.7791,-2.8356,-2.8701,-2.9088,-2.9438,-2.9572,-2.9968,-3.0316,-3.0351,-3.0584,-3.0833,-3.0922,-3.1083,-3.1252,-3.1257,-3.1401,-3.1504,-3.1538,-3.1555,-3.1483,-3.1389,-3.1406,-3.1517,0.3074,0.2378,0.2129,0.1723,0.1178,0.0897,0.0505,0.0168,0.0056,0.0,0.0,0.0,-0.0056,-0.0056,-0.0224,-0.0393,-0.0449,-0.0785,-0.101,-0.1122,-0.1403,-0.1628,-0.1797,-0.2186,-0.2565,-0.2936,-0.3555,-0.4022,-0.4333,-0.4758,-0.5067,-0.5241,-0.5301,-0.5506,-0.5775,0.0,0.0,0.0,-0.9681,-1.0555,-1.151,-1.2398,-1.318,-1.3771,-1.4541,0.0,-1.5028,-1.5243,-1.5458,-1.552,-1.5408,0.0,0.0,0.0,0.0,0.0,0.0,0.0,0.0,0.0,0.0,0.0,-1.9758,-1.9814,-1.9441,-2.1564,-2.3149,-2.3435,-2.4714,-2.5546,-2.5546,-2.5773,-2.594,-2.5925,-2.594,-2.6137,-2.6699,-2.6856,-2.7164,-2.7727,-2.7885,-2.8027,-2.823,-2.8372,-2.8482,-2.8748,-2.8889,-2.8888,-2.8651,-2.828,-2.8213,-2.8367,-2.8856,-2.9326,-2.9556,-2.9826,-3.0044,-3.0182,-3.0418,-3.0683,-3.0723,-3.0982,-3.1179,-3.1217,-3.1354,-3.1492,-3.1507,-3.1564,-3.1631,-3.1711,-3.1783,-3.1748,-3.1579,-3.1579,-3.1596,0.3731,0.0,0.2682,0.2251,0.0,0.129,0.0954,0.0729,0.0336,0.0168,0.0112,0.0056,0.0,0.0,-0.0224,-0.0336,-0.0449,-0.0785,-0.1122,-0.1347,-0.1572,-0.1909,-0.2245,-0.2563,-0.2915,-0.3306,-0.3843,-0.4278,-0.459,-0.4923,-0.5212,-0.5512,-0.5478,-0.5718,-0.606,-0.6771,-0.7782,-0.9065,-0.9604,-1.0385,-1.1319,-1.213,-1.3026,-1.3968,-1.4706,0.0,0.0,0.0,0.0,0.0,0.0,0.0,0.0,0.0,0.0,-1.7925,-1.8461,-1.8948,-1.9301,-1.9778,-2.0355,-2.11,-2.208,-2.243,-2.1862,-2.3716,-2.4909,-2.494,-2.5925,-2.6611,-2.6626,-2.6963,-2.7177,-2.7162,-2.7177,-2.7362,-2.7701,-2.7871,-2.8105,-2.8449,-2.867,-2.8779,-2.892,-2.9013,-2.9152,-2.9227,-2.9364,-2.9515,-2.9576,-2.9289,-2.9091,-2.9293,-2.962,-2.991,-3.0107,-3.0326,-3.0535,-3.0658,-3.0942,-3.114,-3.1123,-3.1372,-3.1551,-3.1584,-3.1691,-3.1819,-3.1863,-3.1882,-3.1987,-3.2039,-3.2126,-3.2197,-3.2073,-3.1984,-3.1912,0.4442,0.3686,0.3292,0.2838,0.2352,0.1738,0.1458,0.1346,0.0,0.0,0.0,0.0112,0.0056,0.0,-0.028,-0.0393,-0.0449,-0.0898,-0.129,-0.1572,-0.1797,-0.2132,-0.2639,-0.2836,-0.3223,-0.3689,-0.4058,-0.4437,-0.4824,-0.5024,-0.5277,-0.5572,-0.5594,-0.5827,-0.6404,-0.7263,-0.8049,-0.8804,-0.9384,-1.0135,-1.1072,-1.1781,-1.2752,-1.4071,-1.4763,-1.5568,-1.6592,-1.6634,-1.6848,-1.7338,-1.7369,-1.7666,-1.8279,-1.8983,-1.9475,-1.9682,-2.0298,-2.078,-2.1122,-2.1436,-2.1976,-2.2716,-2.4089,-2.4709,-2.4292,-2.5468,-2.6291,-2.6337,-2.7057,-2.7487,-2.755,-2.8137,-2.8541,-2.8541,-2.8541,-2.8573,-2.8684,-2.8804,-2.8852,-2.8998,-2.9146,-2.9265,-2.9409,-2.9515,-2.9649,-2.9722,-2.9881,-3.0027,-3.0103,-2.9874,-2.9742,-3.0027,-3.0203,-3.0389,-3.0633,-3.0821,-3.0982,-3.114,-3.1428,-3.1596,-3.1671,-3.1783,-3.1906,-3.1949,-3.2087,-3.2171,-3.223,-3.229,-3.2393,-3.2419,-3.2539,-3.2623,-3.2654,-3.2539,-3.2438,0.529,0.4658,0.4212,0.3717,0.3188,0.2577,0.2071,0.168,0.0952,0.0673,0.0617,0.0336,0.0168,0.0168,-0.0224,-0.0393,-0.0449,-0.101,-0.129,-0.1403,-0.1905,-0.2184,-0.23,-0.2952,-0.3347,-0.3574,-0.4184,-0.4631,-0.4815,-0.516,-0.5415,-0.5568,-0.5594,-0.5989,-0.6812,-0.7413,-0.8103,-0.8956,-0.9474,-1.0108,-1.074,-1.1766,-1.2657,-1.3432,-1.473,-1.5844,-1.6644,-1.7407,-1.8097,-1.8708,-1.8629,-1.882,-1.933,-1.9678,-2.0074,-2.0651,-2.1222,-2.1672,-2.2072,-2.2809,-2.3646,-2.4571,-2.5888,-2.6197,-2.5284,-2.6516,-2.7395,-2.7564,-2.8217,-2.8732,-2.8794,-2.8935,-2.8998,-2.8982,-2.8998,-2.9045,-2.9167,-2.9312,-2.9422,-2.9486,-2.962,-2.9778,-2.9881,-3.0017,-3.013,-3.0225,-3.041,-3.0634,-3.0708,-3.0465,-3.0379,-3.0617,-3.0712,-3.0913,-3.1227,-3.1389,-3.1504,-3.1748,-3.1912,-3.2037,-3.2091,-3.2197,-3.2302,-3.237,-3.2439,-3.2511,-3.262,-3.266,-3.278,-3.2872,-3.2975,-3.3055,-3.3111,-3.3111,-3.3081,0.593,0.527,0.4841,0.4368,0.3796,0.313,0.2685,0.2347,0.1792,0.1345,0.101,0.0617,0.0449,0.0449,0.0,-0.0168,-0.0224,-0.0785,-0.1122,-0.1234,-0.1738,-0.213,-0.2415,-0.2834,-0.3198,-0.3433,-0.4094,-0.4368,-0.4426,-0.4877,-0.5226,-0.5443,-0.5848,-0.6377,-0.7003,-0.7551,-0.819,-0.9001,-0.9518,-1.0179,-1.0922,-1.1745,-1.2647,-1.3578,-1.4677,-1.5834,-1.7167,-1.788,-1.8662,-1.9475,-1.975,-2.0119,-2.0655,-2.1089,-2.1567,-2.2162,-2.2697,-2.3163,-2.3522,-2.4209,-2.4818,-2.5362,-2.6326,-2.6855,-2.6805,-2.781,-2.8541,-2.8602,-2.9007,-2.9319,-2.938,-2.947,-2.9454,-2.9515,-2.947,-2.956,-2.9681,-2.9785,-2.9907,-3.0,-3.0186,-3.0319,-3.0435,-3.0551,-3.0675,-3.0781,-3.0998,-3.1157,-3.1312,-3.1246,-3.1153,-3.1196,-3.1179,-3.1403,-3.1733,-3.1894,-3.2002,-3.2197,-3.2352,-3.247,-3.2537,-3.2636,-3.2727,-3.2806,-3.2892,-3.2959,-3.302,-3.3156,-3.3265,-3.3354,-3.3426,-3.3512,-3.3569,-3.3662,-3.3625,0.6556,0.59,0.555,0.4936,0.4294,0.3574,0.3241,0.3072,0.2629,0.2128,0.1681,0.1121,0.0841,0.0785,0.0336,0.0112,0.0,-0.0505,-0.0841,-0.101,-0.1459,-0.1908,-0.225,-0.2605,-0.2878,-0.3134,-0.373,-0.4031,-0.4019,-0.4472,-0.4889,-0.5284,-0.6026,-0.6651,-0.709,-0.7646,-0.8283,-0.9001,-0.957,-1.0238,-1.1116,-1.1828,-1.2712,-1.3761,-1.4637,-1.578,-1.7311,-1.8066,-1.8933,-2.0051,-2.0598,-2.1199,-2.1813,-2.2388,-2.2934,-2.3436,-2.3952,-2.4395,-2.4815,-2.5262,-2.5605,-2.5828,-2.6515,-2.7208,-2.7859,-2.8679,-2.9283,-2.948,-2.9661,-2.975,-2.9793,-2.9897,-2.9941,-2.9968,-2.9968,-3.0027,-3.0146,-3.0277,-3.0379,-3.0535,-3.07,-3.0847,-3.0993,-3.1061,-3.1213,-3.1351,-3.1559,-3.1691,-3.1783,-3.1918,-3.1949,-3.1854,-3.1795,-3.1881,-3.2162,-3.23,-3.247,-3.2621,-3.2798,-3.2908,-3.2988,-3.3111,-3.3237,-3.3283,-3.3355,-3.3424,-3.3495,-3.3615,-3.3736,-3.3813,-3.385,-3.3947,-3.4049,-3.4105,-3.4092,0.7321,0.6835,0.6402,0.5559,0.4636,0.4132,0.3855,0.3685,0.3239,0.3021,0.2796,0.1737,0.129,0.1178,0.0617,0.0393,0.0336,-0.0224,-0.0449,-0.0505,-0.1066,-0.1347,-0.1519,-0.2086,-0.247,-0.2596,-0.3225,-0.3638,-0.3732,-0.4119,-0.461,-0.5277,-0.578,-0.6401,-0.7085,-0.7646,-0.8336,-0.9159,-0.974,-1.0399,-1.1267,-1.2017,-1.2764,-1.3587,-1.4805,-1.5889,-1.6916,-1.794,-1.9165,-2.0348,-2.0905,-2.1597,-2.2472,-2.2979,-2.3451,-2.394,-2.4343,-2.4855,-2.5497,-2.5754,-2.5937,-2.6274,-2.6925,-2.7358,-2.7618,-2.8302,-2.9164,-2.9897,-3.0201,-3.0218,-3.0384,-3.0426,-3.0426,-3.0426,-3.0426,-3.0493,-3.0699,-3.075,-3.0866,-3.1213,-3.1244,-3.1305,-3.149,-3.1542,-3.1691,-3.1948,-3.2055,-3.2197,-3.2371,-3.2424,-3.2511,-3.2545,-3.2462,-3.24,-3.2598,-3.2716,-3.289,-3.3154,-3.3243,-3.335,-3.3484,-3.3587,-3.366,-3.3746,-3.3803,-3.3899,-3.3974,-3.412,-3.4166,-3.4242,-3.4298,-3.4367,-3.4495,-3.4539,-3.445,0.7998,0.7499,0.7054,0.6344,0.5458,0.4904,0.457,0.4401,0.3959,0.3685,0.3577,0.2961,0.235,0.1793,0.14,0.112,0.0897,0.0449,0.0168,0.0,-0.0505,-0.0841,-0.1011,-0.1477,-0.183,-0.1947,-0.2539,-0.2909,-0.3096,-0.3666,-0.427,-0.4949,-0.5483,-0.6159,-0.6858,-0.7498,-0.8243,-0.9093,-0.9695,-1.0525,-1.156,-1.2246,-1.2967,-1.3858,-1.4829,-1.5961,-1.7119,-1.8067,-1.9145,-2.0376,-2.1224,-2.2048,-2.2742,-2.3486,-2.4078,-2.4467,-2.4974,-2.546,-2.5924,-2.6101,-2.633,-2.6691,-2.6996,-2.7385,-2.7964,-2.8322,-2.8864,-2.9668,-3.0034,-3.0319,-3.0794,-3.0878,-3.0895,-3.0895,-3.0895,-3.0998,-3.1179,-3.1196,-3.1326,-3.1617,-3.1741,-3.1795,-3.1967,-3.2073,-3.2232,-3.242,-3.2504,-3.2603,-3.2787,-3.29,-3.2989,-3.3094,-3.3117,-3.3117,-3.313,-3.3262,-3.3419,-3.3578,-3.3725,-3.3876,-3.3947,-3.403,-3.4148,-3.4197,-3.4271,-3.4309,-3.4365,-3.4451,-3.4527,-3.4617,-3.4694,-3.4774,-3.4832,-3.4832,-3.4774,0.8648,0.815,0.7605,0.6912,0.6223,0.5614,0.5285,0.5117,0.4677,0.4405,0.4298,0.407,0.3569,0.285,0.2291,0.1902,0.1625,0.1176,0.0897,0.0672,0.0224,-0.0168,-0.0449,-0.0785,-0.1065,-0.1348,-0.1722,-0.2123,-0.2411,-0.313,-0.3852,-0.4463,-0.5069,-0.5782,-0.649,-0.7241,-0.8031,-0.8869,-0.9607,-1.0584,-1.171,-1.2433,-1.3198,-1.4107,-1.504,-1.6114,-1.7352,-1.8102,-1.9059,-2.0328,-2.1301,-2.2196,-2.3006,-2.3748,-2.4411,-2.5059,-2.5572,-2.6013,-2.6264,-2.6505,-2.6775,-2.7105,-2.7169,-2.7439,-2.8034,-2.8204,-2.8568,-2.9229,-2.9557,-2.996,-3.0598,-3.0734,-3.0819,-3.0972,-3.1062,-3.1227,-3.1582,-3.1692,-3.1802,-3.2055,-3.219,-3.2335,-3.2435,-3.2573,-3.2719,-3.2862,-3.2957,-3.3063,-3.3208,-3.3334,-3.3442,-3.3563,-3.3802,-3.3808,-3.3588,-3.3716,-3.3895,-3.4049,-3.4197,-3.4274,-3.4344,-3.4476,-3.4551,-3.4559,-3.4666,-3.4739,-3.4773,-3.4819,-3.4857,-3.4977,-3.5051,-3.5083,-3.51,-3.5098,-3.513,0.9309,0.8817,0.7919,0.7289,0.6825,0.6376,0.5991,0.5773,0.5441,0.5175,0.5069,0.4897,0.4728,0.445,0.3289,0.2681,0.2571,0.2014,0.1677,0.151,0.1065,0.0673,0.0336,0.0056,-0.0224,-0.0448,-0.0844,-0.135,-0.2015,-0.2627,-0.3239,-0.3849,-0.4512,-0.5285,-0.605,-0.6858,-0.7771,-0.8567,-0.9399,-1.0379,-1.1592,-1.2628,-1.3589,-1.449,-1.5445,-1.6349,-1.7209,-1.7975,-1.9006,-2.0347,-2.085,-2.1827,-2.332,-2.3693,-2.4392,-2.5607,-2.6156,-2.647,-2.6741,-2.7021,-2.7244,-2.7465,-2.7574,-2.7635,-2.7859,-2.7859,-2.8193,-2.8846,-2.8956,-2.9196,-2.9558,-2.9799,-3.004,-3.054,-3.0714,-3.1132,-3.1951,-3.205,-3.2317,-3.2557,-3.2711,-3.2859,-3.3019,-3.3147,-3.3202,-3.3291,-3.3386,-3.3549,-3.368,-3.3753,-3.389,-3.4097,-3.424,-3.4295,-3.4056,-3.4136,-3.4316,-3.4431,-3.4542,-3.4628,-3.4732,-3.4831,-3.4845,-3.4898,-3.4961,-3.502,-3.5113,-3.5177,-3.5206,-3.5268,-3.5288,-3.5316,-3.5339,-3.5366,-3.5393,1.0123,0.9444,0.883,0.8302,0.7836,0.7348,0.6966,0.6647,0.6421,0.6154,0.5946,0.5887,0.5723,0.5504,0.4944,0.4229,0.3405,0.3014,0.2625,0.2289,0.1846,0.1511,0.1288,0.0841,0.0561,0.0393,-0.0056,-0.0673,-0.1288,-0.1902,-0.2516,-0.3125,-0.3735,-0.4508,-0.5395,-0.6258,-0.7224,-0.8243,-0.919,-1.032,-1.1674,-1.2754,-1.3852,-1.5028,-1.5876,-1.674,-1.7571,-1.8408,-1.9278,-2.01,-2.0983,-2.1811,-2.2722,-2.3961,-2.5149,-2.6232,-2.6674,-2.6939,-2.7178,-2.7413,-2.7642,-2.7904,-2.7979,-2.8035,-2.8128,-2.8156,-2.8281,-2.853,-2.8584,-2.866,-2.8871,-2.9404,-2.9946,-3.0189,-3.0342,-3.0738,-3.1573,-3.1898,-3.2177,-3.2872,-3.3201,-3.3364,-3.3486,-3.3569,-3.3625,-3.3743,-3.3868,-3.3972,-3.4092,-3.4216,-3.4344,-3.4444,-3.4604,-3.4736,-3.4748,-3.466,-3.4711,-3.4792,-3.487,-3.4963,-3.5053,-3.5102,-3.5145,-3.5189,-3.5242,-3.5273,-3.5361,-3.5415,-3.5449,-3.5469,-3.55,-3.5543,-3.5577,-3.5568,-3.5599,1.0846,1.0174,0.9769,0.9249,0.8778,0.8362,0.7937,0.7509,0.7396,0.7182,0.6918,0.6864,0.6756,0.6539,0.6421,0.5819,0.478,0.4174,0.3622,0.3181,0.2736,0.2462,0.2181,0.1736,0.1456,0.1233,0.0672,0.0056,-0.0505,-0.1064,-0.1677,-0.2233,-0.2956,-0.3738,-0.4677,-0.566,-0.6735,-0.7806,-0.8928,-1.021,-1.1657,-1.288,-1.4157,-1.5443,-1.6446,-1.7258,-1.7973,-1.8817,-1.9566,-2.0177,-2.1049,-2.1821,-2.2573,-2.4347,-2.5746,-2.6497,-2.7043,-2.7413,-2.7636,-2.7858,-2.8073,-2.8291,-2.8388,-2.844,-2.85,-2.8525,-2.8525,-2.8525,-2.8525,-2.8525,-2.8655,-2.9186,-2.9668,-2.9869,-2.9958,-3.038,-3.1279,-3.1515,-3.2072,-3.2902,-3.3258,-3.3529,-3.3865,-3.3979,-3.4074,-3.4173,-3.4274,-3.4367,-3.4454,-3.4586,-3.4745,-3.4808,-3.4927,-3.5066,-3.5124,-3.5094,-3.5045,-3.5117,-3.5117,-3.5235,-3.5311,-3.5369,-3.5407,-3.5479,-3.5504,-3.554,-3.5577,-3.5631,-3.565,-3.565,-3.5689,-3.5727,-3.5765,-3.5773,-3.5821,1.156,1.0998,1.0576,1.0115,0.9658,0.9302,0.8896,0.8468,0.8415,0.8249,0.7972,0.7925,0.7871,0.7717,0.7551,0.7272,0.6632,0.5655,0.4783,0.4233,0.3904,0.3574,0.3128,0.2792,0.2458,0.2127,0.1454,0.0895,0.0449,-0.0112,-0.0672,-0.1341,-0.2178,-0.2959,-0.3796,-0.4944,-0.614,-0.7326,-0.8547,-0.999,-1.1548,-1.2966,-1.4413,-1.586,-1.7094,-1.7973,-1.8458,-1.9214,-1.9914,-2.0481,-2.099,-2.1822,-2.3123,-2.4703,-2.588,-2.6405,-2.7216,-2.7862,-2.8174,-2.8362,-2.85,-2.8626,-2.8725,-2.8779,-2.8821,-2.8821,-2.8821,-2.8821,-2.8821,-2.8821,-2.8821,-2.8937,-2.9123,-2.9413,-2.9638,-3.0062,-3.0731,-3.116,-3.1701,-3.263,-3.2939,-3.3348,-3.3976,-3.411,-3.4105,-3.4207,-3.4425,-3.4564,-3.4661,-3.4831,-3.5039,-3.5153,-3.5229,-3.5309,-3.5403,-3.548,-3.5449,-3.5425,-3.5412,-3.5457,-3.5519,-3.5566,-3.5593,-3.5666,-3.5662,-3.5689,-3.5706,-3.5756,-3.5768,-3.5781,-3.584,-3.5905,-3.5898,-3.595,-3.6105,1.2423,1.203,1.1408,1.1007,1.0661,1.0372,1.002,0.9658,0.9555,0.9399,0.9235,0.9086,0.8935,0.8784,0.8672,0.8461,0.8037,0.7492,0.6578,0.5441,0.5003,0.4677,0.4288,0.3843,0.3347,0.2852,0.2514,0.2069,0.1623,0.1063,0.0447,-0.0167,-0.1005,-0.1953,-0.2901,-0.4061,-0.532,-0.6832,-0.8265,-0.9864,-1.1657,-1.3195,-1.4722,-1.6311,-1.7491,-1.8493,-1.9447,-1.9954,-2.0465,-2.1023,-2.1507,-2.2346,-2.359,-2.4368,-2.54,-2.6631,-2.7112,-2.7787,-2.8453,-2.8743,-2.8887,-2.9003,-2.9097,-2.9144,-2.9206,-2.9206,-2.9206,-2.9206,-2.9166,-2.9144,-2.9144,-2.9185,-2.9226,-2.9186,-2.9223,-2.9648,-3.0483,-3.126,-3.1908,-3.2221,-3.2409,-3.263,-3.2899,-3.3091,-3.3223,-3.3353,-3.3764,-3.4189,-3.4315,-3.4829,-3.5285,-3.5388,-3.5457,-3.553,-3.5611,-3.5655,-3.5668,-3.5641,-3.564,-3.56,-3.567,-3.5724,-3.5773,-3.581,-3.5823,-3.582,-3.586,-3.5877,-3.5873,-3.5916,-3.5978,-3.602,-3.6027,-3.6284,-3.664,1.3389,1.3054,1.2444,1.2052,1.1765,1.1475,1.1116,1.0813,1.072,1.0568,1.0415,1.032,1.0108,0.9917,0.9821,0.9614,0.9242,0.9138,0.8442,0.7267,0.6362,0.5928,0.555,0.4999,0.445,0.3956,0.3732,0.3345,0.2847,0.2232,0.1619,0.0949,0.0112,-0.0838,-0.1953,-0.3176,-0.4604,-0.6225,-0.7923,-0.9739,-1.176,-1.347,-1.5105,-1.6793,-1.8009,-1.9148,-2.0268,-2.0846,-2.1275,-2.1612,-2.2062,-2.2867,-2.3751,-2.4311,-2.5111,-2.6123,-2.7055,-2.7765,-2.8398,-2.8887,-2.9206,-2.9312,-2.9395,-2.9493,-2.9531,-2.9551,-2.9551,-2.9551,-2.9513,-2.9474,-2.9493,-2.9531,-2.9474,-2.9355,-2.9307,-2.953,-3.0215,-3.0807,-3.1374,-3.1621,-3.1851,-3.21,-3.2397,-3.2572,-3.2596,-3.2752,-3.3182,-3.3596,-3.3821,-3.4473,-3.4873,-3.5239,-3.5499,-3.5599,-3.5781,-3.5819,-3.5852,-3.5846,-3.5845,-3.5803,-3.5799,-3.5833,-3.5844,-3.589,-3.5908,-3.5903,-3.5937,-3.5935,-3.5953,-3.6033,-3.6191,-3.6484,-3.6718,-3.7279,-3.7626,1.4398,1.4071,1.3647,1.3246,1.2909,1.2609,1.2316,1.1963,1.1864,1.1706,1.1557,1.1466,1.1308,1.1116,1.0981,1.0779,1.0517,1.0364,1.0151,0.9481,0.8429,0.7534,0.6843,0.6352,0.5919,0.5487,0.521,0.4769,0.4278,0.3669,0.2894,0.2227,0.1394,0.0335,-0.0724,-0.2227,-0.3822,-0.5558,-0.7482,-0.9607,-1.1948,-1.3803,-1.56,-1.7437,-1.8763,-1.9947,-2.0958,-2.1824,-2.2214,-2.2192,-2.2746,-2.323,-2.3665,-2.4458,-2.499,-2.5447,-2.6875,-2.7701,-2.8233,-2.9003,-2.9474,-2.9589,-2.9681,-2.9753,-2.9806,-2.9806,-2.9806,-2.9806,-2.9787,-2.9806,-2.9806,-2.9823,-2.9822,-2.9872,-2.9717,-2.9739,-2.9813,-2.9993,-3.0472,-3.1021,-3.1317,-3.1609,-3.223,-3.2455,-3.2538,-3.2625,-3.2739,-3.2947,-3.3161,-3.3693,-3.4265,-3.468,-3.5055,-3.5352,-3.5419,-3.5868,-3.5887,-3.5879,-3.5884,-3.5892,-3.5895,-3.59,-3.5893,-3.5945,-3.6035,-3.6005,-3.6049,-3.6094,-3.6196,-3.6331,-3.6638,-3.7061,-3.7539,-3.8064,-3.8458,1.5389,1.5017,1.4674,1.4329,1.4039,1.3847,1.361,1.3283,1.3054,1.2948,1.2861,1.2657,1.2502,1.2316,1.2169,1.2021,1.1864,1.1765,1.1665,1.1516,1.0998,0.9496,0.8218,0.7794,0.7475,0.7101,0.6881,0.6563,0.6067,0.5517,0.4863,0.4103,0.3161,0.2055,0.0888,-0.0721,-0.2711,-0.479,-0.7131,-0.9598,-1.2186,-1.4383,-1.633,-1.825,-1.9592,-2.0815,-2.1831,-2.2849,-2.3298,-2.3165,-2.3446,-2.3785,-2.4023,-2.4395,-2.4912,-2.5633,-2.6635,-2.766,-2.8333,-2.9191,-2.9712,-2.9822,-2.9937,-3.0,-3.0,-3.0019,-3.0015,-3.0011,-3.003,-3.003,-3.0041,-3.0071,-3.0114,-3.0155,-3.0056,-2.9975,-3.0018,-3.0106,-3.0272,-3.0571,-3.0664,-3.0914,-3.1135,-3.1284,-3.135,-3.1484,-3.1859,-3.226,-3.2441,-3.2979,-3.3608,-3.3913,-3.4276,-3.4703,-3.5096,-3.5643,-3.5918,-3.5895,-3.5896,-3.5918,-3.5917,-3.5955,-3.5936,-3.5937,-3.6124,-3.6162,-3.6294,-3.6385,-3.6508,-3.6805,-3.7416,-3.7994,-3.828,-3.8707,-3.912,1.6343,1.6039,1.5688,1.5421,1.5107,1.4971,1.4731,1.4433,1.4283,1.4107,1.4025,1.3862,1.3721,1.3627,1.3464,1.3369,1.3263,1.3168,1.311,1.3072,1.286,1.1594,1.0003,0.94,0.9186,0.8933,0.8731,0.8403,0.7964,0.7482,0.6844,0.6093,0.5175,0.4081,0.2925,0.1104,-0.0995,-0.3471,-0.6231,-0.9235,-1.2396,-1.5034,-1.7341,-1.925,-2.0671,-2.1855,-2.2959,-2.3763,-2.4045,-2.3968,-2.4081,-2.4299,-2.4468,-2.4579,-2.49,-2.5502,-2.6336,-2.7195,-2.8074,-2.8969,-2.9675,-3.0004,-3.0202,-3.0228,-3.0222,-3.0216,-3.0228,-3.0228,-3.0248,-3.026,-3.0266,-3.0302,-3.0348,-3.0381,-3.0367,-3.0292,-3.0237,-3.0279,-3.0372,-3.0452,-3.0519,-3.053,-3.0579,-3.0607,-3.0664,-3.0817,-3.1217,-3.1432,-3.159,-3.2292,-3.2818,-3.3033,-3.3467,-3.3925,-3.4139,-3.4566,-3.5191,-3.5303,-3.5636,-3.5708,-3.588,-3.5918,-3.5964,-3.5991,-3.6177,-3.6403,-3.6619,-3.692,-3.7364,-3.7789,-3.8403,-3.8772,-3.8976,-3.9267,-3.9674,1.7353,1.7105,1.6799,1.6471,1.6194,1.602,1.5776,1.5511,1.5466,1.5344,1.5152,1.5073,1.5005,1.488,1.4755,1.4675,1.4664,1.4596,1.4596,1.4585,1.4426,1.3538,1.2281,1.1437,1.1098,1.0906,1.062,1.0402,1.0066,0.9599,0.8968,0.832,0.7489,0.6513,0.5379,0.3564,0.1209,-0.1484,-0.5048,-0.8742,-1.2423,-1.5695,-1.8561,-2.0635,-2.197,-2.3042,-2.3946,-2.4502,-2.4609,-2.4516,-2.4618,-2.4752,-2.493,-2.4993,-2.5061,-2.5268,-2.5998,-2.6857,-2.77,-2.8614,-2.9425,-3.0166,-3.04,-3.0422,-3.0423,-3.0404,-3.0423,-3.0432,-3.0482,-3.0501,-3.0501,-3.0509,-3.0532,-3.0576,-3.061,-3.0552,-3.0491,-3.0492,-3.0543,-3.0587,-3.0671,-3.0703,-3.071,-3.0715,-3.0721,-3.0747,-3.0985,-3.103,-3.1152,-3.1562,-3.1875,-3.1972,-3.2513,-3.3181,-3.3273,-3.3382,-3.405,-3.4535,-3.5061,-3.5352,-3.5694,-3.5788,-3.5908,-3.606,-3.6365,-3.6759,-3.716,-3.7565,-3.8102,-3.852,-3.8967,-3.9251,-3.9476,-3.9805,-4.0177,1.838,1.8106,1.7854,1.7612,1.7381,1.6983,1.6773,1.6689,1.6532,1.6446,1.6361,1.6287,1.6244,1.6201,1.6077,1.599,1.6009,1.6053,1.617,1.6328,1.623,1.6089,1.5233,1.4109,1.3192,1.2897,1.2715,1.2551,1.2339,1.2041,1.1554,1.0929,1.0392,0.9563,0.8487,0.6968,0.4706,0.1576,-0.3052,-0.7671,-1.1943,-1.6413,-1.9853,-2.2115,-2.3344,-2.4167,-2.4704,-2.4985,-2.511,-2.5142,-2.5097,-2.5091,-2.5186,-2.526,-2.5286,-2.5476,-2.6075,-2.6973,-2.786,-2.8689,-2.9588,-3.0388,-3.056,-3.0548,-3.0576,-3.0564,-3.0587,-3.0629,-3.064,-3.0653,-3.0644,-3.0664,-3.0653,-3.0667,-3.0681,-3.0696,-3.0693,-3.0671,-3.0658,-3.0696,-3.0749,-3.0781,-3.0765,-3.076,-3.078,-3.0796,-3.079,-3.0784,-3.0882,-3.1008,-3.1122,-3.1282,-3.167,-3.226,-3.2349,-3.255,-3.3248,-3.3887,-3.4436,-3.5037,-3.5361,-3.563,-3.5726,-3.6115,-3.6626,-3.7089,-3.7619,-3.8319,-3.8892,-3.9204,-3.9438,-3.9637,-3.989,-4.0274,-4.0351,1.9325,1.9051,1.8864,1.8636,1.8352,1.809,1.7946,1.78,1.7679,1.7599,1.7477,1.745,1.7409,1.7395,1.7341,1.7328,1.7424,1.7572,1.7758,1.7928,1.794,1.8004,1.8004,1.7089,1.6141,1.5233,1.4923,1.4822,1.471,1.4519,1.4238,1.3809,1.3369,1.2816,1.207,1.0802,0.932,0.6459,0.076,-0.4581,-0.8937,-1.5081,-2.0209,-2.2785,-2.4111,-2.4691,-2.4913,-2.5069,-2.5195,-2.5273,-2.5267,-2.5288,-2.5377,-2.5435,-2.5464,-2.5595,-2.5863,-2.6875,-2.7853,-2.8578,-2.9318,-3.0594,-3.0697,-3.0687,-3.0691,-3.0691,-3.0691,-3.0711,-3.0715,-3.0763,-3.0739,-3.0701,-3.0694,-3.0718,-3.0701,-3.0723,-3.0742,-3.0743,-3.0758,-3.076,-3.0762,-3.0742,-3.0754,-3.0755,-3.0747,-3.0721,-3.0672,-3.0677,-3.0689,-3.0788,-3.0724,-3.0847,-3.1057,-3.1303,-3.1397,-3.1796,-3.254,-3.3198,-3.3826,-3.4491,-3.5036,-3.5315,-3.5546,-3.6158,-3.6851,-3.7611,-3.8213,-3.8956,-3.9414,-3.9585,-3.9757,-3.9986,-4.0062,-4.0042,-4.0042,2.0243,1.9984,1.9844,1.96,1.9295,1.9222,1.9074,1.8902,1.8826,1.8774,1.8622,1.8584,1.8608,1.8584,1.8569,1.8646,1.8829,1.9001,1.9228,1.9465,1.9562,1.9671,1.9726,1.9546,1.8977,1.7555,1.7183,1.7062,1.7022,1.705,1.689,1.6677,1.6478,1.607,1.5555,1.4888,1.3667,1.1472,0.5333,-0.0472,-0.5298,-1.2151,-1.8167,-2.253,-2.3847,-2.4319,-2.456,-2.4774,-2.4949,-2.5066,-2.5149,-2.5318,-2.5515,-2.5506,-2.5642,-2.5758,-2.5951,-2.6849,-2.8139,-2.8606,-2.9191,-3.0657,-3.0774,-3.0775,-3.0758,-3.0759,-3.074,-3.0723,-3.0722,-3.0737,-3.0769,-3.0704,-3.0701,-3.0735,-3.071,-3.0684,-3.0703,-3.0728,-3.0708,-3.0765,-3.0719,-3.0696,-3.0672,-3.0652,-3.0656,-3.0649,-3.0587,-3.0548,-3.0546,-3.0528,-3.0479,-3.0451,-3.0626,-3.0664,-3.0746,-3.091,-3.167,-3.2626,-3.3255,-3.3933,-3.4622,-3.4901,-3.5299,-3.6389,-3.7152,-3.7829,-3.8524,-3.9184,-3.9569,-3.9823,-3.9807,-3.9747,-3.9743,-3.9717,-3.9762,2.1071,2.0878,2.0731,2.0581,2.04,2.0196,2.0058,2.0024,1.9939,1.9904,1.9889,1.9904,1.9854,1.9854,1.9904,1.9978,2.0172,2.0358,2.0621,2.0894,2.1003,2.1154,2.1348,2.14,2.12,2.0839,1.9949,1.9291,1.9236,1.934,1.9314,1.9369,1.9331,1.9148,1.8936,1.8573,1.7434,1.528,0.9433,0.3683,-0.1959,-0.9467,-1.6232,-2.1258,-2.2533,-2.3265,-2.3813,-2.4101,-2.4344,-2.4517,-2.4587,-2.5113,-2.562,-2.5622,-2.5877,-2.6399,-2.6565,-2.7315,-2.8703,-2.9155,-2.9684,-3.0426,-3.0701,-3.0701,-3.0699,-3.0718,-3.069,-3.0669,-3.0628,-3.062,-3.0653,-3.0613,-3.0605,-3.0625,-3.0613,-3.06,-3.0579,-3.0533,-3.0528,-3.0613,-3.0614,-3.0602,-3.0546,-3.0481,-3.0443,-3.0411,-3.0381,-3.0301,-3.0275,-3.0263,-3.0237,-3.0213,-3.0215,-3.0194,-3.0179,-3.0307,-3.0769,-3.1991,-3.277,-3.3448,-3.4028,-3.4386,-3.5035,-3.6008,-3.6953,-3.7685,-3.8434,-3.9197,-3.9462,-3.9471,-3.9452,-3.9401,-3.9401,-3.9427,-3.9433,2.1731,2.1582,2.1491,2.1337,2.1165,2.1039,2.0959,2.0959,2.0927,2.0911,2.0927,2.0927,2.0927,2.0927,2.0927,2.1115,2.1404,2.1641,2.19,2.215,2.2331,2.2479,2.2663,2.2781,2.2893,2.2787,2.2213,2.1542,2.1192,2.1395,2.1494,2.1593,2.1665,2.1709,2.1669,2.1401,2.0728,1.8423,1.3464,0.7806,0.2213,-0.6865,-1.4801,-1.825,-2.0574,-2.1541,-2.24,-2.3205,-2.3635,-2.406,-2.4563,-2.5222,-2.5688,-2.6016,-2.6259,-2.7006,-2.7241,-2.7775,-2.8948,-2.9292,-2.9687,-3.0432,-3.058,-3.06,-3.0594,-3.0581,-3.0542,-3.0517,-3.0532,-3.0492,-3.0501,-3.0482,-3.0501,-3.0482,-3.0452,-3.0393,-3.0342,-3.024,-3.0279,-3.0348,-3.0348,-3.0329,-3.0359,-3.0294,-3.0222,-3.0171,-3.0131,-3.0075,-2.9999,-2.9965,-2.9942,-2.9897,-2.987,-2.9912,-2.9942,-3.0151,-3.0565,-3.1631,-3.2371,-3.3053,-3.3566,-3.4013,-3.4647,-3.5462,-3.6379,-3.7116,-3.8044,-3.8691,-3.8906,-3.912,-3.9101,-3.9082,-3.9101,-3.9101,-3.9119,2.2358,2.2198,2.2198,2.2039,2.1849,2.1803,2.1832,2.1832,2.1861,2.1857,2.1886,2.1869,2.1898,2.191,2.1973,2.2187,2.2565,2.2775,2.2976,2.3191,2.339,2.3599,2.3744,2.3879,2.3967,2.4008,2.4045,2.3782,2.2965,2.2994,2.3234,2.3266,2.3441,2.3534,2.3454,2.3229,2.3335,2.1163,1.7308,1.1898,0.451,-0.4994,-1.3249,-1.6045,-1.7913,-1.9387,-2.062,-2.1829,-2.2694,-2.3386,-2.415,-2.5033,-2.5676,-2.608,-2.6702,-2.7478,-2.7746,-2.8291,-2.8956,-2.9319,-2.9727,-3.0307,-3.0395,-3.0395,-3.0375,-3.0325,-3.0274,-3.0309,-3.0306,-3.0294,-3.0283,-3.0321,-3.0328,-3.0273,-3.019,-3.0117,-3.0046,-2.9966,-2.9874,-2.9927,-2.9994,-3.0028,-3.0009,-3.0013,-2.9924,-2.9861,-2.9813,-2.9746,-2.9677,-2.9624,-2.9587,-2.9532,-2.9533,-2.964,-2.9839,-3.0211,-3.0854,-3.1881,-3.236,-3.284,-3.3287,-3.3703,-3.4275,-3.4659,-3.5294,-3.6069,-3.7131,-3.8065,-3.837,-3.8578,-3.8718,-3.8773,-3.8743,-3.8725,-3.8718,2.301,2.2876,2.2833,2.2756,2.2651,2.2582,2.2565,2.2574,2.2678,2.2754,2.2737,2.2805,2.2838,2.2919,2.3077,2.3249,2.3451,2.3624,2.3821,2.4007,2.4199,2.4361,2.4544,2.4695,2.4712,2.4798,2.4945,2.473,2.4214,2.4227,2.438,2.4455,2.44,2.4483,2.427,2.404,2.3706,2.2164,1.8871,1.265,0.4319,-0.3069,-0.848,-1.2387,-1.5136,-1.7105,-1.8736,-2.0194,-2.1415,-2.2315,-2.3076,-2.4065,-2.5183,-2.5843,-2.6764,-2.7592,-2.8192,-2.865,-2.9387,-2.9597,-2.9694,-2.9971,-3.0056,-3.0042,-3.0023,-2.9994,-2.998,-3.0032,-3.0022,-3.0022,-3.0013,-3.0052,-3.0041,-2.9996,-2.9899,-2.9815,-2.9744,-2.9555,-2.947,-2.9401,-2.9458,-2.955,-2.9623,-2.9624,-2.9626,-2.957,-2.9494,-2.9416,-2.9338,-2.924,-2.9193,-2.9114,-2.9374,-2.9531,-2.994,-3.0294,-3.1054,-3.2078,-3.2437,-3.2675,-3.2983,-3.3299,-3.3205,-3.3669,-3.4274,-3.5074,-3.611,-3.6985,-3.7638,-3.8045,-3.825,-3.8328,-3.8372,-3.8368,-3.8314,2.3624,2.3265,2.3248,2.3218,2.3129,2.3159,2.3189,2.3259,2.3369,2.3441,2.353,2.3552,2.3623,2.3787,2.3894,2.4026,2.4185,2.4367,2.452,2.4642,2.4803,2.493,2.5043,2.5142,2.5214,2.5259,2.5297,2.5234,2.5033,2.4942,2.5028,2.4938,2.4852,2.4657,2.4451,2.4091,2.3158,2.1045,1.7297,1.1807,0.5455,0.0054,-0.4725,-0.8969,-1.1857,-1.4321,-1.6456,-1.8409,-1.9864,-2.1009,-2.2194,-2.3522,-2.4547,-2.5324,-2.6099,-2.683,-2.7303,-2.8016,-2.8989,-2.9266,-2.9439,-2.9551,-2.9587,-2.9605,-2.9587,-2.9569,-2.9588,-2.9644,-2.9662,-2.9678,-2.9713,-2.9713,-2.9696,-2.9625,-2.9533,-2.9456,-2.9323,-2.9119,-2.8984,-2.8938,-2.8897,-2.8975,-2.9071,-2.9114,-2.9151,-2.9191,-2.9086,-2.8997,-2.8893,-2.8773,-2.8735,-2.8688,-2.9083,-2.9503,-3.0044,-3.0522,-3.1202,-3.2068,-3.2593,-3.2781,-3.2773,-3.289,-3.2805,-3.2737,-3.3084,-3.3979,-3.5084,-3.6096,-3.6967,-3.7426,-3.7781,-3.791,-3.802,-3.7933,-3.7913,2.4762,2.4366,2.388,2.3613,2.3552,2.3653,2.3759,2.3842,2.3943,2.406,2.421,2.4432,2.4741,2.493,2.502,2.504,2.512,2.5065,2.506,2.5139,2.5232,2.5312,2.5357,2.5426,2.543,2.5488,2.5382,2.5311,2.5226,2.5138,2.4997,2.4995,2.4713,2.4465,2.4098,2.3578,2.2698,2.054,1.6346,1.1837,0.7432,0.322,-0.1276,-0.5316,-0.8752,-1.1729,-1.4172,-1.6443,-1.8113,-1.9625,-2.107,-2.2292,-2.3333,-2.4184,-2.4932,-2.5606,-2.6135,-2.6864,-2.7753,-2.8297,-2.8709,-2.8924,-2.903,-2.9074,-2.9095,-2.9092,-2.9135,-2.9193,-2.9235,-2.9279,-2.9319,-2.9358,-2.9299,-2.9177,-2.9067,-2.8997,-2.8874,-2.864,-2.8494,-2.8445,-2.8388,-2.8309,-2.8432,-2.8533,-2.8633,-2.8773,-2.87,-2.8576,-2.8533,-2.8471,-2.8665,-2.8757,-2.9294,-2.9816,-3.044,-3.1011,-3.1612,-3.201,-3.2527,-3.2713,-3.2603,-3.2504,-3.2468,-3.235,-3.2264,-3.2669,-3.3564,-3.4994,-3.6308,-3.6738,-3.7131,-3.7488,-3.7613,-3.7522,-3.7469,2.6912,2.6692,2.4912,2.417,2.4074,2.4173,2.4284,2.4523,2.4586,2.4703,2.4948,2.5565,2.6426,2.6823,2.6481,2.6311,2.6419,2.5693,2.5687,2.5668,2.5566,2.5796,2.5855,2.5819,2.5586,2.5492,2.5356,2.517,2.4982,2.4751,2.47,2.4664,2.4335,2.3951,2.3469,2.2903,2.165,1.9512,1.6112,1.3214,0.9681,0.5806,0.1494,-0.3133,-0.6644,-0.9649,-1.2347,-1.46,-1.6458,-1.7955,-1.937,-2.062,-2.169,-2.2702,-2.3483,-2.4203,-2.4907,-2.5533,-2.6168,-2.726,-2.7995,-2.8236,-2.8384,-2.8492,-2.8499,-2.856,-2.8628,-2.8724,-2.873,-2.88,-2.8865,-2.8906,-2.88,-2.8706,-2.856,-2.8417,-2.8294,-2.8103,-2.7949,-2.7929,-2.7877,-2.777,-2.7712,-2.7811,-2.812,-2.8273,-2.821,-2.8101,-2.8368,-2.8439,-2.882,-2.9101,-2.9688,-3.0304,-3.0988,-3.1479,-3.1663,-3.191,-3.2279,-3.2335,-3.2232,-3.2144,-3.2091,-3.2039,-3.1933,-3.1982,-3.2206,-3.3696,-3.4984,-3.5872,-3.6478,-3.6872,-3.7099,-3.7097,-3.7061,2.7358,2.7201,2.6547,2.6139,2.593,2.6088,2.6169,2.6249,2.6384,2.651,2.6586,2.707,2.7451,2.7661,2.7652,2.7505,2.7546,2.7316,2.7114,2.7159,2.7187,2.716,2.7017,2.6509,2.6209,2.5909,2.5447,2.4915,2.4681,2.436,2.4063,2.3914,2.376,2.3343,2.2807,2.19,2.0436,1.8852,1.6443,1.3751,1.0502,0.7167,0.322,-0.089,-0.4472,-0.7433,-1.0078,-1.2334,-1.424,-1.5946,-1.7399,-1.8682,-1.9901,-2.0987,-2.1927,-2.2715,-2.3486,-2.4087,-2.4823,-2.6029,-2.7137,-2.7519,-2.7712,-2.7855,-2.7883,-2.7929,-2.8057,-2.8139,-2.8174,-2.8254,-2.8376,-2.835,-2.829,-2.8166,-2.8012,-2.7844,-2.7681,-2.7497,-2.7373,-2.7296,-2.722,-2.7113,-2.7093,-2.7068,-2.7444,-2.7742,-2.7677,-2.7739,-2.8137,-2.85,-2.8889,-2.9325,-2.992,-3.0282,-3.0907,-3.1289,-3.1601,-3.181,-3.202,-3.1984,-3.1912,-3.1839,-3.1785,-3.1677,-3.1657,-3.1685,-3.2049,-3.2783,-3.3647,-3.4501,-3.5454,-3.626,-3.6431,-3.6514,-3.6549,2.8349,2.8264,2.8395,2.7942,2.7315,2.7365,2.7466,2.7529,2.7604,2.7969,2.8277,2.833,2.856,2.8674,2.8559,2.8532,2.8459,2.8239,2.8144,2.8036,2.7969,2.8072,2.7712,2.7102,2.6381,2.6156,2.5348,2.4603,2.4314,2.3967,2.3663,2.3338,2.3034,2.266,2.1982,2.0705,1.9475,1.8397,1.6485,1.4129,1.0997,0.8085,0.4903,0.1114,-0.2427,-0.5445,-0.7953,-1.0194,-1.2134,-1.3815,-1.5339,-1.6772,-1.8028,-1.9224,-2.023,-2.1164,-2.1969,-2.2685,-2.3586,-2.4978,-2.6266,-2.6689,-2.6965,-2.7092,-2.722,-2.7317,-2.7422,-2.7589,-2.7601,-2.7631,-2.7759,-2.7672,-2.7631,-2.7495,-2.7282,-2.7126,-2.704,-2.6885,-2.6732,-2.664,-2.6587,-2.6538,-2.6683,-2.6739,-2.725,-2.755,-2.7617,-2.7843,-2.8357,-2.8682,-2.9025,-2.9534,-3.0027,-3.0345,-3.0611,-3.098,-3.1316,-3.1405,-3.1579,-3.1617,-3.1579,-3.1504,-3.1487,-3.1473,-3.1449,-3.1436,-3.1713,-3.2154,-3.2603,-3.3124,-3.4168,-3.5243,-3.5348,-3.5428,-3.5749,3.0164,3.0266,3.0232,2.9219,2.7758,2.7669,2.7854,2.8076,2.8171,2.8643,2.9322,2.9377,2.9757,3.013,2.9659,2.9472,2.9294,2.8756,2.8457,2.8496,2.8534,2.8163,2.7634,2.7116,2.6428,2.5838,2.4984,2.4209,2.3906,2.3574,2.3224,2.2789,2.2378,2.1953,2.1479,2.0139,1.9244,1.8593,1.6461,1.4176,1.1728,0.9,0.5936,0.2772,-0.0728,-0.3835,-0.6063,-0.8148,-1.0171,-1.1959,-1.3442,-1.4849,-1.6244,-1.7489,-1.8525,-1.9531,-2.0578,-2.1418,-2.2243,-2.4199,-2.5217,-2.5806,-2.6075,-2.6283,-2.6488,-2.6624,-2.6724,-2.6855,-2.6871,-2.6903,-2.6967,-2.6952,-2.6888,-2.6757,-2.6539,-2.6386,-2.6285,-2.6168,-2.6012,-2.601,-2.5999,-2.6005,-2.6189,-2.6492,-2.7073,-2.7411,-2.7487,-2.7875,-2.8498,-2.8811,-2.909,-2.9566,-3.0022,-3.0227,-3.0456,-3.0751,-3.0982,-3.1038,-3.1157,-3.1235,-3.1312,-3.1295,-3.1278,-3.1283,-3.1295,-3.1303,-3.128,-3.1348,-3.1871,-3.2423,-3.3191,-3.4014,-3.4148,-3.4379,-3.4703,3.0462,3.0442,3.0501,3.019,2.964,2.9574,2.9611,2.9668,2.9808,3.0041,3.0264,3.0323,3.0428,3.0585,3.0481,3.025,3.0147,3.0093,2.9745,2.9632,2.9399,2.9068,2.8394,2.7342,2.6499,2.5626,2.4635,2.3848,2.3486,2.3159,2.2815,2.2412,2.1642,2.1149,2.0731,1.9771,1.8702,1.7749,1.5891,1.3819,1.1575,0.9088,0.6527,0.3769,0.0663,-0.2056,-0.4312,-0.6412,-0.8286,-1.0127,-1.1621,-1.3099,-1.4536,-1.5867,-1.7025,-1.8066,-1.9157,-2.0369,-2.1363,-2.2759,-2.3673,-2.4474,-2.515,-2.5395,-2.5615,-2.5762,-2.5908,-2.6052,-2.6071,-2.6125,-2.616,-2.6142,-2.6035,-2.5928,-2.5709,-2.5561,-2.5443,-2.5359,-2.5248,-2.5368,-2.5359,-2.5989,-2.6325,-2.6538,-2.7016,-2.7526,-2.7681,-2.8125,-2.8697,-2.8791,-2.8976,-2.9502,-2.9919,-3.0044,-3.0254,-3.0401,-3.0551,-3.0634,-3.0757,-3.0935,-3.0998,-3.1061,-3.114,-3.1184,-3.1196,-3.119,-3.1207,-3.1241,-3.1331,-3.18,-3.2525,-3.311,-3.341,-3.3607,-3.3786,3.0607,3.0576,3.062,3.0684,3.072,3.062,3.0614,3.0662,3.0757,3.0797,3.0762,3.0756,3.074,3.0742,3.0711,3.0675,3.0646,3.0548,3.0442,3.0346,2.9898,2.9237,2.8441,2.7409,2.6186,2.5262,2.4299,2.3504,2.3129,2.2798,2.233,2.1698,2.0878,2.0327,1.9842,1.8845,1.7856,1.675,1.5157,1.3365,1.1251,0.9094,0.6821,0.4525,0.203,-0.0527,-0.272,-0.465,-0.6494,-0.8356,-0.9958,-1.1465,-1.2926,-1.4259,-1.5496,-1.6634,-1.8132,-1.9414,-2.0594,-2.1307,-2.2229,-2.304,-2.3903,-2.4405,-2.4648,-2.4808,-2.4989,-2.5105,-2.5198,-2.5259,-2.5265,-2.5221,-2.5144,-2.5028,-2.4871,-2.4712,-2.4617,-2.4548,-2.4721,-2.4813,-2.5144,-2.5802,-2.6504,-2.6764,-2.7053,-2.7482,-2.7942,-2.8351,-2.8737,-2.8822,-2.8851,-2.9242,-2.9534,-2.9611,-2.973,-2.9842,-3.0,-3.0189,-3.0401,-3.0609,-3.0814,-3.0918,-3.0998,-3.1117,-3.1134,-3.1173,-3.119,-3.1224,-3.1297,-3.1382,-3.171,-3.2258,-3.27,-3.288,-3.2991,3.0709,3.0706,3.07,3.0742,3.0777,3.0712,3.0726,3.0798,3.0781,3.0792,3.0791,3.0712,3.0691,3.0672,3.061,3.0485,3.0366,3.0276,3.0025,2.9704,2.9031,2.8556,2.7704,2.6542,2.5538,2.4754,2.3929,2.3135,2.2782,2.2347,2.1774,2.1102,2.0398,1.972,1.8912,1.7974,1.7016,1.5926,1.45,1.2814,1.1091,0.9234,0.725,0.5158,0.306,0.0712,-0.144,-0.3304,-0.5029,-0.6742,-0.8323,-0.9857,-1.1301,-1.2732,-1.399,-1.5573,-1.739,-1.8584,-1.9619,-2.0232,-2.0683,-2.1493,-2.2455,-2.3113,-2.358,-2.3822,-2.3975,-2.4085,-2.4194,-2.4251,-2.4292,-2.4307,-2.4282,-2.4116,-2.3991,-2.3894,-2.3797,-2.3915,-2.4169,-2.4447,-2.4813,-2.5449,-2.6441,-2.6856,-2.6871,-2.7291,-2.7684,-2.8014,-2.8389,-2.8754,-2.8796,-2.8865,-2.906,-2.9092,-2.92,-2.935,-2.9576,-2.9798,-3.0087,-3.03,-3.051,-3.0757,-3.0885,-3.1004,-3.1117,-3.1173,-3.119,-3.119,-3.119,-3.1292,-3.1433,-3.1517,-3.2032,-3.2144,-3.2297,3.0765,3.076,3.0772,3.0781,3.078,3.0715,3.0732,3.0788,3.0752,3.0739,3.0734,3.0652,3.0595,3.0558,3.0491,2.9993,2.9605,2.9264,2.8771,2.8337,2.7884,2.7198,2.645,2.5669,2.4738,2.397,2.3294,2.2807,2.233,2.1878,2.1337,2.0632,2.0035,1.9266,1.8359,1.7277,1.6366,1.5278,1.3858,1.2425,1.0915,0.9125,0.7401,0.5619,0.384,0.1638,-0.0257,-0.1943,-0.3642,-0.5484,-0.6954,-0.8458,-0.999,-1.137,-1.2838,-1.5187,-1.6553,-1.7567,-1.8459,-1.9085,-1.9542,-1.9914,-2.0693,-2.152,-2.2193,-2.2665,-2.2831,-2.2995,-2.3084,-2.3172,-2.3216,-2.3231,-2.3245,-2.3113,-2.3112,-2.3212,-2.3225,-2.3476,-2.3739,-2.4361,-2.4726,-2.538,-2.636,-2.6623,-2.6667,-2.7056,-2.7378,-2.766,-2.7993,-2.837,-2.8592,-2.8591,-2.8667,-2.8664,-2.8731,-2.8873,-2.9121,-2.9396,-2.9694,-3.0,-3.0284,-3.0477,-3.0707,-3.0908,-3.1044,-3.1117,-3.119,-3.119,-3.1151,-3.119,-3.1258,-3.1224,-3.1258,-3.1512,-3.1664,3.0798,3.0801,3.0797,3.0784,3.0751,3.0691,3.0675,3.0675,3.0664,3.0646,3.0618,3.053,3.0481,3.0298,2.9927,2.9359,2.8712,2.8308,2.7786,2.711,2.6662,2.619,2.5558,2.4858,2.4078,2.3324,2.2867,2.2527,2.201,2.1415,2.0828,2.0361,1.9717,1.9014,1.8152,1.7129,1.6088,1.4903,1.3621,1.2118,1.0629,0.9126,0.7504,0.5935,0.432,0.257,0.0816,-0.0755,-0.2418,-0.4137,-0.5567,-0.7049,-0.8719,-1.0394,-1.2174,-1.4287,-1.5409,-1.6327,-1.7169,-1.7852,-1.8286,-1.8673,-1.9044,-1.9697,-2.0495,-2.1121,-2.152,-2.1819,-2.1927,-2.2021,-2.2128,-2.2189,-2.2142,-2.2142,-2.2348,-2.258,-2.2802,-2.3087,-2.3631,-2.4257,-2.4878,-2.5494,-2.5991,-2.6172,-2.6404,-2.6563,-2.6774,-2.6997,-2.7393,-2.7834,-2.8048,-2.8158,-2.8247,-2.8271,-2.836,-2.851,-2.8748,-2.9029,-2.9335,-2.9677,-2.9984,-3.0267,-3.0526,-3.073,-3.0988,-3.1021,-3.1049,-3.1112,-3.1095,-3.1112,-3.1151,-3.119,-3.119,-3.1258,-3.1343,3.0795,3.0777,3.0798,3.0735,3.0685,3.061,3.0563,3.0492,3.0548,3.0549,3.0471,3.0414,3.0299,3.0035,2.9384,2.8692,2.8017,2.7436,2.6643,2.5962,2.5633,2.5225,2.4746,2.4107,2.3537,2.3045,2.2598,2.2226,2.1735,2.115,2.0579,2.0065,1.9588,1.8954,1.8113,1.7115,1.6126,1.5107,1.3689,1.2258,1.0744,0.9256,0.7782,0.6266,0.4782,0.3306,0.1757,0.0306,-0.1103,-0.2658,-0.4123,-0.5583,-0.7741,-0.9656,-1.1559,-1.2907,-1.4049,-1.4944,-1.5813,-1.6451,-1.6978,-1.7368,-1.7754,-1.8124,-1.8773,-1.9825,-2.0344,-2.062,-2.0756,-2.0904,-2.1002,-2.1278,-2.1408,-2.1569,-2.1824,-2.2237,-2.2677,-2.3103,-2.3689,-2.4257,-2.4682,-2.526,-2.537,-2.5577,-2.5825,-2.5988,-2.6136,-2.6365,-2.6774,-2.7246,-2.7535,-2.7735,-2.784,-2.7946,-2.808,-2.8201,-2.8381,-2.8653,-2.8967,-2.9335,-2.9649,-2.9968,-3.0318,-3.0526,-3.073,-3.0855,-3.0905,-3.0912,-3.0992,-3.1032,-3.1072,-3.1151,-3.1151,-3.1151,-3.119,3.0708,3.0726,3.0678,3.0622,3.0629,3.0558,3.0491,3.0425,3.039,3.0379,3.0311,3.0221,3.009,2.9832,2.8906,2.8131,2.7375,2.6465,2.5522,2.4986,2.4596,2.4454,2.4057,2.3651,2.3157,2.2764,2.2337,2.1866,2.1355,2.0827,2.0342,1.9859,1.9442,1.8855,1.8193,1.7168,1.62,1.5324,1.3984,1.2539,1.1124,0.9577,0.802,0.6653,0.5242,0.3846,0.2344,0.1067,-0.0361,-0.1834,-0.283,-0.4735,-0.7169,-0.8897,-1.0349,-1.1626,-1.2549,-1.3451,-1.4305,-1.5002,-1.5467,-1.5938,-1.628,-1.6574,-1.7235,-1.8424,-1.9178,-1.9347,-1.9567,-1.9722,-1.9964,-2.0321,-2.0679,-2.0962,-2.1401,-2.196,-2.2564,-2.3171,-2.3809,-2.4165,-2.4509,-2.4708,-2.4808,-2.4991,-2.523,-2.5384,-2.5522,-2.5742,-2.6122,-2.6573,-2.7049,-2.7238,-2.747,-2.7595,-2.774,-2.7936,-2.8137,-2.8332,-2.8653,-2.8982,-2.9321,-2.9738,-3.0097,-3.0276,-3.046,-3.0543,-3.0634,-3.0725,-3.079,-3.0871,-3.0912,-3.0952,-3.0992,-3.0975,-3.1072,3.0678,3.0646,3.0582,3.0549,3.0559,3.049,3.0425,3.0336,3.0247,3.0199,3.0157,3.0049,2.9905,2.9506,2.8441,2.7642,2.6749,2.5542,2.48,2.4223,2.3955,2.3783,2.3508,2.3253,2.2977,2.2588,2.201,2.1493,2.099,2.0595,2.017,1.9767,1.9347,1.8869,1.826,1.737,1.6476,1.5674,1.4312,1.3025,1.1665,1.0092,0.8495,0.716,0.5778,0.434,0.3119,0.1835,0.0579,-0.089,-0.2108,-0.4026,-0.6113,-0.7629,-0.8837,-0.999,-1.0927,-1.1858,-1.2663,-1.333,-1.393,-1.4346,-1.4768,-1.5051,-1.5515,-1.6602,-1.7423,-1.7709,-1.8286,-1.8501,-1.8869,-1.9246,-1.9582,-1.9909,-2.0827,-2.1683,-2.2392,-2.3122,-2.3521,-2.3708,-2.3962,-2.4144,-2.4261,-2.4332,-2.4563,-2.4878,-2.5021,-2.5245,-2.5618,-2.5946,-2.6409,-2.6813,-2.7049,-2.7318,-2.7565,-2.7725,-2.794,-2.8137,-2.8317,-2.87,-2.9075,-2.9531,-2.987,-2.9935,-3.0054,-3.0201,-3.0303,-3.0408,-3.0543,-3.0609,-3.0651,-3.0733,-3.0773,-3.0814,-3.0895,3.0642,3.0585,3.0521,3.05,3.0469,3.0414,3.0348,3.0279,3.018,3.0064,2.9988,2.991,2.9754,2.9064,2.783,2.7156,2.626,2.498,2.418,2.3891,2.3725,2.3526,2.3295,2.3052,2.2721,2.2271,2.1751,2.1276,2.0827,2.0494,2.015,1.9797,1.942,1.9006,1.8426,1.7719,1.6896,1.5961,1.4822,1.361,1.2159,1.0661,0.9065,0.7641,0.6298,0.4995,0.3788,0.2569,0.1454,0.0,-0.1606,-0.3372,-0.4858,-0.6274,-0.7358,-0.8458,-0.9354,-1.0173,-1.0933,-1.1626,-1.2227,-1.2777,-1.321,-1.3631,-1.404,-1.469,-1.5515,-1.6156,-1.6733,-1.7357,-1.7768,-1.834,-1.8657,-1.9264,-2.0334,-2.1331,-2.2164,-2.2857,-2.3078,-2.3238,-2.3441,-2.3628,-2.37,-2.3772,-2.4041,-2.4305,-2.458,-2.4851,-2.5119,-2.5494,-2.5835,-2.6304,-2.6649,-2.6909,-2.7268,-2.753,-2.769,-2.789,-2.8073,-2.8414,-2.8779,-2.9152,-2.9393,-2.9464,-2.9572,-2.9749,-2.9883,-3.0022,-3.0119,-3.0258,-3.03,-3.0384,-3.0485,-3.0526,-3.0651,3.054,3.051,3.0449,3.0428,3.0417,3.034,3.0311,3.0279,3.0166,3.0034,2.9924,2.9773,2.9645,2.94,2.7621,2.674,2.6323,2.4764,2.3997,2.3743,2.3549,2.3336,2.3102,2.2825,2.2426,2.1986,2.157,2.1183,2.0827,2.0494,2.0131,1.9812,1.9472,1.9109,1.8688,1.7987,1.7256,1.6343,1.5357,1.4143,1.2803,1.1249,0.9481,0.8059,0.6789,0.5546,0.4346,0.3178,0.2066,0.0683,-0.095,-0.2435,-0.368,-0.4829,-0.5913,-0.6846,-0.7812,-0.8527,-0.9285,-0.9996,-1.0613,-1.1183,-1.1618,-1.2051,-1.2541,-1.2984,-1.3751,-1.4296,-1.5002,-1.6063,-1.667,-1.7616,-1.8207,-1.905,-2.0059,-2.0862,-2.1575,-2.2127,-2.2469,-2.2739,-2.2957,-2.3125,-2.321,-2.339,-2.37,-2.391,-2.4099,-2.4363,-2.4681,-2.4993,-2.537,-2.5741,-2.6172,-2.6611,-2.7027,-2.7291,-2.7488,-2.764,-2.784,-2.8122,-2.8414,-2.8637,-2.8842,-2.8965,-2.9137,-2.9311,-2.9464,-2.955,-2.9726,-2.981,-2.9897,-2.9984,-3.0103,-3.0231,-3.03]}]]